Time,TemperatureF,DewpointF,PressureIn,WindDirection,WindDirectionDegrees,WindSpeedMPH,WindSpeedGustMPH,Humidity,HourlyPrecipIn,Conditions,Clouds,dailyrainin,SoftwareType,DateUTC
2013-06-04 00:00:00,60.2,46.7,29.90,WNW,302,0.0,5.0,61,0.00,,,0.29,VWS V14.01,2013-06-04 04:00:00,
2013-06-04 00:01:00,60.2,46.7,29.90,ENE,58,0.0,4.0,61,0.00,,,0.00,VWS V14.01,2013-06-04 04:01:00,
2013-06-04 00:02:00,60.2,46.7,29.90,ENE,58,0.0,4.0,61,0.00,,,0.00,VWS V14.01,2013-06-04 04:02:00,
2013-06-04 00:03:00,60.2,46.7,29.90,ENE,58,1.0,4.0,61,0.00,,,0.00,VWS V14.01,2013-06-04 04:03:00,
2013-06-04 00:04:00,60.1,46.6,29.90,ENE,58,0.0,4.0,61,0.00,,,0.00,VWS V14.01,2013-06-04 04:04:00,
2013-06-04 00:05:00,60.1,46.6,29.90,NW,321,1.0,4.0,61,0.00,,,0.00,VWS V14.01,2013-06-04 04:05:00,
2013-06-04 00:06:00,60.1,46.6,29.90,ENE,65,0.0,4.0,61,0.00,,,0.00,VWS V14.01,2013-06-04 04:06:00,
2013-06-04 00:07:00,60.0,46.5,29.90,ENE,65,0.0,4.0,61,0.00,,,0.00,VWS V14.01,2013-06-04 04:07:00,
2013-06-04 00:08:00,60.0,46.5,29.90,WNW,287,2.0,4.0,61,0.00,,,0.00,VWS V14.01,2013-06-04 04:08:00,
2013-06-04 00:09:00,60.0,46.5,29.90,WNW,287,0.0,4.0,61,0.00,,,0.00,VWS V14.01,2013-06-04 04:09:00,
2013-06-04 00:10:00,60.0,46.5,29.90,WNW,287,0.0,4.0,61,0.00,,,0.00,VWS V14.01,2013-06-04 04:10:00,
2013-06-04 00:11:00,60.0,46.5,29.90,WNW,287,0.0,0.0,61,0.00,,,0.00,VWS V14.01,2013-06-04 04:11:00,
2013-06-04 00:12:00,60.0,47.4,29.90,WNW,287,0.0,0.0,63,0.00,,,0.00,VWS V14.01,2013-06-04 04:12:00,
2013-06-04 00:13:00,59.9,47.3,29.90,WNW,287,0.0,0.0,63,0.00,,,0.00,VWS V14.01,2013-06-04 04:13:00,
2013-06-04 00:14:00,59.9,47.7,29.90,WNW,287,0.0,1.0,64,0.00,,,0.00,VWS V14.01,2013-06-04 04:14:00,
2013-06-04 00:15:00,59.9,47.3,29.90,WNW,287,0.0,1.0,63,0.00,,,0.00,VWS V14.01,2013-06-04 04:15:00,
2013-06-04 00:16:00,59.9,46.9,29.90,WNW,287,0.0,1.0,62,0.00,,,0.00,VWS V14.01,2013-06-04 04:16:00,
2013-06-04 00:17:00,59.8,47.2,29.90,WNW,287,0.0,1.0,63,0.00,,,0.00,VWS V14.01,2013-06-04 04:17:00,
2013-06-04 00:18:00,59.8,46.8,29.90,WNW,287,0.0,1.0,62,0.00,,,0.00,VWS V14.01,2013-06-04 04:18:00,
2013-06-04 00:19:00,59.7,47.1,29.90,WNW,287,0.0,1.0,63,0.00,,,0.00,VWS V14.01,2013-06-04 04:19:00,
2013-06-04 00:20:00,59.8,47.2,29.90,WNW,287,0.0,1.0,63,0.00,,,0.00,VWS V14.01,2013-06-04 04:20:00,
2013-06-04 00:21:00,59.7,47.1,29.90,WNW,287,0.0,0.0,63,0.00,,,0.00,VWS V14.01,2013-06-04 04:21:00,
2013-06-04 00:22:00,59.7,47.1,29.90,WNW,286,0.0,2.0,63,0.00,,,0.00,VWS V14.01,2013-06-04 04:22:00,
2013-06-04 00:23:00,59.6,47.0,29.90,WNW,286,0.0,2.0,63,0.00,,,0.00,VWS V14.01,2013-06-04 04:23:00,
2013-06-04 00:24:00,59.6,46.6,29.90,WNW,286,0.0,2.0,62,0.00,,,0.00,VWS V14.01,2013-06-04 04:24:00,
2013-06-04 00:25:00,59.6,46.6,29.90,WNW,286,0.0,2.0,62,0.00,,,0.00,VWS V14.01,2013-06-04 04:25:00,
2013-06-04 00:26:00,59.5,46.9,29.90,WNW,286,0.0,2.0,63,0.00,,,0.00,VWS V14.01,2013-06-04 04:26:00,
2013-06-04 00:27:00,59.5,46.9,29.90,WNW,286,0.0,2.0,63,0.00,,,0.00,VWS V14.01,2013-06-04 04:27:00,
2013-06-04 00:28:00,59.5,47.3,29.90,WNW,286,0.0,2.0,64,0.00,,,0.00,VWS V14.01,2013-06-04 04:28:00,
2013-06-04 00:29:00,59.4,47.7,29.90,WNW,286,0.0,2.0,65,0.00,,,0.00,VWS V14.01,2013-06-04 04:29:00,
2013-06-04 00:30:00,59.4,47.2,29.90,NW,305,0.0,2.0,64,0.00,,,0.00,VWS V14.01,2013-06-04 04:30:00,
2013-06-04 00:31:00,59.4,47.2,29.90,NW,305,0.0,0.0,64,0.00,,,0.00,VWS V14.01,2013-06-04 04:31:00,
2013-06-04 00:32:00,59.3,47.1,29.90,NW,307,0.0,1.0,64,0.00,,,0.00,VWS V14.01,2013-06-04 04:32:00,
2013-06-04 00:33:00,59.3,47.1,29.90,NW,307,0.0,1.0,64,0.00,,,0.00,VWS V14.01,2013-06-04 04:33:00,
2013-06-04 00:34:00,59.2,47.0,29.90,NW,307,0.0,1.0,64,0.00,,,0.00,VWS V14.01,2013-06-04 04:34:00,
2013-06-04 00:35:00,59.2,47.0,29.90,NW,307,0.0,1.0,64,0.00,,,0.00,VWS V14.01,2013-06-04 04:35:00,
2013-06-04 00:36:00,59.1,47.4,29.90,NW,307,0.0,1.0,65,0.00,,,0.00,VWS V14.01,2013-06-04 04:36:00,
2013-06-04 00:37:00,59.1,47.4,29.90,NW,307,0.0,1.0,65,0.00,,,0.00,VWS V14.01,2013-06-04 04:37:00,
2013-06-04 00:38:00,59.1,47.0,29.90,West,260,0.0,1.0,64,0.00,,,0.00,VWS V14.01,2013-06-04 04:38:00,
2013-06-04 00:39:00,59.1,47.0,29.90,West,260,0.0,1.0,64,0.00,,,0.00,VWS V14.01,2013-06-04 04:39:00,
2013-06-04 00:40:00,59.0,46.8,29.90,West,260,0.0,1.0,64,0.00,,,0.00,VWS V14.01,2013-06-04 04:40:00,
2013-06-04 00:41:00,58.9,46.3,29.90,West,260,0.0,0.0,63,0.00,,,0.00,VWS V14.01,2013-06-04 04:41:00,
2013-06-04 00:42:00,58.9,46.3,29.90,West,260,0.0,0.0,63,0.00,,,0.00,VWS V14.01,2013-06-04 04:42:00,
2013-06-04 00:43:00,58.8,46.7,29.90,West,260,0.0,0.0,64,0.00,,,0.00,VWS V14.01,2013-06-04 04:43:00,
2013-06-04 00:44:00,58.8,46.7,29.90,WNW,288,0.0,1.0,64,0.00,,,0.00,VWS V14.01,2013-06-04 04:44:00,
2013-06-04 00:45:00,58.8,46.7,29.90,SW,233,2.0,5.0,64,0.00,,,0.00,VWS V14.01,2013-06-04 04:45:00,
2013-06-04 00:46:00,58.7,46.2,29.90,SW,233,0.0,5.0,63,0.00,,,0.00,VWS V14.01,2013-06-04 04:46:00,
2013-06-04 00:47:00,58.7,46.2,29.90,SW,233,0.0,5.0,63,0.00,,,0.00,VWS V14.01,2013-06-04 04:47:00,
2013-06-04 00:48:00,58.7,46.2,29.90,SW,233,0.0,5.0,63,0.00,,,0.00,VWS V14.01,2013-06-04 04:48:00,
2013-06-04 00:49:00,58.7,46.6,29.90,SW,233,0.0,5.0,64,0.00,,,0.00,VWS V14.01,2013-06-04 04:49:00,
2013-06-04 00:50:00,58.7,46.6,29.90,SW,234,1.0,5.0,64,0.00,,,0.00,VWS V14.01,2013-06-04 04:50:00,
2013-06-04 00:51:00,58.6,46.5,29.90,SW,234,0.0,1.0,64,0.00,,,0.00,VWS V14.01,2013-06-04 04:51:00,
2013-06-04 00:52:00,58.6,46.5,29.90,SW,234,0.0,1.0,64,0.00,,,0.00,VWS V14.01,2013-06-04 04:52:00,
2013-06-04 00:53:00,58.6,46.5,29.90,SW,234,0.0,1.0,64,0.00,,,0.00,VWS V14.01,2013-06-04 04:53:00,
2013-06-04 00:54:00,58.5,46.4,29.90,SW,234,0.0,1.0,64,0.00,,,0.00,VWS V14.01,2013-06-04 04:54:00,
2013-06-04 00:55:00,58.5,46.4,29.90,SW,235,0.0,1.0,64,0.00,,,0.00,VWS V14.01,2013-06-04 04:55:00,
2013-06-04 00:56:00,58.5,46.4,29.90,SW,235,0.0,1.0,64,0.00,,,0.00,VWS V14.01,2013-06-04 04:56:00,
2013-06-04 00:57:00,58.4,46.3,29.90,SW,235,0.0,1.0,64,0.00,,,0.00,VWS V14.01,2013-06-04 04:57:00,
2013-06-04 00:58:00,58.4,46.3,29.90,SW,234,2.0,3.0,64,0.00,,,0.00,VWS V14.01,2013-06-04 04:58:00,
2013-06-04 00:59:00,58.4,46.3,29.90,SW,234,0.0,3.0,64,0.00,,,0.00,VWS V14.01,2013-06-04 04:59:00,
2013-06-04 01:00:00,58.3,46.2,29.91,SW,234,0.0,3.0,64,0.00,,,0.00,VWS V14.01,2013-06-04 05:00:00,
2013-06-04 01:01:00,58.3,46.2,29.91,SW,234,0.0,0.0,64,0.00,,,0.00,VWS V14.01,2013-06-04 05:01:00,
2013-06-04 01:02:00,58.2,46.1,29.91,SW,234,0.0,0.0,64,0.00,,,0.00,VWS V14.01,2013-06-04 05:02:00,
2013-06-04 01:03:00,58.2,46.1,29.91,SW,234,0.0,1.0,64,0.00,,,0.00,VWS V14.01,2013-06-04 05:03:00,
2013-06-04 01:04:00,58.2,46.5,29.91,SW,234,0.0,1.0,65,0.00,,,0.00,VWS V14.01,2013-06-04 05:04:00,
2013-06-04 01:05:00,58.2,46.5,29.91,SW,234,0.0,1.0,65,0.00,,,0.00,VWS V14.01,2013-06-04 05:05:00,
2013-06-04 01:06:00,58.1,46.4,29.91,SW,234,0.0,1.0,65,0.00,,,0.00,VWS V14.01,2013-06-04 05:06:00,
2013-06-04 01:07:00,58.1,46.4,29.91,SW,234,0.0,1.0,65,0.00,,,0.00,VWS V14.01,2013-06-04 05:07:00,
2013-06-04 01:08:00,58.1,46.4,29.91,SW,234,0.0,1.0,65,0.00,,,0.00,VWS V14.01,2013-06-04 05:08:00,
2013-06-04 01:09:00,58.1,46.4,29.91,SW,234,0.0,1.0,65,0.00,,,0.00,VWS V14.01,2013-06-04 05:09:00,
2013-06-04 01:10:00,58.0,46.7,29.91,SW,234,0.0,1.0,66,0.00,,,0.00,VWS V14.01,2013-06-04 05:10:00,
2013-06-04 01:11:00,58.0,46.7,29.91,SW,234,0.0,0.0,66,0.00,,,0.00,VWS V14.01,2013-06-04 05:11:00,
2013-06-04 01:12:00,58.0,46.7,29.91,SW,234,0.0,0.0,66,0.00,,,0.00,VWS V14.01,2013-06-04 05:12:00,
2013-06-04 01:13:00,58.0,46.7,29.91,SW,234,0.0,0.0,66,0.00,,,0.00,VWS V14.01,2013-06-04 05:13:00,
2013-06-04 01:14:00,58.0,46.7,29.91,SW,234,0.0,0.0,66,0.00,,,0.00,VWS V14.01,2013-06-04 05:14:00,
2013-06-04 01:15:00,57.9,46.6,29.91,SW,234,0.0,0.0,66,0.00,,,0.00,VWS V14.01,2013-06-04 05:15:00,
2013-06-04 01:16:00,57.9,46.6,29.91,SW,234,0.0,0.0,66,0.00,,,0.00,VWS V14.01,2013-06-04 05:16:00,
2013-06-04 01:17:00,57.8,46.5,29.91,SW,234,0.0,0.0,66,0.00,,,0.00,VWS V14.01,2013-06-04 05:17:00,
2013-06-04 01:18:00,57.8,46.5,29.91,SW,234,0.0,0.0,66,0.00,,,0.00,VWS V14.01,2013-06-04 05:18:00,
2013-06-04 01:19:00,57.7,46.4,29.91,WSW,238,0.0,3.0,66,0.00,,,0.00,VWS V14.01,2013-06-04 05:19:00,
2013-06-04 01:20:00,57.7,46.4,29.91,WSW,242,1.0,3.0,66,0.00,,,0.00,VWS V14.01,2013-06-04 05:20:00,
2013-06-04 01:21:00,57.6,46.3,29.91,WSW,242,0.0,1.0,66,0.00,,,0.00,VWS V14.01,2013-06-04 05:21:00,
2013-06-04 01:22:00,57.6,46.3,29.91,WSW,252,0.0,2.0,66,0.00,,,0.00,VWS V14.01,2013-06-04 05:22:00,
2013-06-04 01:23:00,57.5,46.2,29.91,WSW,252,0.0,2.0,66,0.00,,,0.00,VWS V14.01,2013-06-04 05:23:00,
2013-06-04 01:24:00,57.5,46.6,29.91,WSW,252,0.0,2.0,67,0.00,,,0.00,VWS V14.01,2013-06-04 05:24:00,
2013-06-04 01:25:00,57.5,46.6,29.91,WSW,252,0.0,2.0,67,0.00,,,0.00,VWS V14.01,2013-06-04 05:25:00,
2013-06-04 01:26:00,57.5,46.6,29.91,WSW,252,1.0,2.0,67,0.00,,,0.00,VWS V14.01,2013-06-04 05:26:00,
2013-06-04 01:27:00,57.4,46.5,29.91,West,280,1.0,2.0,67,0.00,,,0.00,VWS V14.01,2013-06-04 05:27:00,
2013-06-04 01:28:00,57.4,46.5,29.91,West,280,0.0,2.0,67,0.00,,,0.00,VWS V14.01,2013-06-04 05:28:00,
2013-06-04 01:29:00,57.4,46.2,29.91,West,280,2.0,2.0,66,0.00,,,0.00,VWS V14.01,2013-06-04 05:29:00,
2013-06-04 01:30:00,57.3,46.0,29.92,West,279,0.0,3.0,66,0.00,,,0.00,VWS V14.01,2013-06-04 05:30:00,
2013-06-04 01:31:00,57.3,46.0,29.92,West,279,0.0,0.0,66,0.00,,,0.00,VWS V14.01,2013-06-04 05:31:00,
2013-06-04 01:32:00,57.2,46.0,29.92,West,279,0.0,0.0,66,0.00,,,0.00,VWS V14.01,2013-06-04 05:32:00,
2013-06-04 01:33:00,57.2,46.0,29.92,West,279,0.0,0.0,66,0.00,,,0.00,VWS V14.01,2013-06-04 05:33:00,
2013-06-04 01:34:00,57.2,46.0,29.92,West,280,0.0,0.0,66,0.00,,,0.00,VWS V14.01,2013-06-04 05:34:00,
2013-06-04 01:35:00,57.2,46.4,29.92,West,279,0.0,2.0,67,0.00,,,0.00,VWS V14.01,2013-06-04 05:35:00,
2013-06-04 01:36:00,57.2,46.8,29.92,WNW,303,0.0,2.0,68,0.00,,,0.00,VWS V14.01,2013-06-04 05:36:00,
2013-06-04 01:37:00,57.1,46.7,29.92,WSW,242,4.0,4.0,68,0.00,,,0.00,VWS V14.01,2013-06-04 05:37:00,
2013-06-04 01:38:00,57.1,46.7,29.92,WSW,242,0.0,4.0,68,0.00,,,0.00,VWS V14.01,2013-06-04 05:38:00,
2013-06-04 01:39:00,57.1,46.3,29.92,WSW,243,0.0,4.0,67,0.00,,,0.00,VWS V14.01,2013-06-04 05:39:00,
2013-06-04 01:40:00,57.1,46.3,29.92,WSW,243,0.0,4.0,67,0.00,,,0.00,VWS V14.01,2013-06-04 05:40:00,
2013-06-04 01:41:00,57.0,46.6,29.92,WSW,243,0.0,0.0,68,0.00,,,0.00,VWS V14.01,2013-06-04 05:41:00,
2013-06-04 01:42:00,57.0,46.6,29.92,West,272,0.0,2.0,68,0.00,,,0.00,VWS V14.01,2013-06-04 05:42:00,
2013-06-04 01:43:00,57.0,46.2,29.92,ENE,59,2.0,3.0,67,0.00,,,0.00,VWS V14.01,2013-06-04 05:43:00,
2013-06-04 01:44:00,57.0,46.2,29.92,NE,47,2.0,4.0,67,0.00,,,0.00,VWS V14.01,2013-06-04 05:44:00,
2013-06-04 01:45:00,56.9,46.1,29.92,NE,46,0.0,4.0,67,0.00,,,0.00,VWS V14.01,2013-06-04 05:45:00,
2013-06-04 01:46:00,56.9,46.1,29.92,NE,47,0.0,4.0,67,0.00,,,0.00,VWS V14.01,2013-06-04 05:46:00,
2013-06-04 01:47:00,56.9,46.1,29.92,NE,41,1.0,4.0,67,0.00,,,0.00,VWS V14.01,2013-06-04 05:47:00,
2013-06-04 01:48:00,56.9,46.1,29.92,NNE,13,0.0,4.0,67,0.00,,,0.00,VWS V14.01,2013-06-04 05:48:00,
2013-06-04 01:49:00,56.9,46.1,29.92,ESE,123,2.0,4.0,67,0.00,,,0.00,VWS V14.01,2013-06-04 05:49:00,
2013-06-04 01:50:00,56.9,46.1,29.92,NW,321,2.0,4.0,67,0.00,,,0.00,VWS V14.01,2013-06-04 05:50:00,
2013-06-04 01:51:00,56.9,46.1,29.92,NW,309,0.0,2.0,67,0.00,,,0.00,VWS V14.01,2013-06-04 05:51:00,
2013-06-04 01:52:00,56.9,46.5,29.92,NNW,340,0.0,2.0,68,0.00,,,0.00,VWS V14.01,2013-06-04 05:52:00,
2013-06-04 01:53:00,56.9,46.1,29.92,NNW,340,0.0,2.0,67,0.00,,,0.00,VWS V14.01,2013-06-04 05:53:00,
2013-06-04 01:54:00,56.9,46.1,29.92,NNW,340,0.0,2.0,67,0.00,,,0.00,VWS V14.01,2013-06-04 05:54:00,
2013-06-04 01:55:00,56.9,46.5,29.92,NNW,340,0.0,2.0,68,0.00,,,0.00,VWS V14.01,2013-06-04 05:55:00,
2013-06-04 01:56:00,56.9,46.5,29.92,NNW,340,0.0,2.0,68,0.00,,,0.00,VWS V14.01,2013-06-04 05:56:00,
2013-06-04 01:57:00,56.9,46.5,29.92,NNW,341,1.0,2.0,68,0.00,,,0.00,VWS V14.01,2013-06-04 05:57:00,
2013-06-04 01:58:00,56.9,46.5,29.92,North,10,1.0,2.0,68,0.00,,,0.00,VWS V14.01,2013-06-04 05:58:00,
2013-06-04 01:59:00,56.9,46.5,29.92,North,10,0.0,2.0,68,0.00,,,0.00,VWS V14.01,2013-06-04 05:59:00,
2013-06-04 02:00:00,56.8,46.4,29.93,North,10,0.0,2.0,68,0.00,,,0.00,VWS V14.01,2013-06-04 06:00:00,
2013-06-04 02:01:00,56.8,46.4,29.93,North,10,0.0,1.0,68,0.00,,,0.00,VWS V14.01,2013-06-04 06:01:00,
2013-06-04 02:02:00,56.8,46.4,29.93,NNW,336,1.0,1.0,68,0.00,,,0.00,VWS V14.01,2013-06-04 06:02:00,
2013-06-04 02:03:00,56.8,46.0,29.93,NNW,335,0.0,1.0,67,0.00,,,0.00,VWS V14.01,2013-06-04 06:03:00,
2013-06-04 02:04:00,56.8,46.4,29.93,NNW,335,0.0,1.0,68,0.00,,,0.00,VWS V14.01,2013-06-04 06:04:00,
2013-06-04 02:05:00,56.8,46.4,29.93,NNW,335,0.0,1.0,68,0.00,,,0.00,VWS V14.01,2013-06-04 06:05:00,
2013-06-04 02:06:00,56.8,46.4,29.93,NNW,336,0.0,1.0,68,0.00,,,0.00,VWS V14.01,2013-06-04 06:06:00,
2013-06-04 02:07:00,56.8,46.4,29.93,NNW,336,0.0,1.0,68,0.00,,,0.00,VWS V14.01,2013-06-04 06:07:00,
2013-06-04 02:08:00,56.8,46.4,29.93,NNW,336,0.0,1.0,68,0.00,,,0.00,VWS V14.01,2013-06-04 06:08:00,
2013-06-04 02:09:00,56.8,46.4,29.93,NNW,335,0.0,1.0,68,0.00,,,0.00,VWS V14.01,2013-06-04 06:09:00,
2013-06-04 02:10:00,56.8,46.4,29.93,NNW,336,0.0,2.0,68,0.00,,,0.00,VWS V14.01,2013-06-04 06:10:00,
2013-06-04 02:11:00,56.8,46.4,29.93,NNW,336,0.0,0.0,68,0.00,,,0.00,VWS V14.01,2013-06-04 06:11:00,
2013-06-04 02:12:00,56.8,46.4,29.93,NNW,337,0.0,1.0,68,0.00,,,0.00,VWS V14.01,2013-06-04 06:12:00,
2013-06-04 02:13:00,56.7,46.3,29.93,NW,319,1.0,2.0,68,0.00,,,0.00,VWS V14.01,2013-06-04 06:13:00,
2013-06-04 02:14:00,56.8,46.4,29.93,NW,319,0.0,2.0,68,0.00,,,0.00,VWS V14.01,2013-06-04 06:14:00,
2013-06-04 02:15:00,56.7,46.7,29.93,NW,319,0.0,2.0,69,0.00,,,0.00,VWS V14.01,2013-06-04 06:15:00,
2013-06-04 02:16:00,56.7,46.7,29.93,NW,319,0.0,2.0,69,0.00,,,0.00,VWS V14.01,2013-06-04 06:16:00,
2013-06-04 02:17:00,56.7,46.7,29.93,NW,319,0.0,2.0,69,0.00,,,0.00,VWS V14.01,2013-06-04 06:17:00,
2013-06-04 02:18:00,56.7,46.7,29.93,NW,319,0.0,2.0,69,0.00,,,0.00,VWS V14.01,2013-06-04 06:18:00,
2013-06-04 02:19:00,56.7,46.7,29.93,NW,311,0.0,2.0,69,0.00,,,0.00,VWS V14.01,2013-06-04 06:19:00,
2013-06-04 02:20:00,56.7,46.7,29.93,NW,311,0.0,2.0,69,0.00,,,0.00,VWS V14.01,2013-06-04 06:20:00,
2013-06-04 02:21:00,56.7,46.7,29.93,NW,311,0.0,1.0,69,0.00,,,0.00,VWS V14.01,2013-06-04 06:21:00,
2013-06-04 02:22:00,56.6,46.6,29.93,NW,311,0.0,1.0,69,0.00,,,0.00,VWS V14.01,2013-06-04 06:22:00,
2013-06-04 02:23:00,56.6,46.6,29.93,NW,311,0.0,1.0,69,0.00,,,0.00,VWS V14.01,2013-06-04 06:23:00,
2013-06-04 02:24:00,56.6,46.6,29.93,NW,311,0.0,1.0,69,0.00,,,0.00,VWS V14.01,2013-06-04 06:24:00,
2013-06-04 02:25:00,56.5,46.5,29.93,NW,311,0.0,1.0,69,0.00,,,0.00,VWS V14.01,2013-06-04 06:25:00,
2013-06-04 02:26:00,56.5,46.5,29.93,NW,311,0.0,1.0,69,0.00,,,0.00,VWS V14.01,2013-06-04 06:26:00,
2013-06-04 02:27:00,56.4,46.4,29.93,NW,311,0.0,1.0,69,0.00,,,0.00,VWS V14.01,2013-06-04 06:27:00,
2013-06-04 02:28:00,56.4,46.4,29.93,SW,227,0.0,3.0,69,0.00,,,0.00,VWS V14.01,2013-06-04 06:28:00,
2013-06-04 02:29:00,56.4,46.4,29.93,SW,227,0.0,3.0,69,0.00,,,0.00,VWS V14.01,2013-06-04 06:29:00,
2013-06-04 02:30:00,56.4,46.8,29.93,SW,227,0.0,3.0,70,0.00,,,0.00,VWS V14.01,2013-06-04 06:30:00,
2013-06-04 02:31:00,56.4,46.8,29.93,WNW,283,1.0,1.0,70,0.00,,,0.00,VWS V14.01,2013-06-04 06:31:00,
2013-06-04 02:32:00,56.4,47.1,29.93,WNW,283,0.0,1.0,71,0.00,,,0.00,VWS V14.01,2013-06-04 06:32:00,
2013-06-04 02:33:00,56.4,47.1,29.93,West,280,0.0,1.0,71,0.00,,,0.00,VWS V14.01,2013-06-04 06:33:00,
2013-06-04 02:34:00,56.3,46.7,29.93,West,280,0.0,1.0,70,0.00,,,0.00,VWS V14.01,2013-06-04 06:34:00,
2013-06-04 02:35:00,56.3,46.7,29.93,WNW,283,0.0,1.0,70,0.00,,,0.00,VWS V14.01,2013-06-04 06:35:00,
2013-06-04 02:36:00,56.3,46.3,29.93,WNW,283,0.0,1.0,69,0.00,,,0.00,VWS V14.01,2013-06-04 06:36:00,
2013-06-04 02:37:00,56.2,46.2,29.93,WNW,283,1.0,1.0,69,0.00,,,0.00,VWS V14.01,2013-06-04 06:37:00,
2013-06-04 02:38:00,56.2,46.6,29.93,WNW,283,0.0,1.0,70,0.00,,,0.00,VWS V14.01,2013-06-04 06:38:00,
2013-06-04 02:39:00,56.2,46.6,29.93,WNW,283,0.0,3.0,70,0.00,,,0.00,VWS V14.01,2013-06-04 06:39:00,
2013-06-04 02:40:00,56.2,46.6,29.93,NE,51,3.0,8.0,70,0.00,,,0.00,VWS V14.01,2013-06-04 06:40:00,
2013-06-04 02:41:00,56.1,46.5,29.93,NE,53,0.0,3.0,70,0.00,,,0.00,VWS V14.01,2013-06-04 06:41:00,
2013-06-04 02:42:00,56.0,46.4,29.93,NE,53,0.0,3.0,70,0.00,,,0.00,VWS V14.01,2013-06-04 06:42:00,
2013-06-04 02:43:00,56.0,46.4,29.93,NW,321,2.0,3.0,70,0.00,,,0.00,VWS V14.01,2013-06-04 06:43:00,
2013-06-04 02:44:00,56.0,46.4,29.93,NNW,333,0.0,4.0,70,0.00,,,0.00,VWS V14.01,2013-06-04 06:44:00,
2013-06-04 02:45:00,56.0,46.4,29.93,NNW,333,1.0,4.0,70,0.00,,,0.00,VWS V14.01,2013-06-04 06:45:00,
2013-06-04 02:46:00,55.9,46.3,29.93,NNE,27,1.0,4.0,70,0.00,,,0.00,VWS V14.01,2013-06-04 06:46:00,
2013-06-04 02:47:00,55.9,46.3,29.93,NNE,29,0.0,4.0,70,0.00,,,0.00,VWS V14.01,2013-06-04 06:47:00,
2013-06-04 02:48:00,55.9,46.3,29.93,NNE,29,0.0,4.0,70,0.00,,,0.00,VWS V14.01,2013-06-04 06:48:00,
2013-06-04 02:49:00,55.8,46.2,29.93,NNE,33,2.0,4.0,70,0.00,,,0.00,VWS V14.01,2013-06-04 06:49:00,
2013-06-04 02:50:00,55.8,46.2,29.93,SW,236,5.0,5.0,70,0.00,,,0.00,VWS V14.01,2013-06-04 06:50:00,
2013-06-04 02:51:00,55.8,45.8,29.93,ESE,116,0.0,2.0,69,0.00,,,0.00,VWS V14.01,2013-06-04 06:51:00,
2013-06-04 02:52:00,55.8,45.8,29.93,ESE,121,0.0,2.0,69,0.00,,,0.00,VWS V14.01,2013-06-04 06:52:00,
2013-06-04 02:53:00,55.7,46.1,29.93,ESE,121,0.0,2.0,70,0.00,,,0.00,VWS V14.01,2013-06-04 06:53:00,
2013-06-04 02:54:00,55.7,46.5,29.93,ESE,121,0.0,2.0,71,0.00,,,0.00,VWS V14.01,2013-06-04 06:54:00,
2013-06-04 02:55:00,55.7,46.5,29.93,ESE,121,0.0,2.0,71,0.00,,,0.00,VWS V14.01,2013-06-04 06:55:00,
2013-06-04 02:56:00,55.7,46.1,29.93,ESE,120,0.0,3.0,70,0.00,,,0.00,VWS V14.01,2013-06-04 06:56:00,
2013-06-04 02:57:00,55.7,46.1,29.93,NW,319,1.0,3.0,70,0.00,,,0.00,VWS V14.01,2013-06-04 06:57:00,
2013-06-04 02:58:00,55.6,46.0,29.93,WNW,299,0.0,3.0,70,0.00,,,0.00,VWS V14.01,2013-06-04 06:58:00,
2013-06-04 02:59:00,55.6,46.0,29.93,NNW,331,2.0,3.0,70,0.00,,,0.00,VWS V14.01,2013-06-04 06:59:00,
2013-06-04 03:00:00,55.6,45.6,29.92,SE,139,0.0,3.0,69,0.00,,,0.00,VWS V14.01,2013-06-04 07:00:00,
2013-06-04 03:01:00,55.5,45.5,29.92,SE,139,0.0,0.0,69,0.00,,,0.00,VWS V14.01,2013-06-04 07:01:00,
2013-06-04 03:02:00,55.5,46.3,29.92,SE,139,0.0,0.0,71,0.00,,,0.00,VWS V14.01,2013-06-04 07:02:00,
2013-06-04 03:03:00,55.5,46.3,29.92,SE,139,0.0,0.0,71,0.00,,,0.00,VWS V14.01,2013-06-04 07:03:00,
2013-06-04 03:04:00,55.5,46.3,29.92,SE,139,0.0,2.0,71,0.00,,,0.00,VWS V14.01,2013-06-04 07:04:00,
2013-06-04 03:05:00,55.5,46.3,29.92,ESE,107,2.0,2.0,71,0.00,,,0.00,VWS V14.01,2013-06-04 07:05:00,
2013-06-04 03:06:00,55.5,46.3,29.92,ESE,107,2.0,2.0,71,0.00,,,0.00,VWS V14.01,2013-06-04 07:06:00,
2013-06-04 03:07:00,55.4,46.2,29.92,ESE,108,0.0,2.0,71,0.00,,,0.00,VWS V14.01,2013-06-04 07:07:00,
2013-06-04 03:08:00,55.4,46.2,29.92,ESE,107,0.0,2.0,71,0.00,,,0.00,VWS V14.01,2013-06-04 07:08:00,
2013-06-04 03:09:00,55.4,46.2,29.92,ESE,108,1.0,2.0,71,0.00,,,0.00,VWS V14.01,2013-06-04 07:09:00,
2013-06-04 03:10:00,55.3,46.1,29.92,ESE,108,0.0,2.0,71,0.00,,,0.00,VWS V14.01,2013-06-04 07:10:00,
2013-06-04 03:11:00,55.3,46.1,29.92,ESE,108,0.0,2.0,71,0.00,,,0.00,VWS V14.01,2013-06-04 07:11:00,
2013-06-04 03:12:00,55.3,46.1,29.92,East,82,2.0,3.0,71,0.00,,,0.00,VWS V14.01,2013-06-04 07:12:00,
2013-06-04 03:13:00,55.3,46.1,29.92,East,85,2.0,3.0,71,0.00,,,0.00,VWS V14.01,2013-06-04 07:13:00,
2013-06-04 03:14:00,55.2,46.0,29.92,East,80,1.0,5.0,71,0.00,,,0.00,VWS V14.01,2013-06-04 07:14:00,
2013-06-04 03:15:00,55.2,46.0,29.92,East,80,0.0,5.0,71,0.00,,,0.00,VWS V14.01,2013-06-04 07:15:00,
2013-06-04 03:16:00,55.1,45.9,29.92,East,80,0.0,5.0,71,0.00,,,0.00,VWS V14.01,2013-06-04 07:16:00,
2013-06-04 03:17:00,55.1,46.2,29.92,ENE,69,1.0,5.0,72,0.00,,,0.00,VWS V14.01,2013-06-04 07:17:00,
2013-06-04 03:18:00,55.1,45.9,29.92,ENE,69,0.0,5.0,71,0.00,,,0.00,VWS V14.01,2013-06-04 07:18:00,
2013-06-04 03:19:00,55.1,45.9,29.92,ENE,69,0.0,5.0,71,0.00,,,0.00,VWS V14.01,2013-06-04 07:19:00,
2013-06-04 03:20:00,55.1,45.9,29.92,ENE,69,1.0,5.0,71,0.00,,,0.00,VWS V14.01,2013-06-04 07:20:00,
2013-06-04 03:21:00,55.0,46.2,29.92,ENE,69,0.0,1.0,72,0.00,,,0.00,VWS V14.01,2013-06-04 07:21:00,
2013-06-04 03:22:00,55.0,46.2,29.92,ENE,69,0.0,1.0,72,0.00,,,0.00,VWS V14.01,2013-06-04 07:22:00,
2013-06-04 03:23:00,55.0,46.2,29.92,ENE,69,0.0,1.0,72,0.00,,,0.00,VWS V14.01,2013-06-04 07:23:00,
2013-06-04 03:24:00,55.0,46.2,29.92,SW,214,0.0,4.0,72,0.00,,,0.00,VWS V14.01,2013-06-04 07:24:00,
2013-06-04 03:25:00,55.0,46.2,29.92,SSE,167,0.0,4.0,72,0.00,,,0.00,VWS V14.01,2013-06-04 07:25:00,
2013-06-04 03:26:00,54.9,45.7,29.92,ENE,66,0.0,4.0,71,0.00,,,0.00,VWS V14.01,2013-06-04 07:26:00,
2013-06-04 03:27:00,54.9,45.7,29.92,ENE,66,0.0,4.0,71,0.00,,,0.00,VWS V14.01,2013-06-04 07:27:00,
2013-06-04 03:28:00,54.8,45.6,29.92,ENE,66,0.0,4.0,71,0.00,,,0.00,VWS V14.01,2013-06-04 07:28:00,
2013-06-04 03:29:00,54.8,45.6,29.92,ENE,66,0.0,4.0,71,0.00,,,0.00,VWS V14.01,2013-06-04 07:29:00,
2013-06-04 03:30:00,54.8,46.0,29.93,ENE,71,2.0,4.0,72,0.00,,,0.00,VWS V14.01,2013-06-04 07:30:00,
2013-06-04 03:31:00,54.8,46.0,29.93,ENE,71,0.0,2.0,72,0.00,,,0.00,VWS V14.01,2013-06-04 07:31:00,
2013-06-04 03:32:00,54.8,46.0,29.93,ENE,71,1.0,3.0,72,0.00,,,0.00,VWS V14.01,2013-06-04 07:32:00,
2013-06-04 03:33:00,54.7,45.9,29.93,NNW,344,1.0,3.0,72,0.00,,,0.00,VWS V14.01,2013-06-04 07:33:00,
2013-06-04 03:34:00,54.7,45.9,29.93,NNE,18,0.0,3.0,72,0.00,,,0.00,VWS V14.01,2013-06-04 07:34:00,
2013-06-04 03:35:00,54.7,45.9,29.93,SW,216,0.0,3.0,72,0.00,,,0.00,VWS V14.01,2013-06-04 07:35:00,
2013-06-04 03:36:00,54.6,46.1,29.93,South,182,0.0,3.0,73,0.00,,,0.00,VWS V14.01,2013-06-04 07:36:00,
2013-06-04 03:37:00,54.6,46.1,29.93,SW,232,3.0,3.0,73,0.00,,,0.00,VWS V14.01,2013-06-04 07:37:00,
2013-06-04 03:38:00,54.6,45.8,29.93,NNW,340,1.0,4.0,72,0.00,,,0.00,VWS V14.01,2013-06-04 07:38:00,
2013-06-04 03:39:00,54.5,45.7,29.93,NE,34,0.0,4.0,72,0.00,,,0.00,VWS V14.01,2013-06-04 07:39:00,
2013-06-04 03:40:00,54.5,45.7,29.93,NE,34,0.0,4.0,72,0.00,,,0.00,VWS V14.01,2013-06-04 07:40:00,
2013-06-04 03:41:00,54.5,46.0,29.93,East,90,1.0,4.0,73,0.00,,,0.00,VWS V14.01,2013-06-04 07:41:00,
2013-06-04 03:42:00,54.5,45.7,29.93,SW,228,0.0,4.0,72,0.00,,,0.00,VWS V14.01,2013-06-04 07:42:00,
2013-06-04 03:43:00,54.4,45.9,29.93,ENE,63,1.0,5.0,73,0.00,,,0.00,VWS V14.01,2013-06-04 07:43:00,
2013-06-04 03:44:00,54.4,45.9,29.93,ENE,65,7.0,7.0,73,0.00,,,0.00,VWS V14.01,2013-06-04 07:44:00,
2013-06-04 03:45:00,54.4,45.9,29.93,NE,50,0.0,7.0,73,0.00,,,0.00,VWS V14.01,2013-06-04 07:45:00,
2013-06-04 03:46:00,54.4,45.9,29.93,NE,50,0.0,7.0,73,0.00,,,0.00,VWS V14.01,2013-06-04 07:46:00,
2013-06-04 03:47:00,54.3,45.8,29.93,NE,51,2.0,7.0,73,0.00,,,0.00,VWS V14.01,2013-06-04 07:47:00,
2013-06-04 03:48:00,54.3,45.8,29.93,West,279,1.0,7.0,73,0.00,,,0.00,VWS V14.01,2013-06-04 07:48:00,
2013-06-04 03:49:00,54.2,45.8,29.93,West,279,0.0,7.0,73,0.00,,,0.00,VWS V14.01,2013-06-04 07:49:00,
2013-06-04 03:50:00,54.2,45.8,29.93,South,178,0.0,7.0,73,0.00,,,0.00,VWS V14.01,2013-06-04 07:50:00,
2013-06-04 03:51:00,54.2,45.8,29.93,WSW,252,1.0,3.0,73,0.00,,,0.00,VWS V14.01,2013-06-04 07:51:00,
2013-06-04 03:52:00,54.2,45.8,29.93,WSW,252,0.0,3.0,73,0.00,,,0.00,VWS V14.01,2013-06-04 07:52:00,
2013-06-04 03:53:00,54.2,45.8,29.93,WSW,252,0.0,3.0,73,0.00,,,0.00,VWS V14.01,2013-06-04 07:53:00,
2013-06-04 03:54:00,54.2,46.1,29.93,NNW,333,0.0,6.0,74,0.00,,,0.00,VWS V14.01,2013-06-04 07:54:00,
2013-06-04 03:55:00,54.2,45.8,29.93,NNW,341,1.0,6.0,73,0.00,,,0.00,VWS V14.01,2013-06-04 07:55:00,
2013-06-04 03:56:00,54.2,46.1,29.93,NNW,343,0.0,6.0,74,0.00,,,0.00,VWS V14.01,2013-06-04 07:56:00,
2013-06-04 03:57:00,54.1,46.0,29.93,NNW,342,0.0,6.0,74,0.00,,,0.00,VWS V14.01,2013-06-04 07:57:00,
2013-06-04 03:58:00,54.1,46.0,29.93,ENE,74,2.0,6.0,74,0.00,,,0.00,VWS V14.01,2013-06-04 07:58:00,
2013-06-04 03:59:00,54.1,46.0,29.93,NW,322,1.0,6.0,74,0.00,,,0.00,VWS V14.01,2013-06-04 07:59:00,
2013-06-04 04:00:00,54.1,46.0,29.93,NW,321,0.0,6.0,74,0.00,,,0.00,VWS V14.01,2013-06-04 08:00:00,
2013-06-04 04:01:00,54.1,46.0,29.93,NNW,327,0.0,4.0,74,0.00,,,0.00,VWS V14.01,2013-06-04 08:01:00,
2013-06-04 04:02:00,54.0,45.9,29.93,NW,326,0.0,4.0,74,0.00,,,0.00,VWS V14.01,2013-06-04 08:02:00,
2013-06-04 04:03:00,54.0,45.9,29.93,NW,325,0.0,4.0,74,0.00,,,0.00,VWS V14.01,2013-06-04 08:03:00,
2013-06-04 04:04:00,54.0,45.9,29.93,East,96,5.0,5.0,74,0.00,,,0.00,VWS V14.01,2013-06-04 08:04:00,
2013-06-04 04:05:00,54.0,45.9,29.93,East,96,0.0,5.0,74,0.00,,,0.00,VWS V14.01,2013-06-04 08:05:00,
2013-06-04 04:06:00,54.0,45.9,29.93,SSW,204,3.0,5.0,74,0.00,,,0.00,VWS V14.01,2013-06-04 08:06:00,
2013-06-04 04:07:00,53.9,46.2,29.93,SSW,195,0.0,5.0,75,0.00,,,0.00,VWS V14.01,2013-06-04 08:07:00,
2013-06-04 04:08:00,53.9,46.2,29.93,SSW,209,0.0,5.0,75,0.00,,,0.00,VWS V14.01,2013-06-04 08:08:00,
2013-06-04 04:09:00,53.9,45.8,29.93,ESE,103,1.0,5.0,74,0.00,,,0.00,VWS V14.01,2013-06-04 08:09:00,
2013-06-04 04:10:00,53.9,46.2,29.93,ENE,57,0.0,5.0,75,0.00,,,0.00,VWS V14.01,2013-06-04 08:10:00,
2013-06-04 04:11:00,53.9,46.2,29.93,South,180,2.0,5.0,75,0.00,,,0.00,VWS V14.01,2013-06-04 08:11:00,
2013-06-04 04:12:00,53.8,46.1,29.93,East,101,5.0,5.0,75,0.00,,,0.00,VWS V14.01,2013-06-04 08:12:00,
2013-06-04 04:13:00,53.8,46.1,29.93,ESE,113,1.0,5.0,75,0.00,,,0.00,VWS V14.01,2013-06-04 08:13:00,
2013-06-04 04:14:00,53.7,46.0,29.93,ESE,110,1.0,5.0,75,0.00,,,0.00,VWS V14.01,2013-06-04 08:14:00,
2013-06-04 04:15:00,53.7,46.0,29.94,NNW,340,1.0,5.0,75,0.00,,,0.00,VWS V14.01,2013-06-04 08:15:00,
2013-06-04 04:16:00,53.7,46.0,29.94,North,350,0.0,5.0,75,0.00,,,0.00,VWS V14.01,2013-06-04 08:16:00,
2013-06-04 04:17:00,53.6,45.9,29.94,North,350,0.0,5.0,75,0.00,,,0.00,VWS V14.01,2013-06-04 08:17:00,
2013-06-04 04:18:00,53.6,46.2,29.94,North,5,1.0,5.0,76,0.00,,,0.00,VWS V14.01,2013-06-04 08:18:00,
2013-06-04 04:19:00,53.6,46.2,29.94,North,9,0.0,5.0,76,0.00,,,0.00,VWS V14.01,2013-06-04 08:19:00,
2013-06-04 04:20:00,53.6,46.2,29.94,WNW,303,2.0,5.0,76,0.00,,,0.00,VWS V14.01,2013-06-04 08:20:00,
2013-06-04 04:21:00,53.6,46.2,29.94,North,355,0.0,2.0,76,0.00,,,0.00,VWS V14.01,2013-06-04 08:21:00,
2013-06-04 04:22:00,53.5,46.1,29.94,ESE,119,0.0,2.0,76,0.00,,,0.00,VWS V14.01,2013-06-04 08:22:00,
2013-06-04 04:23:00,53.5,46.1,29.94,ESE,119,0.0,2.0,76,0.00,,,0.00,VWS V14.01,2013-06-04 08:23:00,
2013-06-04 04:24:00,53.5,46.1,29.94,ESE,119,0.0,2.0,76,0.00,,,0.00,VWS V14.01,2013-06-04 08:24:00,
2013-06-04 04:25:00,53.5,46.1,29.94,ESE,119,0.0,2.0,76,0.00,,,0.00,VWS V14.01,2013-06-04 08:25:00,
2013-06-04 04:26:00,53.4,46.0,29.94,NNE,16,5.0,5.0,76,0.00,,,0.00,VWS V14.01,2013-06-04 08:26:00,
2013-06-04 04:27:00,53.4,46.0,29.94,NNE,19,0.0,5.0,76,0.00,,,0.00,VWS V14.01,2013-06-04 08:27:00,
2013-06-04 04:28:00,53.4,46.0,29.94,NNE,19,0.0,5.0,76,0.00,,,0.00,VWS V14.01,2013-06-04 08:28:00,
2013-06-04 04:29:00,53.3,45.9,29.94,NNE,19,0.0,5.0,76,0.00,,,0.00,VWS V14.01,2013-06-04 08:29:00,
2013-06-04 04:30:00,53.3,45.9,29.94,NNE,19,0.0,5.0,76,0.00,,,0.00,VWS V14.01,2013-06-04 08:30:00,
2013-06-04 04:31:00,53.3,45.9,29.94,NNE,19,0.0,0.0,76,0.00,,,0.00,VWS V14.01,2013-06-04 08:31:00,
2013-06-04 04:32:00,53.2,45.8,29.94,North,9,0.0,2.0,76,0.00,,,0.00,VWS V14.01,2013-06-04 08:32:00,
2013-06-04 04:33:00,53.2,46.2,29.94,North,9,0.0,2.0,77,0.00,,,0.00,VWS V14.01,2013-06-04 08:33:00,
2013-06-04 04:34:00,53.2,46.2,29.94,North,9,1.0,2.0,77,0.00,,,0.00,VWS V14.01,2013-06-04 08:34:00,
2013-06-04 04:35:00,53.1,46.1,29.94,North,9,0.0,2.0,77,0.00,,,0.00,VWS V14.01,2013-06-04 08:35:00,
2013-06-04 04:36:00,53.1,46.1,29.94,North,9,0.0,2.0,77,0.00,,,0.00,VWS V14.01,2013-06-04 08:36:00,
2013-06-04 04:37:00,53.1,46.1,29.94,North,9,0.0,2.0,77,0.00,,,0.00,VWS V14.01,2013-06-04 08:37:00,
2013-06-04 04:38:00,53.0,46.0,29.94,North,9,0.0,2.0,77,0.00,,,0.00,VWS V14.01,2013-06-04 08:38:00,
2013-06-04 04:39:00,53.0,46.0,29.94,North,9,0.0,2.0,77,0.00,,,0.00,VWS V14.01,2013-06-04 08:39:00,
2013-06-04 04:40:00,53.0,46.0,29.94,North,9,0.0,2.0,77,0.00,,,0.00,VWS V14.01,2013-06-04 08:40:00,
2013-06-04 04:41:00,53.0,46.0,29.94,North,9,0.0,1.0,77,0.00,,,0.00,VWS V14.01,2013-06-04 08:41:00,
2013-06-04 04:42:00,53.0,46.0,29.94,North,9,0.0,1.0,77,0.00,,,0.00,VWS V14.01,2013-06-04 08:42:00,
2013-06-04 04:43:00,53.0,46.0,29.94,North,5,0.0,1.0,77,0.00,,,0.00,VWS V14.01,2013-06-04 08:43:00,
2013-06-04 04:44:00,53.0,46.0,29.94,North,5,0.0,1.0,77,0.00,,,0.00,VWS V14.01,2013-06-04 08:44:00,
2013-06-04 04:45:00,52.9,45.9,29.95,North,5,0.0,1.0,77,0.00,,,0.00,VWS V14.01,2013-06-04 08:45:00,
2013-06-04 04:46:00,52.9,45.9,29.95,North,5,0.0,1.0,77,0.00,,,0.00,VWS V14.01,2013-06-04 08:46:00,
2013-06-04 04:47:00,52.9,45.9,29.95,North,5,0.0,1.0,77,0.00,,,0.00,VWS V14.01,2013-06-04 08:47:00,
2013-06-04 04:48:00,52.8,46.1,29.95,East,88,0.0,2.0,78,0.00,,,0.00,VWS V14.01,2013-06-04 08:48:00,
2013-06-04 04:49:00,52.8,46.1,29.95,East,88,0.0,2.0,78,0.00,,,0.00,VWS V14.01,2013-06-04 08:49:00,
2013-06-04 04:50:00,52.8,46.1,29.95,East,88,0.0,2.0,78,0.00,,,0.00,VWS V14.01,2013-06-04 08:50:00,
2013-06-04 04:51:00,52.7,46.0,29.95,East,88,0.0,0.0,78,0.00,,,0.00,VWS V14.01,2013-06-04 08:51:00,
2013-06-04 04:52:00,52.7,46.0,29.95,East,88,0.0,0.0,78,0.00,,,0.00,VWS V14.01,2013-06-04 08:52:00,
2013-06-04 04:53:00,52.7,46.0,29.95,SE,134,0.0,0.0,78,0.00,,,0.00,VWS V14.01,2013-06-04 08:53:00,
2013-06-04 04:54:00,52.7,46.0,29.95,SE,133,0.0,0.0,78,0.00,,,0.00,VWS V14.01,2013-06-04 08:54:00,
2013-06-04 04:55:00,52.6,46.0,29.95,North,9,3.0,3.0,78,0.00,,,0.00,VWS V14.01,2013-06-04 08:55:00,
2013-06-04 04:56:00,52.6,46.0,29.95,North,11,0.0,3.0,78,0.00,,,0.00,VWS V14.01,2013-06-04 08:56:00,
2013-06-04 04:57:00,52.6,46.0,29.95,North,11,0.0,3.0,78,0.00,,,0.00,VWS V14.01,2013-06-04 08:57:00,
2013-06-04 04:58:00,52.6,46.0,29.95,North,11,0.0,3.0,78,0.00,,,0.00,VWS V14.01,2013-06-04 08:58:00,
2013-06-04 04:59:00,52.5,45.8,29.95,North,11,0.0,3.0,78,0.00,,,0.00,VWS V14.01,2013-06-04 08:59:00,
2013-06-04 05:00:00,52.5,45.8,29.95,North,11,0.0,3.0,78,0.00,,,0.00,VWS V14.01,2013-06-04 09:00:00,
2013-06-04 05:01:00,52.4,46.1,29.95,North,11,0.0,0.0,79,0.00,,,0.00,VWS V14.01,2013-06-04 09:01:00,
2013-06-04 05:02:00,52.4,46.1,29.95,North,11,0.0,0.0,79,0.00,,,0.00,VWS V14.01,2013-06-04 09:02:00,
2013-06-04 05:03:00,52.4,46.1,29.95,North,11,0.0,1.0,79,0.00,,,0.00,VWS V14.01,2013-06-04 09:03:00,
2013-06-04 05:04:00,52.4,46.1,29.95,North,11,0.0,1.0,79,0.00,,,0.00,VWS V14.01,2013-06-04 09:04:00,
2013-06-04 05:05:00,52.4,46.1,29.95,North,11,0.0,1.0,79,0.00,,,0.00,VWS V14.01,2013-06-04 09:05:00,
2013-06-04 05:06:00,52.4,46.1,29.95,North,11,0.0,1.0,79,0.00,,,0.00,VWS V14.01,2013-06-04 09:06:00,
2013-06-04 05:07:00,52.4,46.1,29.95,North,11,0.0,1.0,79,0.00,,,0.00,VWS V14.01,2013-06-04 09:07:00,
2013-06-04 05:08:00,52.3,46.0,29.95,North,11,0.0,1.0,79,0.00,,,0.00,VWS V14.01,2013-06-04 09:08:00,
2013-06-04 05:09:00,52.3,46.0,29.95,North,11,0.0,1.0,79,0.00,,,0.00,VWS V14.01,2013-06-04 09:09:00,
2013-06-04 05:10:00,52.3,46.0,29.95,North,11,0.0,1.0,79,0.00,,,0.00,VWS V14.01,2013-06-04 09:10:00,
2013-06-04 05:11:00,52.3,46.0,29.95,North,11,0.0,0.0,79,0.00,,,0.00,VWS V14.01,2013-06-04 09:11:00,
2013-06-04 05:12:00,52.3,46.0,29.95,North,11,0.0,0.0,79,0.00,,,0.00,VWS V14.01,2013-06-04 09:12:00,
2013-06-04 05:13:00,52.3,46.0,29.95,North,11,0.0,0.0,79,0.00,,,0.00,VWS V14.01,2013-06-04 09:13:00,
2013-06-04 05:14:00,52.2,45.9,29.95,North,11,0.0,0.0,79,0.00,,,0.00,VWS V14.01,2013-06-04 09:14:00,
2013-06-04 05:15:00,52.2,45.9,29.95,North,11,0.0,0.0,79,0.00,,,0.00,VWS V14.01,2013-06-04 09:15:00,
2013-06-04 05:16:00,52.2,45.9,29.95,North,11,0.0,0.0,79,0.00,,,0.00,VWS V14.01,2013-06-04 09:16:00,
2013-06-04 05:17:00,52.2,45.9,29.95,North,11,0.0,0.0,79,0.00,,,0.00,VWS V14.01,2013-06-04 09:17:00,
2013-06-04 05:18:00,52.2,45.9,29.95,North,11,0.0,0.0,79,0.00,,,0.00,VWS V14.01,2013-06-04 09:18:00,
2013-06-04 05:19:00,52.1,45.8,29.95,North,11,0.0,0.0,79,0.00,,,0.00,VWS V14.01,2013-06-04 09:19:00,
2013-06-04 05:20:00,52.1,46.1,29.95,North,11,0.0,0.0,80,0.00,,,0.00,VWS V14.01,2013-06-04 09:20:00,
2013-06-04 05:21:00,52.1,46.1,29.95,North,11,0.0,0.0,80,0.00,,,0.00,VWS V14.01,2013-06-04 09:21:00,
2013-06-04 05:22:00,52.1,46.1,29.95,North,11,0.0,0.0,80,0.00,,,0.00,VWS V14.01,2013-06-04 09:22:00,
2013-06-04 05:23:00,52.1,46.1,29.95,North,11,0.0,0.0,80,0.00,,,0.00,VWS V14.01,2013-06-04 09:23:00,
2013-06-04 05:24:00,52.0,46.0,29.95,North,11,0.0,0.0,80,0.00,,,0.00,VWS V14.01,2013-06-04 09:24:00,
2013-06-04 05:25:00,52.0,46.0,29.95,North,11,0.0,0.0,80,0.00,,,0.00,VWS V14.01,2013-06-04 09:25:00,
2013-06-04 05:26:00,52.0,46.0,29.95,North,11,0.0,0.0,80,0.00,,,0.00,VWS V14.01,2013-06-04 09:26:00,
2013-06-04 05:27:00,51.9,45.9,29.95,North,11,0.0,0.0,80,0.00,,,0.00,VWS V14.01,2013-06-04 09:27:00,
2013-06-04 05:28:00,51.9,45.9,29.95,North,11,0.0,0.0,80,0.00,,,0.00,VWS V14.01,2013-06-04 09:28:00,
2013-06-04 05:29:00,51.9,45.9,29.95,North,11,0.0,0.0,80,0.00,,,0.00,VWS V14.01,2013-06-04 09:29:00,
2013-06-04 05:30:00,51.9,45.9,29.96,North,11,0.0,0.0,80,0.00,,,0.00,VWS V14.01,2013-06-04 09:30:00,
2013-06-04 05:31:00,51.8,45.8,29.96,North,11,0.0,0.0,80,0.00,,,0.00,VWS V14.01,2013-06-04 09:31:00,
2013-06-04 05:32:00,51.8,45.8,29.96,North,11,0.0,0.0,80,0.00,,,0.00,VWS V14.01,2013-06-04 09:32:00,
2013-06-04 05:33:00,51.8,45.8,29.96,North,11,0.0,0.0,80,0.00,,,0.00,VWS V14.01,2013-06-04 09:33:00,
2013-06-04 05:34:00,51.7,45.7,29.96,North,11,0.0,0.0,80,0.00,,,0.00,VWS V14.01,2013-06-04 09:34:00,
2013-06-04 05:35:00,51.7,45.7,29.96,North,11,0.0,0.0,80,0.00,,,0.00,VWS V14.01,2013-06-04 09:35:00,
2013-06-04 05:36:00,51.7,45.7,29.96,North,11,0.0,0.0,80,0.00,,,0.00,VWS V14.01,2013-06-04 09:36:00,
2013-06-04 05:37:00,51.7,45.7,29.96,North,11,0.0,0.0,80,0.00,,,0.00,VWS V14.01,2013-06-04 09:37:00,
2013-06-04 05:38:00,51.6,46.0,29.96,North,11,0.0,0.0,81,0.00,,,0.00,VWS V14.01,2013-06-04 09:38:00,
2013-06-04 05:39:00,51.6,46.0,29.96,North,11,0.0,0.0,81,0.00,,,0.00,VWS V14.01,2013-06-04 09:39:00,
2013-06-04 05:40:00,51.6,46.0,29.96,North,11,0.0,0.0,81,0.00,,,0.00,VWS V14.01,2013-06-04 09:40:00,
2013-06-04 05:41:00,51.5,45.9,29.96,North,11,0.0,0.0,81,0.00,,,0.00,VWS V14.01,2013-06-04 09:41:00,
2013-06-04 05:42:00,51.5,45.9,29.96,North,11,0.0,0.0,81,0.00,,,0.00,VWS V14.01,2013-06-04 09:42:00,
2013-06-04 05:43:00,51.5,45.9,29.96,North,11,0.0,0.0,81,0.00,,,0.00,VWS V14.01,2013-06-04 09:43:00,
2013-06-04 05:44:00,51.5,45.9,29.96,North,11,0.0,0.0,81,0.00,,,0.00,VWS V14.01,2013-06-04 09:44:00,
2013-06-04 05:45:00,51.4,45.8,29.97,North,11,0.0,0.0,81,0.00,,,0.00,VWS V14.01,2013-06-04 09:45:00,
2013-06-04 05:46:00,51.4,46.1,29.97,North,11,0.0,0.0,82,0.00,,,0.00,VWS V14.01,2013-06-04 09:46:00,
2013-06-04 05:47:00,51.4,46.1,29.97,NNW,327,0.0,1.0,82,0.00,,,0.00,VWS V14.01,2013-06-04 09:47:00,
2013-06-04 05:48:00,51.4,46.1,29.97,NNW,327,0.0,1.0,82,0.00,,,0.00,VWS V14.01,2013-06-04 09:48:00,
2013-06-04 05:49:00,51.3,46.0,29.97,NNW,327,0.0,1.0,82,0.00,,,0.00,VWS V14.01,2013-06-04 09:49:00,
2013-06-04 05:50:00,51.3,46.0,29.97,NNW,327,0.0,1.0,82,0.00,,,0.00,VWS V14.01,2013-06-04 09:50:00,
2013-06-04 05:51:00,51.2,45.9,29.97,NNW,327,0.0,1.0,82,0.00,,,0.00,VWS V14.01,2013-06-04 09:51:00,
2013-06-04 05:52:00,51.2,45.9,29.97,NNW,327,0.0,1.0,82,0.00,,,0.00,VWS V14.01,2013-06-04 09:52:00,
2013-06-04 05:53:00,51.2,45.9,29.97,NNW,327,0.0,1.0,82,0.00,,,0.00,VWS V14.01,2013-06-04 09:53:00,
2013-06-04 05:54:00,51.2,45.9,29.97,NNW,327,0.0,1.0,82,0.00,,,0.00,VWS V14.01,2013-06-04 09:54:00,
2013-06-04 05:55:00,51.1,45.8,29.97,NNW,327,0.0,1.0,82,0.00,,,0.00,VWS V14.01,2013-06-04 09:55:00,
2013-06-04 05:56:00,51.1,45.8,29.97,NNW,327,0.0,1.0,82,0.00,,,0.00,VWS V14.01,2013-06-04 09:56:00,
2013-06-04 05:57:00,51.1,45.8,29.97,NNW,327,0.0,1.0,82,0.00,,,0.00,VWS V14.01,2013-06-04 09:57:00,
2013-06-04 05:58:00,51.1,45.8,29.97,NNW,327,0.0,1.0,82,0.00,,,0.00,VWS V14.01,2013-06-04 09:58:00,
2013-06-04 05:59:00,51.1,45.8,29.97,NNW,327,0.0,1.0,82,0.00,,,0.00,VWS V14.01,2013-06-04 09:59:00,
2013-06-04 06:00:00,51.1,45.8,29.97,NNW,327,0.0,1.0,82,0.00,,,0.00,VWS V14.01,2013-06-04 10:00:00,
2013-06-04 06:01:00,51.0,46.0,29.97,NNW,327,0.0,0.0,83,0.00,,,0.00,VWS V14.01,2013-06-04 10:01:00,
2013-06-04 06:02:00,51.0,46.0,29.97,NNW,327,0.0,0.0,83,0.00,,,0.00,VWS V14.01,2013-06-04 10:02:00,
2013-06-04 06:03:00,51.0,45.7,29.97,NNE,24,0.0,0.0,82,0.00,,,0.00,VWS V14.01,2013-06-04 10:03:00,
2013-06-04 06:04:00,51.0,46.0,29.97,NNE,28,1.0,1.0,83,0.00,,,0.00,VWS V14.01,2013-06-04 10:04:00,
2013-06-04 06:05:00,51.0,46.0,29.97,NNE,28,0.0,2.0,83,0.00,,,0.00,VWS V14.01,2013-06-04 10:05:00,
2013-06-04 06:06:00,51.0,46.0,29.97,WNW,294,0.0,3.0,83,0.00,,,0.00,VWS V14.01,2013-06-04 10:06:00,
2013-06-04 06:07:00,51.0,46.0,29.97,WNW,294,0.0,3.0,83,0.00,,,0.00,VWS V14.01,2013-06-04 10:07:00,
2013-06-04 06:08:00,51.0,46.0,29.97,East,87,0.0,3.0,83,0.00,,,0.00,VWS V14.01,2013-06-04 10:08:00,
2013-06-04 06:09:00,51.0,46.0,29.97,East,86,0.0,3.0,83,0.00,,,0.00,VWS V14.01,2013-06-04 10:09:00,
2013-06-04 06:10:00,50.9,45.9,29.97,East,86,0.0,3.0,83,0.00,,,0.00,VWS V14.01,2013-06-04 10:10:00,
2013-06-04 06:11:00,50.9,45.9,29.97,East,86,0.0,0.0,83,0.00,,,0.00,VWS V14.01,2013-06-04 10:11:00,
2013-06-04 06:12:00,50.9,45.9,29.97,East,86,0.0,0.0,83,0.00,,,0.00,VWS V14.01,2013-06-04 10:12:00,
2013-06-04 06:13:00,51.0,46.0,29.97,East,86,0.0,0.0,83,0.00,,,0.00,VWS V14.01,2013-06-04 10:13:00,
2013-06-04 06:14:00,51.0,46.0,29.97,East,91,0.0,3.0,83,0.00,,,0.00,VWS V14.01,2013-06-04 10:14:00,
2013-06-04 06:15:00,51.0,46.0,29.97,NNE,26,0.0,4.0,83,0.00,,,0.00,VWS V14.01,2013-06-04 10:15:00,
2013-06-04 06:16:00,51.0,45.7,29.97,NNE,26,0.0,4.0,82,0.00,,,0.00,VWS V14.01,2013-06-04 10:16:00,
2013-06-04 06:17:00,51.0,45.7,29.97,NNE,26,0.0,4.0,82,0.00,,,0.00,VWS V14.01,2013-06-04 10:17:00,
2013-06-04 06:18:00,51.1,45.8,29.97,NNE,28,1.0,4.0,82,0.00,,,0.00,VWS V14.01,2013-06-04 10:18:00,
2013-06-04 06:19:00,51.1,45.8,29.97,West,280,0.0,4.0,82,0.00,,,0.00,VWS V14.01,2013-06-04 10:19:00,
2013-06-04 06:20:00,51.2,45.9,29.97,West,280,0.0,4.0,82,0.00,,,0.00,VWS V14.01,2013-06-04 10:20:00,
2013-06-04 06:21:00,51.2,46.2,29.97,West,280,0.0,0.0,83,0.00,,,0.00,VWS V14.01,2013-06-04 10:21:00,
2013-06-04 06:22:00,51.3,46.3,29.97,West,280,2.0,2.0,83,0.00,,,0.00,VWS V14.01,2013-06-04 10:22:00,
2013-06-04 06:23:00,51.3,46.3,29.97,West,280,0.0,2.0,83,0.00,,,0.00,VWS V14.01,2013-06-04 10:23:00,
2013-06-04 06:24:00,51.4,46.1,29.97,NE,40,2.0,3.0,82,0.00,,,0.00,VWS V14.01,2013-06-04 10:24:00,
2013-06-04 06:25:00,51.4,46.4,29.97,NE,40,0.0,3.0,83,0.00,,,0.00,VWS V14.01,2013-06-04 10:25:00,
2013-06-04 06:26:00,51.5,46.2,29.97,NE,46,2.0,3.0,82,0.00,,,0.00,VWS V14.01,2013-06-04 10:26:00,
2013-06-04 06:27:00,51.5,46.2,29.97,NE,46,0.0,3.0,82,0.00,,,0.00,VWS V14.01,2013-06-04 10:27:00,
2013-06-04 06:28:00,51.6,46.3,29.97,NE,46,0.0,3.0,82,0.00,,,0.00,VWS V14.01,2013-06-04 10:28:00,
2013-06-04 06:29:00,51.7,46.4,29.97,NW,322,0.0,3.0,82,0.00,,,0.00,VWS V14.01,2013-06-04 10:29:00,
2013-06-04 06:30:00,51.7,46.1,29.97,NW,322,0.0,3.0,81,0.00,,,0.00,VWS V14.01,2013-06-04 10:30:00,
2013-06-04 06:31:00,51.8,46.2,29.97,NW,323,0.0,1.0,81,0.00,,,0.00,VWS V14.01,2013-06-04 10:31:00,
2013-06-04 06:32:00,51.8,45.8,29.97,NW,323,0.0,1.0,80,0.00,,,0.00,VWS V14.01,2013-06-04 10:32:00,
2013-06-04 06:33:00,51.9,45.9,29.97,NW,323,0.0,1.0,80,0.00,,,0.00,VWS V14.01,2013-06-04 10:33:00,
2013-06-04 06:34:00,51.9,45.9,29.97,ENE,66,0.0,3.0,80,0.00,,,0.00,VWS V14.01,2013-06-04 10:34:00,
2013-06-04 06:35:00,52.0,46.0,29.97,ENE,73,0.0,3.0,80,0.00,,,0.00,VWS V14.01,2013-06-04 10:35:00,
2013-06-04 06:36:00,52.1,46.1,29.97,ENE,67,0.0,3.0,80,0.00,,,0.00,VWS V14.01,2013-06-04 10:36:00,
2013-06-04 06:37:00,52.1,46.1,29.97,East,79,0.0,3.0,80,0.00,,,0.00,VWS V14.01,2013-06-04 10:37:00,
2013-06-04 06:38:00,52.2,46.2,29.97,East,79,0.0,3.0,80,0.00,,,0.00,VWS V14.01,2013-06-04 10:38:00,
2013-06-04 06:39:00,52.2,46.2,29.97,East,79,1.0,3.0,80,0.00,,,0.00,VWS V14.01,2013-06-04 10:39:00,
2013-06-04 06:40:00,52.3,46.3,29.97,East,79,0.0,3.0,80,0.00,,,0.00,VWS V14.01,2013-06-04 10:40:00,
2013-06-04 06:41:00,52.3,46.3,29.97,ENE,78,1.0,1.0,80,0.00,,,0.00,VWS V14.01,2013-06-04 10:41:00,
2013-06-04 06:42:00,52.4,46.4,29.97,East,97,2.0,5.0,80,0.00,,,0.00,VWS V14.01,2013-06-04 10:42:00,
2013-06-04 06:43:00,52.4,46.4,29.97,SSE,148,2.0,5.0,80,0.00,,,0.00,VWS V14.01,2013-06-04 10:43:00,
2013-06-04 06:44:00,52.4,46.1,29.97,ENE,76,7.0,7.0,79,0.00,,,0.00,VWS V14.01,2013-06-04 10:44:00,
2013-06-04 06:45:00,52.5,45.8,29.97,NNE,33,0.0,7.0,78,0.00,,,0.00,VWS V14.01,2013-06-04 10:45:00,
2013-06-04 06:46:00,52.5,45.8,29.97,West,277,0.0,7.0,78,0.00,,,0.00,VWS V14.01,2013-06-04 10:46:00,
2013-06-04 06:47:00,52.6,46.0,29.97,West,277,0.0,7.0,78,0.00,,,0.00,VWS V14.01,2013-06-04 10:47:00,
2013-06-04 06:48:00,52.6,46.0,29.97,West,277,1.0,7.0,78,0.00,,,0.00,VWS V14.01,2013-06-04 10:48:00,
2013-06-04 06:49:00,52.6,46.0,29.97,West,277,1.0,7.0,78,0.00,,,0.00,VWS V14.01,2013-06-04 10:49:00,
2013-06-04 06:50:00,52.7,46.0,29.97,West,278,1.0,7.0,78,0.00,,,0.00,VWS V14.01,2013-06-04 10:50:00,
2013-06-04 06:51:00,52.7,46.0,29.97,West,278,0.0,1.0,78,0.00,,,0.00,VWS V14.01,2013-06-04 10:51:00,
2013-06-04 06:52:00,52.7,46.0,29.97,West,278,0.0,1.0,78,0.00,,,0.00,VWS V14.01,2013-06-04 10:52:00,
2013-06-04 06:53:00,52.8,46.1,29.97,West,278,0.0,1.0,78,0.00,,,0.00,VWS V14.01,2013-06-04 10:53:00,
2013-06-04 06:54:00,52.8,46.1,29.97,West,278,0.0,1.0,78,0.00,,,0.00,VWS V14.01,2013-06-04 10:54:00,
2013-06-04 06:55:00,52.8,46.1,29.97,West,278,0.0,1.0,78,0.00,,,0.00,VWS V14.01,2013-06-04 10:55:00,
2013-06-04 06:56:00,52.9,46.6,29.97,West,278,0.0,1.0,79,0.00,,,0.00,VWS V14.01,2013-06-04 10:56:00,
2013-06-04 06:57:00,52.9,46.6,29.97,West,278,0.0,1.0,79,0.00,,,0.00,VWS V14.01,2013-06-04 10:57:00,
2013-06-04 06:58:00,52.9,46.6,29.97,West,278,1.0,1.0,79,0.00,,,0.00,VWS V14.01,2013-06-04 10:58:00,
2013-06-04 06:59:00,53.0,46.7,29.97,NW,304,0.0,1.0,79,0.00,,,0.00,VWS V14.01,2013-06-04 10:59:00,
2013-06-04 07:00:00,53.0,46.7,29.97,NW,304,1.0,1.0,79,0.00,,,0.00,VWS V14.01,2013-06-04 11:00:00,
2013-06-04 07:01:00,53.0,46.7,29.97,NW,304,0.0,1.0,79,0.00,,,0.00,VWS V14.01,2013-06-04 11:01:00,
2013-06-04 07:02:00,53.0,46.7,29.97,NW,306,1.0,1.0,79,0.00,,,0.00,VWS V14.01,2013-06-04 11:02:00,
2013-06-04 07:03:00,53.1,46.8,29.97,NW,306,0.0,1.0,79,0.00,,,0.00,VWS V14.01,2013-06-04 11:03:00,
2013-06-04 07:04:00,53.2,46.5,29.97,NE,37,0.0,2.0,78,0.00,,,0.00,VWS V14.01,2013-06-04 11:04:00,
2013-06-04 07:05:00,53.2,46.5,29.97,NNE,25,1.0,5.0,78,0.00,,,0.00,VWS V14.01,2013-06-04 11:05:00,
2013-06-04 07:06:00,53.2,46.5,29.97,ENE,76,1.0,7.0,78,0.00,,,0.00,VWS V14.01,2013-06-04 11:06:00,
2013-06-04 07:07:00,53.2,46.5,29.97,ENE,77,0.0,7.0,78,0.00,,,0.00,VWS V14.01,2013-06-04 11:07:00,
2013-06-04 07:08:00,53.2,46.2,29.97,SSE,148,2.0,7.0,77,0.00,,,0.00,VWS V14.01,2013-06-04 11:08:00,
2013-06-04 07:09:00,53.3,46.3,29.97,NNW,338,0.0,7.0,77,0.00,,,0.00,VWS V14.01,2013-06-04 11:09:00,
2013-06-04 07:10:00,53.3,46.3,29.97,NNW,338,0.0,7.0,77,0.00,,,0.00,VWS V14.01,2013-06-04 11:10:00,
2013-06-04 07:11:00,53.3,46.3,29.97,SSW,202,1.0,2.0,77,0.00,,,0.00,VWS V14.01,2013-06-04 11:11:00,
2013-06-04 07:12:00,53.4,46.4,29.97,SSW,202,0.0,2.0,77,0.00,,,0.00,VWS V14.01,2013-06-04 11:12:00,
2013-06-04 07:13:00,53.4,46.4,29.97,East,90,0.0,3.0,77,0.00,,,0.00,VWS V14.01,2013-06-04 11:13:00,
2013-06-04 07:14:00,53.4,46.4,29.97,SSW,195,1.0,5.0,77,0.00,,,0.00,VWS V14.01,2013-06-04 11:14:00,
2013-06-04 07:15:00,53.4,46.0,29.98,East,92,2.0,5.0,76,0.00,,,0.00,VWS V14.01,2013-06-04 11:15:00,
2013-06-04 07:16:00,53.5,46.5,29.98,East,91,0.0,5.0,77,0.00,,,0.00,VWS V14.01,2013-06-04 11:16:00,
2013-06-04 07:17:00,53.5,46.1,29.98,SSW,201,0.0,5.0,76,0.00,,,0.00,VWS V14.01,2013-06-04 11:17:00,
2013-06-04 07:18:00,53.5,46.1,29.98,South,188,1.0,5.0,76,0.00,,,0.00,VWS V14.01,2013-06-04 11:18:00,
2013-06-04 07:19:00,53.5,46.1,29.98,South,173,1.0,5.0,76,0.00,,,0.00,VWS V14.01,2013-06-04 11:19:00,
2013-06-04 07:20:00,53.5,45.8,29.98,ESE,103,1.0,7.0,75,0.00,,,0.00,VWS V14.01,2013-06-04 11:20:00,
2013-06-04 07:21:00,53.5,45.8,29.98,East,91,0.0,2.0,75,0.00,,,0.00,VWS V14.01,2013-06-04 11:21:00,
2013-06-04 07:22:00,53.6,45.9,29.98,East,94,1.0,3.0,75,0.00,,,0.00,VWS V14.01,2013-06-04 11:22:00,
2013-06-04 07:23:00,53.6,45.9,29.98,ENE,58,7.0,9.0,75,0.00,,,0.00,VWS V14.01,2013-06-04 11:23:00,
2013-06-04 07:24:00,53.6,45.5,29.98,ENE,76,1.0,9.0,74,0.00,,,0.00,VWS V14.01,2013-06-04 11:24:00,
2013-06-04 07:25:00,53.6,45.5,29.98,NE,51,0.0,9.0,74,0.00,,,0.00,VWS V14.01,2013-06-04 11:25:00,
2013-06-04 07:26:00,53.6,45.5,29.98,NE,51,0.0,9.0,74,0.00,,,0.00,VWS V14.01,2013-06-04 11:26:00,
2013-06-04 07:27:00,53.7,45.6,29.98,NE,53,2.0,9.0,74,0.00,,,0.00,VWS V14.01,2013-06-04 11:27:00,
2013-06-04 07:28:00,53.7,45.6,29.98,ENE,76,1.0,9.0,74,0.00,,,0.00,VWS V14.01,2013-06-04 11:28:00,
2013-06-04 07:29:00,53.7,45.6,29.98,NW,311,7.0,9.0,74,0.00,,,0.00,VWS V14.01,2013-06-04 11:29:00,
2013-06-04 07:30:00,53.7,45.6,29.98,NNE,19,1.0,9.0,74,0.00,,,0.00,VWS V14.01,2013-06-04 11:30:00,
2013-06-04 07:31:00,53.8,45.7,29.98,ENE,68,1.0,5.0,74,0.00,,,0.00,VWS V14.01,2013-06-04 11:31:00,
2013-06-04 07:32:00,53.8,45.4,29.98,NE,36,0.0,5.0,73,0.00,,,0.00,VWS V14.01,2013-06-04 11:32:00,
2013-06-04 07:33:00,53.8,45.4,29.98,North,5,2.0,5.0,73,0.00,,,0.00,VWS V14.01,2013-06-04 11:33:00,
2013-06-04 07:34:00,53.9,45.5,29.98,ESE,119,4.0,5.0,73,0.00,,,0.00,VWS V14.01,2013-06-04 11:34:00,
2013-06-04 07:35:00,53.9,45.5,29.98,ESE,111,7.0,9.0,73,0.00,,,0.00,VWS V14.01,2013-06-04 11:35:00,
2013-06-04 07:36:00,53.9,45.1,29.98,ESE,114,1.0,9.0,72,0.00,,,0.00,VWS V14.01,2013-06-04 11:36:00,
2013-06-04 07:37:00,53.9,45.1,29.98,ESE,120,2.0,9.0,72,0.00,,,0.00,VWS V14.01,2013-06-04 11:37:00,
2013-06-04 07:38:00,53.9,45.1,29.98,East,85,0.0,9.0,72,0.00,,,0.00,VWS V14.01,2013-06-04 11:38:00,
2013-06-04 07:39:00,53.9,45.1,29.98,East,93,0.0,9.0,72,0.00,,,0.00,VWS V14.01,2013-06-04 11:39:00,
2013-06-04 07:40:00,54.0,45.2,29.98,NE,51,2.0,10.0,72,0.00,,,0.00,VWS V14.01,2013-06-04 11:40:00,
2013-06-04 07:41:00,54.0,45.2,29.98,ENE,67,1.0,3.0,72,0.00,,,0.00,VWS V14.01,2013-06-04 11:41:00,
2013-06-04 07:42:00,54.1,45.7,29.98,SSW,209,2.0,7.0,73,0.00,,,0.00,VWS V14.01,2013-06-04 11:42:00,
2013-06-04 07:43:00,54.1,45.3,29.98,NE,45,3.0,7.0,72,0.00,,,0.00,VWS V14.01,2013-06-04 11:43:00,
2013-06-04 07:44:00,54.1,45.3,29.98,East,90,5.0,7.0,72,0.00,,,0.00,VWS V14.01,2013-06-04 11:44:00,
2013-06-04 07:45:00,54.1,45.3,29.99,NE,47,3.0,7.0,72,0.00,,,0.00,VWS V14.01,2013-06-04 11:45:00,
2013-06-04 07:46:00,54.1,45.3,29.99,East,82,2.0,7.0,72,0.00,,,0.00,VWS V14.01,2013-06-04 11:46:00,
2013-06-04 07:47:00,54.1,44.9,29.99,NNE,15,0.0,7.0,71,0.00,,,0.00,VWS V14.01,2013-06-04 11:47:00,
2013-06-04 07:48:00,54.1,44.9,29.99,NNE,26,2.0,7.0,71,0.00,,,0.00,VWS V14.01,2013-06-04 11:48:00,
2013-06-04 07:49:00,54.1,44.9,29.99,East,82,7.0,8.0,71,0.00,,,0.00,VWS V14.01,2013-06-04 11:49:00,
2013-06-04 07:50:00,54.1,44.5,29.99,ENE,61,2.0,8.0,70,0.00,,,0.00,VWS V14.01,2013-06-04 11:50:00,
2013-06-04 07:51:00,54.1,44.5,29.99,ENE,75,1.0,5.0,70,0.00,,,0.00,VWS V14.01,2013-06-04 11:51:00,
2013-06-04 07:52:00,54.1,44.5,29.99,SW,235,0.0,5.0,70,0.00,,,0.00,VWS V14.01,2013-06-04 11:52:00,
2013-06-04 07:53:00,54.1,44.9,29.99,SW,232,1.0,5.0,71,0.00,,,0.00,VWS V14.01,2013-06-04 11:53:00,
2013-06-04 07:54:00,54.1,44.9,29.99,East,89,6.0,6.0,71,0.00,,,0.00,VWS V14.01,2013-06-04 11:54:00,
2013-06-04 07:55:00,54.2,45.4,29.99,East,99,0.0,6.0,72,0.00,,,0.00,VWS V14.01,2013-06-04 11:55:00,
2013-06-04 07:56:00,54.2,45.4,29.99,NE,53,5.0,8.0,72,0.00,,,0.00,VWS V14.01,2013-06-04 11:56:00,
2013-06-04 07:57:00,54.2,45.0,29.99,NE,38,1.0,8.0,71,0.00,,,0.00,VWS V14.01,2013-06-04 11:57:00,
2013-06-04 07:58:00,54.2,45.0,29.99,NE,42,7.0,8.0,71,0.00,,,0.00,VWS V14.01,2013-06-04 11:58:00,
2013-06-04 07:59:00,54.2,45.0,29.99,East,80,6.0,8.0,71,0.00,,,0.00,VWS V14.01,2013-06-04 11:59:00,
2013-06-04 08:00:00,54.2,45.0,29.99,NE,53,2.0,8.0,71,0.00,,,0.00,VWS V14.01,2013-06-04 12:00:00,
2013-06-04 08:01:00,54.2,45.0,29.99,ENE,57,2.0,3.0,71,0.00,,,0.00,VWS V14.01,2013-06-04 12:01:00,
2013-06-04 08:02:00,54.2,45.0,29.99,ENE,57,1.0,3.0,71,0.00,,,0.00,VWS V14.01,2013-06-04 12:02:00,
2013-06-04 08:03:00,54.3,45.1,29.99,NE,34,2.0,3.0,71,0.00,,,0.00,VWS V14.01,2013-06-04 12:03:00,
2013-06-04 08:04:00,54.3,45.5,29.99,NNE,21,2.0,4.0,72,0.00,,,0.00,VWS V14.01,2013-06-04 12:04:00,
2013-06-04 08:05:00,54.3,45.1,29.99,NE,55,1.0,4.0,71,0.00,,,0.00,VWS V14.01,2013-06-04 12:05:00,
2013-06-04 08:06:00,54.4,45.2,29.99,East,88,5.0,6.0,71,0.00,,,0.00,VWS V14.01,2013-06-04 12:06:00,
2013-06-04 08:07:00,54.4,45.2,29.99,North,11,5.0,7.0,71,0.00,,,0.00,VWS V14.01,2013-06-04 12:07:00,
2013-06-04 08:08:00,54.4,45.2,29.99,NE,56,1.0,7.0,71,0.00,,,0.00,VWS V14.01,2013-06-04 12:08:00,
2013-06-04 08:09:00,54.4,45.2,29.99,WNW,294,1.0,7.0,71,0.00,,,0.00,VWS V14.01,2013-06-04 12:09:00,
2013-06-04 08:10:00,54.4,45.2,29.99,ESE,111,2.0,7.0,71,0.00,,,0.00,VWS V14.01,2013-06-04 12:10:00,
2013-06-04 08:11:00,54.4,45.2,29.99,ESE,111,1.0,2.0,71,0.00,,,0.00,VWS V14.01,2013-06-04 12:11:00,
2013-06-04 08:12:00,54.5,45.3,29.99,East,98,2.0,4.0,71,0.00,,,0.00,VWS V14.01,2013-06-04 12:12:00,
2013-06-04 08:13:00,54.6,45.4,29.99,ESE,106,5.0,5.0,71,0.00,,,0.00,VWS V14.01,2013-06-04 12:13:00,
2013-06-04 08:14:00,54.6,45.4,29.99,WSW,253,0.0,5.0,71,0.00,,,0.00,VWS V14.01,2013-06-04 12:14:00,
2013-06-04 08:15:00,54.6,45.4,30.00,NNW,346,7.0,7.0,71,0.00,,,0.00,VWS V14.01,2013-06-04 12:15:00,
2013-06-04 08:16:00,54.7,45.5,30.00,North,5,2.0,7.0,71,0.00,,,0.00,VWS V14.01,2013-06-04 12:16:00,
2013-06-04 08:17:00,54.8,45.6,30.00,East,101,6.0,7.0,71,0.00,,,0.00,VWS V14.01,2013-06-04 12:17:00,
2013-06-04 08:18:00,54.8,45.6,30.00,SSE,151,4.0,7.0,71,0.00,,,0.00,VWS V14.01,2013-06-04 12:18:00,
2013-06-04 08:19:00,54.9,45.3,30.00,North,355,2.0,7.0,70,0.00,,,0.00,VWS V14.01,2013-06-04 12:19:00,
2013-06-04 08:20:00,54.9,45.3,30.00,NNE,32,0.0,7.0,70,0.00,,,0.00,VWS V14.01,2013-06-04 12:20:00,
2013-06-04 08:21:00,54.9,45.3,30.00,West,269,1.0,3.0,70,0.00,,,0.00,VWS V14.01,2013-06-04 12:21:00,
2013-06-04 08:22:00,55.0,45.4,30.00,ENE,75,1.0,4.0,70,0.00,,,0.00,VWS V14.01,2013-06-04 12:22:00,
2013-06-04 08:23:00,55.0,45.4,30.00,NW,304,3.0,6.0,70,0.00,,,0.00,VWS V14.01,2013-06-04 12:23:00,
2013-06-04 08:24:00,55.1,45.5,30.00,NW,311,0.0,6.0,70,0.00,,,0.00,VWS V14.01,2013-06-04 12:24:00,
2013-06-04 08:25:00,55.1,45.5,30.00,NNW,331,0.0,6.0,70,0.00,,,0.00,VWS V14.01,2013-06-04 12:25:00,
2013-06-04 08:26:00,55.2,45.6,30.00,ENE,74,2.0,6.0,70,0.00,,,0.00,VWS V14.01,2013-06-04 12:26:00,
2013-06-04 08:27:00,55.3,45.7,30.00,WNW,285,0.0,6.0,70,0.00,,,0.00,VWS V14.01,2013-06-04 12:27:00,
2013-06-04 08:28:00,55.4,45.8,30.00,NNE,24,2.0,6.0,70,0.00,,,0.00,VWS V14.01,2013-06-04 12:28:00,
2013-06-04 08:29:00,55.5,45.9,30.00,NE,38,0.0,6.0,70,0.00,,,0.00,VWS V14.01,2013-06-04 12:29:00,
2013-06-04 08:30:00,55.5,45.9,30.00,West,260,0.0,6.0,70,0.00,,,0.00,VWS V14.01,2013-06-04 12:30:00,
2013-06-04 08:31:00,55.6,46.0,30.00,ESE,117,4.0,4.0,70,0.00,,,0.00,VWS V14.01,2013-06-04 12:31:00,
2013-06-04 08:32:00,55.6,45.6,30.00,West,265,5.0,5.0,69,0.00,,,0.00,VWS V14.01,2013-06-04 12:32:00,
2013-06-04 08:33:00,55.7,45.7,30.00,West,262,5.0,9.0,69,0.00,,,0.00,VWS V14.01,2013-06-04 12:33:00,
2013-06-04 08:34:00,55.7,45.7,30.00,NNW,328,2.0,9.0,69,0.00,,,0.00,VWS V14.01,2013-06-04 12:34:00,
2013-06-04 08:35:00,55.8,45.8,30.00,West,273,0.0,9.0,69,0.00,,,0.00,VWS V14.01,2013-06-04 12:35:00,
2013-06-04 08:36:00,55.8,45.8,30.00,West,273,0.0,9.0,69,0.00,,,0.00,VWS V14.01,2013-06-04 12:36:00,
2013-06-04 08:37:00,55.9,45.9,30.00,West,271,3.0,9.0,69,0.00,,,0.00,VWS V14.01,2013-06-04 12:37:00,
2013-06-04 08:38:00,55.9,46.3,30.00,West,261,3.0,9.0,70,0.00,,,0.00,VWS V14.01,2013-06-04 12:38:00,
2013-06-04 08:39:00,56.0,46.0,30.00,SSE,153,2.0,9.0,69,0.00,,,0.00,VWS V14.01,2013-06-04 12:39:00,
2013-06-04 08:40:00,56.0,46.0,30.00,NNE,32,2.0,9.0,69,0.00,,,0.00,VWS V14.01,2013-06-04 12:40:00,
2013-06-04 08:41:00,56.0,45.6,30.00,ENE,67,4.0,5.0,68,0.00,,,0.00,VWS V14.01,2013-06-04 12:41:00,
2013-06-04 08:42:00,56.1,45.7,30.00,West,271,5.0,6.0,68,0.00,,,0.00,VWS V14.01,2013-06-04 12:42:00,
2013-06-04 08:43:00,56.1,45.7,30.00,West,280,0.0,6.0,68,0.00,,,0.00,VWS V14.01,2013-06-04 12:43:00,
2013-06-04 08:44:00,56.2,45.8,30.00,West,281,2.0,6.0,68,0.00,,,0.00,VWS V14.01,2013-06-04 12:44:00,
2013-06-04 08:45:00,56.2,45.8,30.00,NW,323,0.0,6.0,68,0.00,,,0.00,VWS V14.01,2013-06-04 12:45:00,
2013-06-04 08:46:00,56.3,45.9,30.00,NNW,335,5.0,6.0,68,0.00,,,0.00,VWS V14.01,2013-06-04 12:46:00,
2013-06-04 08:47:00,56.3,45.9,30.00,West,277,1.0,6.0,68,0.00,,,0.00,VWS V14.01,2013-06-04 12:47:00,
2013-06-04 08:48:00,56.3,45.9,30.00,West,267,0.0,6.0,68,0.00,,,0.00,VWS V14.01,2013-06-04 12:48:00,
2013-06-04 08:49:00,56.4,46.0,30.00,West,265,3.0,6.0,68,0.00,,,0.00,VWS V14.01,2013-06-04 12:49:00,
2013-06-04 08:50:00,56.4,46.0,30.00,WSW,248,0.0,6.0,68,0.00,,,0.00,VWS V14.01,2013-06-04 12:50:00,
2013-06-04 08:51:00,56.5,46.5,30.00,NNE,13,3.0,4.0,69,0.00,,,0.00,VWS V14.01,2013-06-04 12:51:00,
2013-06-04 08:52:00,56.6,46.2,30.00,NNE,13,0.0,4.0,68,0.00,,,0.00,VWS V14.01,2013-06-04 12:52:00,
2013-06-04 08:53:00,56.6,46.2,30.00,WNW,286,2.0,4.0,68,0.00,,,0.00,VWS V14.01,2013-06-04 12:53:00,
2013-06-04 08:54:00,56.7,46.3,30.00,WNW,286,0.0,4.0,68,0.00,,,0.00,VWS V14.01,2013-06-04 12:54:00,
2013-06-04 08:55:00,56.8,46.8,30.00,WNW,287,1.0,4.0,69,0.00,,,0.00,VWS V14.01,2013-06-04 12:55:00,
2013-06-04 08:56:00,56.9,46.8,30.00,East,87,5.0,6.0,69,0.00,,,0.00,VWS V14.01,2013-06-04 12:56:00,
2013-06-04 08:57:00,57.0,46.6,30.00,ENE,69,3.0,6.0,68,0.00,,,0.00,VWS V14.01,2013-06-04 12:57:00,
2013-06-04 08:58:00,57.1,46.7,30.00,ENE,59,1.0,6.0,68,0.00,,,0.00,VWS V14.01,2013-06-04 12:58:00,
2013-06-04 08:59:00,57.1,46.3,30.00,ENE,74,0.0,6.0,67,0.00,,,0.00,VWS V14.01,2013-06-04 12:59:00,
2013-06-04 09:00:00,57.3,46.8,30.00,ENE,69,2.0,6.0,68,0.00,,,0.00,VWS V14.01,2013-06-04 13:00:00,
2013-06-04 09:01:00,57.3,46.8,30.00,WNW,296,0.0,4.0,68,0.00,,,0.00,VWS V14.01,2013-06-04 13:01:00,
2013-06-04 09:02:00,57.4,46.5,30.00,South,182,3.0,4.0,67,0.00,,,0.00,VWS V14.01,2013-06-04 13:02:00,
2013-06-04 09:03:00,57.5,46.6,30.00,SSW,195,0.0,4.0,67,0.00,,,0.00,VWS V14.01,2013-06-04 13:03:00,
2013-06-04 09:04:00,57.6,47.1,30.00,WSW,238,4.0,7.0,68,0.00,,,0.00,VWS V14.01,2013-06-04 13:04:00,
2013-06-04 09:05:00,57.7,46.4,30.00,West,267,4.0,7.0,66,0.00,,,0.00,VWS V14.01,2013-06-04 13:05:00,
2013-06-04 09:06:00,57.7,46.0,30.00,NNW,344,3.0,7.0,65,0.00,,,0.00,VWS V14.01,2013-06-04 13:06:00,
2013-06-04 09:07:00,57.8,46.5,30.00,North,5,0.0,7.0,66,0.00,,,0.00,VWS V14.01,2013-06-04 13:07:00,
2013-06-04 09:08:00,57.9,47.0,30.00,NW,321,4.0,7.0,67,0.00,,,0.00,VWS V14.01,2013-06-04 13:08:00,
2013-06-04 09:09:00,58.0,47.1,30.00,WNW,289,1.0,7.0,67,0.00,,,0.00,VWS V14.01,2013-06-04 13:09:00,
2013-06-04 09:10:00,58.1,46.8,30.00,WNW,297,1.0,7.0,66,0.00,,,0.00,VWS V14.01,2013-06-04 13:10:00,
2013-06-04 09:11:00,58.2,46.5,30.00,NNW,343,3.0,5.0,65,0.00,,,0.00,VWS V14.01,2013-06-04 13:11:00,
2013-06-04 09:12:00,58.2,46.1,30.00,WNW,288,10.0,10.0,64,0.00,,,0.00,VWS V14.01,2013-06-04 13:12:00,
2013-06-04 09:13:00,58.3,45.8,30.00,WNW,291,0.0,10.0,63,0.00,,,0.00,VWS V14.01,2013-06-04 13:13:00,
2013-06-04 09:14:00,58.4,46.3,30.00,WNW,287,0.0,10.0,64,0.00,,,0.00,VWS V14.01,2013-06-04 13:14:00,
2013-06-04 09:15:00,58.5,46.8,30.02,ENE,63,3.0,10.0,65,0.00,,,0.00,VWS V14.01,2013-06-04 13:15:00,
2013-06-04 09:16:00,58.6,46.5,30.02,WSW,237,0.0,10.0,64,0.00,,,0.00,VWS V14.01,2013-06-04 13:16:00,
2013-06-04 09:17:00,58.7,46.6,30.02,SW,217,3.0,10.0,64,0.00,,,0.00,VWS V14.01,2013-06-04 13:17:00,
2013-06-04 09:18:00,58.8,47.1,30.02,WNW,298,1.0,10.0,65,0.00,,,0.00,VWS V14.01,2013-06-04 13:18:00,
2013-06-04 09:19:00,58.9,46.3,30.02,North,350,1.0,10.0,63,0.00,,,0.00,VWS V14.01,2013-06-04 13:19:00,
2013-06-04 09:20:00,59.0,46.8,30.02,NNW,329,0.0,10.0,64,0.00,,,0.00,VWS V14.01,2013-06-04 13:20:00,
2013-06-04 09:21:00,59.1,47.0,30.02,WSW,248,3.0,3.0,64,0.00,,,0.00,VWS V14.01,2013-06-04 13:21:00,
2013-06-04 09:22:00,59.1,46.5,30.02,WSW,248,0.0,3.0,63,0.00,,,0.00,VWS V14.01,2013-06-04 13:22:00,
2013-06-04 09:23:00,59.3,46.7,30.02,WSW,248,0.0,3.0,63,0.00,,,0.00,VWS V14.01,2013-06-04 13:23:00,
2013-06-04 09:24:00,59.3,46.7,30.02,East,94,1.0,5.0,63,0.00,,,0.00,VWS V14.01,2013-06-04 13:24:00,
2013-06-04 09:25:00,59.4,46.8,30.02,ESE,103,3.0,5.0,63,0.00,,,0.00,VWS V14.01,2013-06-04 13:25:00,
2013-06-04 09:26:00,59.5,46.5,30.02,East,96,2.0,5.0,62,0.00,,,0.00,VWS V14.01,2013-06-04 13:26:00,
2013-06-04 09:27:00,59.6,46.6,30.02,East,96,3.0,5.0,62,0.00,,,0.00,VWS V14.01,2013-06-04 13:27:00,
2013-06-04 09:28:00,59.7,47.1,30.02,WSW,254,3.0,5.0,63,0.00,,,0.00,VWS V14.01,2013-06-04 13:28:00,
2013-06-04 09:29:00,59.8,47.2,30.02,NW,307,0.0,6.0,63,0.00,,,0.00,VWS V14.01,2013-06-04 13:29:00,
2013-06-04 09:30:00,59.8,46.3,30.02,NW,306,0.0,6.0,61,0.00,,,0.00,VWS V14.01,2013-06-04 13:30:00,
2013-06-04 09:31:00,59.9,46.4,30.02,NW,306,1.0,1.0,61,0.00,,,0.00,VWS V14.01,2013-06-04 13:31:00,
2013-06-04 09:32:00,60.0,47.0,30.02,ESE,109,1.0,3.0,62,0.00,,,0.00,VWS V14.01,2013-06-04 13:32:00,
2013-06-04 09:33:00,60.1,47.0,30.02,North,5,7.0,7.0,62,0.00,,,0.00,VWS V14.01,2013-06-04 13:33:00,
2013-06-04 09:34:00,60.2,47.6,30.02,SW,232,0.0,7.0,63,0.00,,,0.00,VWS V14.01,2013-06-04 13:34:00,
2013-06-04 09:35:00,60.3,47.2,30.02,NW,319,1.0,7.0,62,0.00,,,0.00,VWS V14.01,2013-06-04 13:35:00,
2013-06-04 09:36:00,60.5,47.4,30.02,SE,132,0.0,7.0,62,0.00,,,0.00,VWS V14.01,2013-06-04 13:36:00,
2013-06-04 09:37:00,60.5,47.0,30.02,SE,126,0.0,7.0,61,0.00,,,0.00,VWS V14.01,2013-06-04 13:37:00,
2013-06-04 09:38:00,60.7,47.6,30.02,SE,126,0.0,7.0,62,0.00,,,0.00,VWS V14.01,2013-06-04 13:38:00,
2013-06-04 09:39:00,60.8,48.1,30.02,ESE,118,1.0,7.0,63,0.00,,,0.00,VWS V14.01,2013-06-04 13:39:00,
2013-06-04 09:40:00,60.9,47.8,30.02,East,100,2.0,7.0,62,0.00,,,0.00,VWS V14.01,2013-06-04 13:40:00,
2013-06-04 09:41:00,61.0,47.5,30.02,NE,35,0.0,5.0,61,0.00,,,0.00,VWS V14.01,2013-06-04 13:41:00,
2013-06-04 09:42:00,61.1,47.1,30.02,NE,36,1.0,5.0,60,0.00,,,0.00,VWS V14.01,2013-06-04 13:42:00,
2013-06-04 09:43:00,61.1,46.7,30.02,NE,38,1.0,5.0,59,0.00,,,0.00,VWS V14.01,2013-06-04 13:43:00,
2013-06-04 09:44:00,61.1,46.7,30.02,ENE,76,1.0,5.0,59,0.00,,,0.00,VWS V14.01,2013-06-04 13:44:00,
2013-06-04 09:45:00,61.1,46.2,30.02,ENE,75,1.0,5.0,58,0.00,,,0.00,VWS V14.01,2013-06-04 13:45:00,
2013-06-04 09:46:00,61.1,46.7,30.02,ENE,57,3.0,5.0,59,0.00,,,0.00,VWS V14.01,2013-06-04 13:46:00,
2013-06-04 09:47:00,61.0,46.1,30.02,ENE,58,1.0,5.0,58,0.00,,,0.00,VWS V14.01,2013-06-04 13:47:00,
2013-06-04 09:48:00,60.9,46.9,30.02,ENE,58,0.0,5.0,60,0.00,,,0.00,VWS V14.01,2013-06-04 13:48:00,
2013-06-04 09:49:00,60.9,46.5,30.02,ENE,58,1.0,5.0,59,0.00,,,0.00,VWS V14.01,2013-06-04 13:49:00,
2013-06-04 09:50:00,60.9,46.5,30.02,ENE,59,0.0,5.0,59,0.00,,,0.00,VWS V14.01,2013-06-04 13:50:00,
2013-06-04 09:51:00,61.0,47.0,30.02,ENE,58,0.0,1.0,60,0.00,,,0.00,VWS V14.01,2013-06-04 13:51:00,
2013-06-04 09:52:00,61.1,47.6,30.02,ENE,58,2.0,2.0,61,0.00,,,0.00,VWS V14.01,2013-06-04 13:52:00,
2013-06-04 09:53:00,61.2,47.2,30.02,NE,53,1.0,2.0,60,0.00,,,0.00,VWS V14.01,2013-06-04 13:53:00,
2013-06-04 09:54:00,61.2,47.2,30.02,WSW,240,7.0,7.0,60,0.00,,,0.00,VWS V14.01,2013-06-04 13:54:00,
2013-06-04 09:55:00,61.3,46.9,30.02,WNW,286,1.0,7.0,59,0.00,,,0.00,VWS V14.01,2013-06-04 13:55:00,
2013-06-04 09:56:00,61.4,46.5,30.02,WNW,284,0.0,7.0,58,0.00,,,0.00,VWS V14.01,2013-06-04 13:56:00,
2013-06-04 09:57:00,61.5,47.5,30.02,WNW,284,0.0,7.0,60,0.00,,,0.00,VWS V14.01,2013-06-04 13:57:00,
2013-06-04 09:58:00,61.7,48.6,30.02,NE,56,3.0,7.0,62,0.00,,,0.00,VWS V14.01,2013-06-04 13:58:00,
2013-06-04 09:59:00,61.8,47.3,30.02,NE,56,0.0,7.0,59,0.00,,,0.00,VWS V14.01,2013-06-04 13:59:00,
2013-06-04 10:00:00,61.9,47.4,30.02,WSW,243,4.0,7.0,59,0.00,,,0.00,VWS V14.01,2013-06-04 14:00:00,
2013-06-04 10:01:00,62.0,47.5,30.02,WSW,239,0.0,4.0,59,0.00,,,0.00,VWS V14.01,2013-06-04 14:01:00,
2013-06-04 10:02:00,62.1,47.6,30.02,WSW,239,0.0,4.0,59,0.00,,,0.00,VWS V14.01,2013-06-04 14:02:00,
2013-06-04 10:03:00,62.2,48.6,30.02,NNE,28,1.0,4.0,61,0.00,,,0.00,VWS V14.01,2013-06-04 14:03:00,
2013-06-04 10:04:00,62.4,48.8,30.02,NNE,26,1.0,4.0,61,0.00,,,0.00,VWS V14.01,2013-06-04 14:04:00,
2013-06-04 10:05:00,62.4,47.5,30.02,NNE,28,0.0,4.0,58,0.00,,,0.00,VWS V14.01,2013-06-04 14:05:00,
2013-06-04 10:06:00,62.5,47.5,30.02,NE,47,2.0,4.0,58,0.00,,,0.00,VWS V14.01,2013-06-04 14:06:00,
2013-06-04 10:07:00,62.5,47.5,30.02,NE,47,0.0,4.0,58,0.00,,,0.00,VWS V14.01,2013-06-04 14:07:00,
2013-06-04 10:08:00,62.5,47.1,30.02,NE,46,2.0,4.0,57,0.00,,,0.00,VWS V14.01,2013-06-04 14:08:00,
2013-06-04 10:09:00,62.5,46.6,30.02,East,83,2.0,4.0,56,0.00,,,0.00,VWS V14.01,2013-06-04 14:09:00,
2013-06-04 10:10:00,62.4,46.0,30.02,ENE,61,2.0,6.0,55,0.00,,,0.00,VWS V14.01,2013-06-04 14:10:00,
2013-06-04 10:11:00,62.3,46.0,30.02,North,5,0.0,6.0,55,0.00,,,0.00,VWS V14.01,2013-06-04 14:11:00,
2013-06-04 10:12:00,62.4,47.0,30.02,North,9,3.0,6.0,57,0.00,,,0.00,VWS V14.01,2013-06-04 14:12:00,
2013-06-04 10:13:00,62.4,47.0,30.02,East,88,5.0,6.0,57,0.00,,,0.00,VWS V14.01,2013-06-04 14:13:00,
2013-06-04 10:14:00,62.5,47.1,30.02,ENE,69,1.0,6.0,57,0.00,,,0.00,VWS V14.01,2013-06-04 14:14:00,
2013-06-04 10:15:00,62.5,46.6,30.02,ENE,69,1.0,6.0,56,0.00,,,0.00,VWS V14.01,2013-06-04 14:15:00,
2013-06-04 10:16:00,62.4,47.0,30.02,West,275,3.0,6.0,57,0.00,,,0.00,VWS V14.01,2013-06-04 14:16:00,
2013-06-04 10:17:00,62.5,47.1,30.02,West,276,1.0,6.0,57,0.00,,,0.00,VWS V14.01,2013-06-04 14:17:00,
2013-06-04 10:18:00,62.6,48.5,30.02,West,275,1.0,6.0,60,0.00,,,0.00,VWS V14.01,2013-06-04 14:18:00,
2013-06-04 10:19:00,62.7,48.2,30.02,West,278,1.0,6.0,59,0.00,,,0.00,VWS V14.01,2013-06-04 14:19:00,
2013-06-04 10:20:00,62.8,46.9,30.02,SE,126,1.0,6.0,56,0.00,,,0.00,VWS V14.01,2013-06-04 14:20:00,
2013-06-04 10:21:00,62.9,46.5,30.02,ESE,116,2.0,5.0,55,0.00,,,0.00,VWS V14.01,2013-06-04 14:21:00,
2013-06-04 10:22:00,62.9,47.0,30.02,ENE,74,3.0,6.0,56,0.00,,,0.00,VWS V14.01,2013-06-04 14:22:00,
2013-06-04 10:23:00,62.9,46.5,30.02,NE,40,1.0,6.0,55,0.00,,,0.00,VWS V14.01,2013-06-04 14:23:00,
2013-06-04 10:24:00,62.8,46.9,30.02,NE,40,0.0,6.0,56,0.00,,,0.00,VWS V14.01,2013-06-04 14:24:00,
2013-06-04 10:25:00,62.9,47.5,30.02,NE,40,0.0,6.0,57,0.00,,,0.00,VWS V14.01,2013-06-04 14:25:00,
2013-06-04 10:26:00,63.0,47.5,30.02,SE,136,0.0,6.0,57,0.00,,,0.00,VWS V14.01,2013-06-04 14:26:00,
2013-06-04 10:27:00,63.0,47.5,30.02,WNW,295,2.0,6.0,57,0.00,,,0.00,VWS V14.01,2013-06-04 14:27:00,
2013-06-04 10:28:00,63.1,47.6,30.02,WNW,291,1.0,7.0,57,0.00,,,0.00,VWS V14.01,2013-06-04 14:28:00,
2013-06-04 10:29:00,63.2,47.7,30.02,WNW,291,1.0,7.0,57,0.00,,,0.00,VWS V14.01,2013-06-04 14:29:00,
2013-06-04 10:30:00,63.4,47.9,30.02,WNW,295,1.0,7.0,57,0.00,,,0.00,VWS V14.01,2013-06-04 14:30:00,
2013-06-04 10:31:00,63.4,47.0,30.02,NW,306,7.0,7.0,55,0.00,,,0.00,VWS V14.01,2013-06-04 14:31:00,
2013-06-04 10:32:00,63.5,47.1,30.02,WSW,246,3.0,7.0,55,0.00,,,0.00,VWS V14.01,2013-06-04 14:32:00,
2013-06-04 10:33:00,63.6,47.2,30.02,West,271,0.0,7.0,55,0.00,,,0.00,VWS V14.01,2013-06-04 14:33:00,
2013-06-04 10:34:00,63.7,48.2,30.02,West,271,0.0,7.0,57,0.00,,,0.00,VWS V14.01,2013-06-04 14:34:00,
2013-06-04 10:35:00,63.8,48.8,30.02,WNW,297,2.0,7.0,58,0.00,,,0.00,VWS V14.01,2013-06-04 14:35:00,
2013-06-04 10:36:00,64.0,48.5,30.02,SSW,211,3.0,7.0,57,0.00,,,0.00,VWS V14.01,2013-06-04 14:36:00,
2013-06-04 10:37:00,64.1,48.1,30.02,NW,316,6.0,7.0,56,0.00,,,0.00,VWS V14.01,2013-06-04 14:37:00,
2013-06-04 10:38:00,64.1,46.6,30.02,NNW,333,3.0,7.0,53,0.00,,,0.00,VWS V14.01,2013-06-04 14:38:00,
2013-06-04 10:39:00,64.2,46.2,30.02,NW,308,3.0,7.0,52,0.00,,,0.00,VWS V14.01,2013-06-04 14:39:00,
2013-06-04 10:40:00,64.2,46.2,30.02,WSW,251,1.0,7.0,52,0.00,,,0.00,VWS V14.01,2013-06-04 14:40:00,
2013-06-04 10:41:00,64.2,46.2,30.02,ENE,76,1.0,7.0,52,0.00,,,0.00,VWS V14.01,2013-06-04 14:41:00,
2013-06-04 10:42:00,64.3,47.3,30.02,ENE,76,0.0,7.0,54,0.00,,,0.00,VWS V14.01,2013-06-04 14:42:00,
2013-06-04 10:43:00,64.3,48.3,30.02,NNW,348,0.0,7.0,56,0.00,,,0.00,VWS V14.01,2013-06-04 14:43:00,
2013-06-04 10:44:00,64.5,49.4,30.02,West,277,1.0,7.0,58,0.00,,,0.00,VWS V14.01,2013-06-04 14:44:00,
2013-06-04 10:45:00,64.6,47.6,30.02,WNW,291,3.0,7.0,54,0.00,,,0.00,VWS V14.01,2013-06-04 14:45:00,
2013-06-04 10:46:00,64.7,47.7,30.02,WNW,300,1.0,7.0,54,0.00,,,0.00,VWS V14.01,2013-06-04 14:46:00,
2013-06-04 10:47:00,64.8,47.3,30.02,WNW,294,0.0,7.0,53,0.00,,,0.00,VWS V14.01,2013-06-04 14:47:00,
2013-06-04 10:48:00,64.8,47.3,30.02,SSW,207,1.0,7.0,53,0.00,,,0.00,VWS V14.01,2013-06-04 14:48:00,
2013-06-04 10:49:00,64.9,47.4,30.02,SSW,207,1.0,7.0,53,0.00,,,0.00,VWS V14.01,2013-06-04 14:49:00,
2013-06-04 10:50:00,65.0,47.5,30.02,ENE,77,2.0,7.0,53,0.00,,,0.00,VWS V14.01,2013-06-04 14:50:00,
2013-06-04 10:51:00,65.1,47.1,30.02,South,178,3.0,3.0,52,0.00,,,0.00,VWS V14.01,2013-06-04 14:51:00,
2013-06-04 10:52:00,65.2,47.2,30.02,West,263,5.0,5.0,52,0.00,,,0.00,VWS V14.01,2013-06-04 14:52:00,
2013-06-04 10:53:00,65.2,46.6,30.02,NW,319,2.0,5.0,51,0.00,,,0.00,VWS V14.01,2013-06-04 14:53:00,
2013-06-04 10:54:00,65.2,46.6,30.02,WSW,253,0.0,6.0,51,0.00,,,0.00,VWS V14.01,2013-06-04 14:54:00,
2013-06-04 10:55:00,65.3,47.2,30.02,WSW,253,0.0,6.0,52,0.00,,,0.00,VWS V14.01,2013-06-04 14:55:00,
2013-06-04 10:56:00,65.4,47.3,30.02,WSW,246,0.0,6.0,52,0.00,,,0.00,VWS V14.01,2013-06-04 14:56:00,
2013-06-04 10:57:00,65.5,46.4,30.02,West,265,6.0,9.0,50,0.00,,,0.00,VWS V14.01,2013-06-04 14:57:00,
2013-06-04 10:58:00,65.6,47.0,30.02,SSW,212,1.0,9.0,51,0.00,,,0.00,VWS V14.01,2013-06-04 14:58:00,
2013-06-04 10:59:00,65.6,46.5,30.02,West,270,3.0,9.0,50,0.00,,,0.00,VWS V14.01,2013-06-04 14:59:00,
2013-06-04 11:00:00,65.6,46.5,30.02,WSW,248,4.0,9.0,50,0.00,,,0.00,VWS V14.01,2013-06-04 15:00:00,
2013-06-04 11:01:00,65.7,46.0,30.02,NNW,348,3.0,5.0,49,0.00,,,0.00,VWS V14.01,2013-06-04 15:01:00,
2013-06-04 11:02:00,65.7,46.0,30.02,NW,320,3.0,6.0,49,0.00,,,0.00,VWS V14.01,2013-06-04 15:02:00,
2013-06-04 11:03:00,65.8,47.7,30.02,NW,319,0.0,6.0,52,0.00,,,0.00,VWS V14.01,2013-06-04 15:03:00,
2013-06-04 11:04:00,65.9,47.3,30.02,WSW,255,0.0,6.0,51,0.00,,,0.00,VWS V14.01,2013-06-04 15:04:00,
2013-06-04 11:05:00,66.1,48.5,30.02,ESE,109,1.0,6.0,53,0.00,,,0.00,VWS V14.01,2013-06-04 15:05:00,
2013-06-04 11:06:00,66.1,47.5,30.02,ENE,76,2.0,6.0,51,0.00,,,0.00,VWS V14.01,2013-06-04 15:06:00,
2013-06-04 11:07:00,66.1,45.9,30.02,NNE,17,3.0,7.0,48,0.00,,,0.00,VWS V14.01,2013-06-04 15:07:00,
2013-06-04 11:08:00,65.9,45.7,30.02,East,96,1.0,7.0,48,0.00,,,0.00,VWS V14.01,2013-06-04 15:08:00,
2013-06-04 11:09:00,65.9,46.2,30.02,East,86,0.0,7.0,49,0.00,,,0.00,VWS V14.01,2013-06-04 15:09:00,
2013-06-04 11:10:00,65.9,46.8,30.02,WNW,288,2.0,7.0,50,0.00,,,0.00,VWS V14.01,2013-06-04 15:10:00,
2013-06-04 11:11:00,66.1,48.0,30.02,East,96,0.0,2.0,52,0.00,,,0.00,VWS V14.01,2013-06-04 15:11:00,
2013-06-04 11:12:00,66.1,46.9,30.02,ENE,67,3.0,7.0,50,0.00,,,0.00,VWS V14.01,2013-06-04 15:12:00,
2013-06-04 11:13:00,66.0,46.3,30.02,West,275,4.0,7.0,49,0.00,,,0.00,VWS V14.01,2013-06-04 15:13:00,
2013-06-04 11:14:00,65.9,45.1,30.02,South,185,2.0,7.0,47,0.00,,,0.00,VWS V14.01,2013-06-04 15:14:00,
2013-06-04 11:15:00,65.9,45.7,30.02,SE,126,6.0,7.0,48,0.00,,,0.00,VWS V14.01,2013-06-04 15:15:00,
2013-06-04 11:16:00,65.8,44.5,30.02,ESE,103,2.0,7.0,46,0.00,,,0.00,VWS V14.01,2013-06-04 15:16:00,
2013-06-04 11:17:00,65.7,44.9,30.02,West,262,2.0,7.0,47,0.00,,,0.00,VWS V14.01,2013-06-04 15:17:00,
2013-06-04 11:18:00,65.6,44.3,30.02,North,11,1.0,7.0,46,0.00,,,0.00,VWS V14.01,2013-06-04 15:18:00,
2013-06-04 11:19:00,65.6,44.3,30.02,WNW,284,7.0,7.0,46,0.00,,,0.00,VWS V14.01,2013-06-04 15:19:00,
2013-06-04 11:20:00,65.5,44.8,30.02,NNW,336,2.0,7.0,47,0.00,,,0.00,VWS V14.01,2013-06-04 15:20:00,
2013-06-04 11:21:00,65.6,46.0,30.02,NNW,335,0.0,2.0,49,0.00,,,0.00,VWS V14.01,2013-06-04 15:21:00,
2013-06-04 11:22:00,65.7,46.6,30.02,NNW,335,0.0,2.0,50,0.00,,,0.00,VWS V14.01,2013-06-04 15:22:00,
2013-06-04 11:23:00,65.8,47.7,30.02,WNW,302,0.0,3.0,52,0.00,,,0.00,VWS V14.01,2013-06-04 15:23:00,
2013-06-04 11:24:00,65.9,47.3,30.02,WNW,303,0.0,3.0,51,0.00,,,0.00,VWS V14.01,2013-06-04 15:24:00,
2013-06-04 11:25:00,66.0,47.4,30.02,WNW,302,2.0,3.0,51,0.00,,,0.00,VWS V14.01,2013-06-04 15:25:00,
2013-06-04 11:26:00,66.1,46.4,30.02,NNE,13,2.0,7.0,49,0.00,,,0.00,VWS V14.01,2013-06-04 15:26:00,
2013-06-04 11:27:00,66.2,47.0,30.02,WSW,254,1.0,7.0,50,0.00,,,0.00,VWS V14.01,2013-06-04 15:27:00,
2013-06-04 11:28:00,66.3,47.1,30.02,WSW,252,1.0,7.0,50,0.00,,,0.00,VWS V14.01,2013-06-04 15:28:00,
2013-06-04 11:29:00,66.4,46.7,30.02,ENE,75,3.0,7.0,49,0.00,,,0.00,VWS V14.01,2013-06-04 15:29:00,
2013-06-04 11:30:00,66.5,48.3,30.03,ESE,123,0.0,7.0,52,0.00,,,0.00,VWS V14.01,2013-06-04 15:30:00,
2013-06-04 11:31:00,66.5,46.8,30.03,WNW,303,3.0,3.0,49,0.00,,,0.00,VWS V14.01,2013-06-04 15:31:00,
2013-06-04 11:32:00,66.5,46.8,30.03,WNW,288,11.0,11.0,49,0.00,,,0.00,VWS V14.01,2013-06-04 15:32:00,
2013-06-04 11:33:00,66.5,46.2,30.03,WSW,255,4.0,11.0,48,0.00,,,0.00,VWS V14.01,2013-06-04 15:33:00,
2013-06-04 11:34:00,66.5,45.7,30.03,WNW,290,1.0,11.0,47,0.00,,,0.00,VWS V14.01,2013-06-04 15:34:00,
2013-06-04 11:35:00,66.6,46.9,30.03,WSW,239,4.0,11.0,49,0.00,,,0.00,VWS V14.01,2013-06-04 15:35:00,
2013-06-04 11:36:00,66.6,46.9,30.03,WSW,248,2.0,11.0,49,0.00,,,0.00,VWS V14.01,2013-06-04 15:36:00,
2013-06-04 11:37:00,66.7,48.0,30.03,West,270,3.0,11.0,51,0.00,,,0.00,VWS V14.01,2013-06-04 15:37:00,
2013-06-04 11:38:00,66.6,46.9,30.03,WNW,293,0.0,11.0,49,0.00,,,0.00,VWS V14.01,2013-06-04 15:38:00,
2013-06-04 11:39:00,66.7,47.0,30.03,WNW,293,0.0,11.0,49,0.00,,,0.00,VWS V14.01,2013-06-04 15:39:00,
2013-06-04 11:40:00,66.7,46.4,30.03,WNW,284,1.0,11.0,48,0.00,,,0.00,VWS V14.01,2013-06-04 15:40:00,
2013-06-04 11:41:00,66.7,46.4,30.03,WSW,246,0.0,3.0,48,0.00,,,0.00,VWS V14.01,2013-06-04 15:41:00,
2013-06-04 11:42:00,66.7,46.4,30.03,East,93,3.0,3.0,48,0.00,,,0.00,VWS V14.01,2013-06-04 15:42:00,
2013-06-04 11:43:00,66.7,47.0,30.03,East,83,1.0,5.0,49,0.00,,,0.00,VWS V14.01,2013-06-04 15:43:00,
2013-06-04 11:44:00,66.6,46.9,30.03,NW,311,7.0,7.0,49,0.00,,,0.00,VWS V14.01,2013-06-04 15:44:00,
2013-06-04 11:45:00,66.6,46.3,30.02,NW,304,3.0,7.0,48,0.00,,,0.00,VWS V14.01,2013-06-04 15:45:00,
2013-06-04 11:46:00,66.5,46.8,30.02,East,98,5.0,7.0,49,0.00,,,0.00,VWS V14.01,2013-06-04 15:46:00,
2013-06-04 11:47:00,66.5,46.8,30.02,NE,43,0.0,7.0,49,0.00,,,0.00,VWS V14.01,2013-06-04 15:47:00,
2013-06-04 11:48:00,66.5,47.3,30.02,NE,43,1.0,7.0,50,0.00,,,0.00,VWS V14.01,2013-06-04 15:48:00,
2013-06-04 11:49:00,66.5,47.8,30.02,NE,46,0.0,7.0,51,0.00,,,0.00,VWS V14.01,2013-06-04 15:49:00,
2013-06-04 11:50:00,66.5,48.9,30.02,NE,53,2.0,7.0,53,0.00,,,0.00,VWS V14.01,2013-06-04 15:50:00,
2013-06-04 11:51:00,66.6,46.9,30.02,East,86,3.0,3.0,49,0.00,,,0.00,VWS V14.01,2013-06-04 15:51:00,
2013-06-04 11:52:00,66.6,47.9,30.02,ENE,78,0.0,3.0,51,0.00,,,0.00,VWS V14.01,2013-06-04 15:52:00,
2013-06-04 11:53:00,66.6,47.4,30.02,ENE,59,0.0,4.0,50,0.00,,,0.00,VWS V14.01,2013-06-04 15:53:00,
2013-06-04 11:54:00,66.6,47.4,30.02,South,183,2.0,8.0,50,0.00,,,0.00,VWS V14.01,2013-06-04 15:54:00,
2013-06-04 11:55:00,66.7,47.0,30.02,WSW,238,0.0,8.0,49,0.00,,,0.00,VWS V14.01,2013-06-04 15:55:00,
2013-06-04 11:56:00,66.8,46.5,30.02,WNW,293,3.0,8.0,48,0.00,,,0.00,VWS V14.01,2013-06-04 15:56:00,
2013-06-04 11:57:00,66.8,45.9,30.02,WSW,248,3.0,8.0,47,0.00,,,0.00,VWS V14.01,2013-06-04 15:57:00,
2013-06-04 11:58:00,66.9,46.6,30.02,NNW,348,0.0,8.0,48,0.00,,,0.00,VWS V14.01,2013-06-04 15:58:00,
2013-06-04 11:59:00,67.0,46.7,30.02,East,89,0.0,8.0,48,0.00,,,0.00,VWS V14.01,2013-06-04 15:59:00,
2013-06-04 12:00:00,67.1,46.8,30.02,SE,132,3.0,8.0,48,0.00,,,0.00,VWS V14.01,2013-06-04 16:00:00,
2013-06-04 12:01:00,67.3,47.5,30.02,SSE,153,4.0,4.0,49,0.00,,,0.00,VWS V14.01,2013-06-04 16:01:00,
2013-06-04 12:02:00,67.4,46.5,30.02,WSW,257,3.0,7.0,47,0.00,,,0.00,VWS V14.01,2013-06-04 16:02:00,
2013-06-04 12:03:00,67.5,46.6,30.02,NNW,327,2.0,7.0,47,0.00,,,0.00,VWS V14.01,2013-06-04 16:03:00,
2013-06-04 12:04:00,67.6,46.7,30.02,SE,128,2.0,7.0,47,0.00,,,0.00,VWS V14.01,2013-06-04 16:04:00,
2013-06-04 12:05:00,67.7,48.4,30.02,NW,315,2.0,7.0,50,0.00,,,0.00,VWS V14.01,2013-06-04 16:05:00,
2013-06-04 12:06:00,67.8,46.9,30.02,SSW,209,2.0,7.0,47,0.00,,,0.00,VWS V14.01,2013-06-04 16:06:00,
2013-06-04 12:07:00,67.9,46.4,30.02,SW,236,1.0,7.0,46,0.00,,,0.00,VWS V14.01,2013-06-04 16:07:00,
2013-06-04 12:08:00,67.9,45.8,30.02,SW,234,1.0,7.0,45,0.00,,,0.00,VWS V14.01,2013-06-04 16:08:00,
2013-06-04 12:09:00,68.0,46.5,30.02,ENE,57,2.0,7.0,46,0.00,,,0.00,VWS V14.01,2013-06-04 16:09:00,
2013-06-04 12:10:00,67.9,45.2,30.02,NE,49,1.0,7.0,44,0.00,,,0.00,VWS V14.01,2013-06-04 16:10:00,
2013-06-04 12:11:00,67.9,46.4,30.02,NNE,27,0.0,3.0,46,0.00,,,0.00,VWS V14.01,2013-06-04 16:11:00,
2013-06-04 12:12:00,67.9,46.4,30.02,NNE,28,2.0,3.0,46,0.00,,,0.00,VWS V14.01,2013-06-04 16:12:00,
2013-06-04 12:13:00,67.8,45.7,30.02,NNE,30,0.0,3.0,45,0.00,,,0.00,VWS V14.01,2013-06-04 16:13:00,
2013-06-04 12:14:00,67.8,47.4,30.02,NNE,30,0.0,3.0,48,0.00,,,0.00,VWS V14.01,2013-06-04 16:14:00,
2013-06-04 12:15:00,67.8,47.4,30.02,ENE,61,1.0,3.0,48,0.00,,,0.00,VWS V14.01,2013-06-04 16:15:00,
2013-06-04 12:16:00,68.0,47.6,30.02,ENE,61,0.0,3.0,48,0.00,,,0.00,VWS V14.01,2013-06-04 16:16:00,
2013-06-04 12:17:00,68.1,48.8,30.02,ENE,61,1.0,3.0,50,0.00,,,0.00,VWS V14.01,2013-06-04 16:17:00,
2013-06-04 12:18:00,68.3,49.5,30.02,SW,224,0.0,3.0,51,0.00,,,0.00,VWS V14.01,2013-06-04 16:18:00,
2013-06-04 12:19:00,68.5,49.2,30.02,WNW,297,7.0,8.0,50,0.00,,,0.00,VWS V14.01,2013-06-04 16:19:00,
2013-06-04 12:20:00,68.6,47.0,30.02,NNW,338,0.0,8.0,46,0.00,,,0.00,VWS V14.01,2013-06-04 16:20:00,
2013-06-04 12:21:00,68.7,47.7,30.02,North,10,1.0,6.0,47,0.00,,,0.00,VWS V14.01,2013-06-04 16:21:00,
2013-06-04 12:22:00,68.7,45.9,30.02,West,271,1.0,6.0,44,0.00,,,0.00,VWS V14.01,2013-06-04 16:22:00,
2013-06-04 12:23:00,68.7,45.9,30.02,NNW,336,0.0,6.0,44,0.00,,,0.00,VWS V14.01,2013-06-04 16:23:00,
2013-06-04 12:24:00,68.7,45.9,30.02,NNW,336,0.0,6.0,44,0.00,,,0.00,VWS V14.01,2013-06-04 16:24:00,
2013-06-04 12:25:00,68.7,45.3,30.02,West,261,6.0,12.0,43,0.00,,,0.00,VWS V14.01,2013-06-04 16:25:00,
2013-06-04 12:26:00,68.6,45.8,30.02,North,355,5.0,12.0,44,0.00,,,0.00,VWS V14.01,2013-06-04 16:26:00,
2013-06-04 12:27:00,68.6,45.8,30.02,NNW,340,4.0,12.0,44,0.00,,,0.00,VWS V14.01,2013-06-04 16:27:00,
2013-06-04 12:28:00,68.4,45.0,30.02,NNW,333,0.0,12.0,43,0.00,,,0.00,VWS V14.01,2013-06-04 16:28:00,
2013-06-04 12:29:00,68.4,45.0,30.02,NNW,339,0.0,12.0,43,0.00,,,0.00,VWS V14.01,2013-06-04 16:29:00,
2013-06-04 12:30:00,68.3,45.6,30.02,NNW,340,0.0,12.0,44,0.00,,,0.00,VWS V14.01,2013-06-04 16:30:00,
2013-06-04 12:31:00,68.3,46.7,30.02,South,178,2.0,2.0,46,0.00,,,0.00,VWS V14.01,2013-06-04 16:31:00,
2013-06-04 12:32:00,68.2,44.9,30.02,NW,306,1.0,3.0,43,0.00,,,0.00,VWS V14.01,2013-06-04 16:32:00,
2013-06-04 12:33:00,68.2,46.7,30.02,SSW,211,0.0,3.0,46,0.00,,,0.00,VWS V14.01,2013-06-04 16:33:00,
2013-06-04 12:34:00,68.3,46.2,30.02,WNW,292,7.0,7.0,45,0.00,,,0.00,VWS V14.01,2013-06-04 16:34:00,
2013-06-04 12:35:00,68.3,46.2,30.02,North,11,2.0,10.0,45,0.00,,,0.00,VWS V14.01,2013-06-04 16:35:00,
2013-06-04 12:36:00,68.3,45.6,30.02,SW,225,1.0,10.0,44,0.00,,,0.00,VWS V14.01,2013-06-04 16:36:00,
2013-06-04 12:37:00,68.3,46.2,30.02,West,269,13.0,13.0,45,0.00,,,0.00,VWS V14.01,2013-06-04 16:37:00,
2013-06-04 12:38:00,68.3,45.0,30.02,West,270,2.0,13.0,43,0.00,,,0.00,VWS V14.01,2013-06-04 16:38:00,
2013-06-04 12:39:00,68.2,45.5,30.02,NE,52,2.0,13.0,44,0.00,,,0.00,VWS V14.01,2013-06-04 16:39:00,
2013-06-04 12:40:00,68.2,44.3,30.02,ENE,57,2.0,13.0,42,0.00,,,0.00,VWS V14.01,2013-06-04 16:40:00,
2013-06-04 12:41:00,68.0,45.3,30.02,NNE,15,0.0,2.0,44,0.00,,,0.00,VWS V14.01,2013-06-04 16:41:00,
2013-06-04 12:42:00,68.0,45.3,30.02,NNE,16,1.0,2.0,44,0.00,,,0.00,VWS V14.01,2013-06-04 16:42:00,
2013-06-04 12:43:00,68.0,47.0,30.02,North,355,0.0,2.0,47,0.00,,,0.00,VWS V14.01,2013-06-04 16:43:00,
2013-06-04 12:44:00,68.1,46.0,30.02,North,355,0.0,2.0,45,0.00,,,0.00,VWS V14.01,2013-06-04 16:44:00,
2013-06-04 12:45:00,68.1,46.0,30.01,WSW,252,0.0,2.0,45,0.00,,,0.00,VWS V14.01,2013-06-04 16:45:00,
2013-06-04 12:46:00,68.2,46.7,30.01,West,265,0.0,6.0,46,0.00,,,0.00,VWS V14.01,2013-06-04 16:46:00,
2013-06-04 12:47:00,68.2,46.1,30.01,SSE,164,3.0,6.0,45,0.00,,,0.00,VWS V14.01,2013-06-04 16:47:00,
2013-06-04 12:48:00,68.3,46.2,30.01,SSE,148,1.0,6.0,45,0.00,,,0.00,VWS V14.01,2013-06-04 16:48:00,
2013-06-04 12:49:00,68.4,45.7,30.01,WNW,287,3.0,6.0,44,0.00,,,0.00,VWS V14.01,2013-06-04 16:49:00,
2013-06-04 12:50:00,68.5,48.1,30.01,West,262,3.0,6.0,48,0.00,,,0.00,VWS V14.01,2013-06-04 16:50:00,
2013-06-04 12:51:00,68.5,45.1,30.01,WNW,295,5.0,7.0,43,0.00,,,0.00,VWS V14.01,2013-06-04 16:51:00,
2013-06-04 12:52:00,68.4,43.8,30.01,SW,234,0.0,8.0,41,0.00,,,0.00,VWS V14.01,2013-06-04 16:52:00,
2013-06-04 12:53:00,68.4,45.7,30.01,West,275,1.0,8.0,44,0.00,,,0.00,VWS V14.01,2013-06-04 16:53:00,
2013-06-04 12:54:00,68.4,47.4,30.01,West,275,0.0,8.0,47,0.00,,,0.00,VWS V14.01,2013-06-04 16:54:00,
2013-06-04 12:55:00,68.5,46.9,30.01,NE,36,2.0,8.0,46,0.00,,,0.00,VWS V14.01,2013-06-04 16:55:00,
2013-06-04 12:56:00,68.6,48.7,30.01,NNW,348,2.0,8.0,49,0.00,,,0.00,VWS V14.01,2013-06-04 16:56:00,
2013-06-04 12:57:00,68.6,47.0,30.01,ENE,74,1.0,8.0,46,0.00,,,0.00,VWS V14.01,2013-06-04 16:57:00,
2013-06-04 12:58:00,68.6,45.2,30.01,West,273,1.0,8.0,43,0.00,,,0.00,VWS V14.01,2013-06-04 16:58:00,
2013-06-04 12:59:00,68.6,45.2,30.01,WSW,250,4.0,8.0,43,0.00,,,0.00,VWS V14.01,2013-06-04 16:59:00,
2013-06-04 13:00:00,68.6,46.4,30.00,WSW,255,4.0,8.0,45,0.00,,,0.00,VWS V14.01,2013-06-04 17:00:00,
2013-06-04 13:01:00,68.6,46.4,30.00,WSW,255,0.0,2.0,45,0.00,,,0.00,VWS V14.01,2013-06-04 17:01:00,
2013-06-04 13:02:00,68.6,47.0,30.00,West,260,4.0,4.0,46,0.00,,,0.00,VWS V14.01,2013-06-04 17:02:00,
2013-06-04 13:03:00,68.5,46.3,30.00,WNW,296,1.0,4.0,45,0.00,,,0.00,VWS V14.01,2013-06-04 17:03:00,
2013-06-04 13:04:00,68.5,46.3,30.00,ESE,117,1.0,4.0,45,0.00,,,0.00,VWS V14.01,2013-06-04 17:04:00,
2013-06-04 13:05:00,68.5,48.1,30.00,ESE,119,2.0,4.0,48,0.00,,,0.00,VWS V14.01,2013-06-04 17:05:00,
2013-06-04 13:06:00,68.4,46.2,30.00,East,88,2.0,4.0,45,0.00,,,0.00,VWS V14.01,2013-06-04 17:06:00,
2013-06-04 13:07:00,68.3,45.6,30.00,ENE,76,8.0,8.0,44,0.00,,,0.00,VWS V14.01,2013-06-04 17:07:00,
2013-06-04 13:08:00,68.1,45.4,30.00,ENE,71,1.0,8.0,44,0.00,,,0.00,VWS V14.01,2013-06-04 17:08:00,
2013-06-04 13:09:00,68.0,45.9,30.00,ENE,73,1.0,8.0,45,0.00,,,0.00,VWS V14.01,2013-06-04 17:09:00,
2013-06-04 13:10:00,67.9,46.4,30.00,ENE,78,1.0,8.0,46,0.00,,,0.00,VWS V14.01,2013-06-04 17:10:00,
2013-06-04 13:11:00,67.8,46.3,30.00,SW,227,2.0,7.0,46,0.00,,,0.00,VWS V14.01,2013-06-04 17:11:00,
2013-06-04 13:12:00,67.8,46.3,30.00,SW,232,0.0,7.0,46,0.00,,,0.00,VWS V14.01,2013-06-04 17:12:00,
2013-06-04 13:13:00,67.8,47.4,30.00,SW,232,0.0,7.0,48,0.00,,,0.00,VWS V14.01,2013-06-04 17:13:00,
2013-06-04 13:14:00,67.8,46.9,30.00,North,360,0.0,7.0,47,0.00,,,0.00,VWS V14.01,2013-06-04 17:14:00,
2013-06-04 13:15:00,67.8,46.3,30.00,WSW,250,1.0,7.0,46,0.00,,,0.00,VWS V14.01,2013-06-04 17:15:00,
2013-06-04 13:16:00,67.8,46.9,30.00,West,263,3.0,7.0,47,0.00,,,0.00,VWS V14.01,2013-06-04 17:16:00,
2013-06-04 13:17:00,67.8,46.3,30.00,West,271,2.0,7.0,46,0.00,,,0.00,VWS V14.01,2013-06-04 17:17:00,
2013-06-04 13:18:00,67.8,46.3,30.00,West,275,0.0,7.0,46,0.00,,,0.00,VWS V14.01,2013-06-04 17:18:00,
2013-06-04 13:19:00,67.8,46.9,30.00,ENE,78,4.0,9.0,47,0.00,,,0.00,VWS V14.01,2013-06-04 17:19:00,
2013-06-04 13:20:00,67.7,45.6,30.00,NW,313,1.0,9.0,45,0.00,,,0.00,VWS V14.01,2013-06-04 17:20:00,
2013-06-04 13:21:00,67.8,46.3,30.00,WSW,250,3.0,3.0,46,0.00,,,0.00,VWS V14.01,2013-06-04 17:21:00,
2013-06-04 13:22:00,67.7,46.2,30.00,WSW,250,0.0,3.0,46,0.00,,,0.00,VWS V14.01,2013-06-04 17:22:00,
2013-06-04 13:23:00,67.8,46.3,30.00,SW,221,0.0,3.0,46,0.00,,,0.00,VWS V14.01,2013-06-04 17:23:00,
2013-06-04 13:24:00,67.9,47.0,30.00,SW,223,2.0,3.0,47,0.00,,,0.00,VWS V14.01,2013-06-04 17:24:00,
2013-06-04 13:25:00,67.9,46.4,30.00,NW,320,5.0,5.0,46,0.00,,,0.00,VWS V14.01,2013-06-04 17:25:00,
2013-06-04 13:26:00,67.9,45.8,30.00,NW,310,0.0,5.0,45,0.00,,,0.00,VWS V14.01,2013-06-04 17:26:00,
2013-06-04 13:27:00,67.9,45.8,30.00,NW,310,0.0,5.0,45,0.00,,,0.00,VWS V14.01,2013-06-04 17:27:00,
2013-06-04 13:28:00,68.0,46.5,30.00,WNW,299,1.0,5.0,46,0.00,,,0.00,VWS V14.01,2013-06-04 17:28:00,
2013-06-04 13:29:00,68.0,45.9,30.00,WSW,240,6.0,10.0,45,0.00,,,0.00,VWS V14.01,2013-06-04 17:29:00,
2013-06-04 13:30:00,68.0,45.9,30.00,SSE,153,3.0,10.0,45,0.00,,,0.00,VWS V14.01,2013-06-04 17:30:00,
2013-06-04 13:31:00,68.0,45.9,30.00,SSE,153,0.0,1.0,45,0.00,,,0.00,VWS V14.01,2013-06-04 17:31:00,
2013-06-04 13:32:00,68.0,45.9,30.00,SSW,209,3.0,7.0,45,0.00,,,0.00,VWS V14.01,2013-06-04 17:32:00,
2013-06-04 13:33:00,68.0,45.3,30.00,West,262,4.0,8.0,44,0.00,,,0.00,VWS V14.01,2013-06-04 17:33:00,
2013-06-04 13:34:00,68.0,44.7,30.00,WSW,250,4.0,8.0,43,0.00,,,0.00,VWS V14.01,2013-06-04 17:34:00,
2013-06-04 13:35:00,68.0,45.3,30.00,NNW,327,2.0,8.0,44,0.00,,,0.00,VWS V14.01,2013-06-04 17:35:00,
2013-06-04 13:36:00,68.0,44.7,30.00,SSW,212,4.0,8.0,43,0.00,,,0.00,VWS V14.01,2013-06-04 17:36:00,
2013-06-04 13:37:00,68.0,44.1,30.00,South,175,0.0,8.0,42,0.00,,,0.00,VWS V14.01,2013-06-04 17:37:00,
2013-06-04 13:38:00,68.0,44.7,30.00,NNE,12,0.0,8.0,43,0.00,,,0.00,VWS V14.01,2013-06-04 17:38:00,
2013-06-04 13:39:00,68.0,44.1,30.00,NE,36,1.0,8.0,42,0.00,,,0.00,VWS V14.01,2013-06-04 17:39:00,
2013-06-04 13:40:00,68.0,44.7,30.00,NE,43,1.0,8.0,43,0.00,,,0.00,VWS V14.01,2013-06-04 17:40:00,
2013-06-04 13:41:00,68.0,43.5,30.00,WNW,297,3.0,5.0,41,0.00,,,0.00,VWS V14.01,2013-06-04 17:41:00,
2013-06-04 13:42:00,68.0,44.7,30.00,West,265,1.0,5.0,43,0.00,,,0.00,VWS V14.01,2013-06-04 17:42:00,
2013-06-04 13:43:00,68.1,45.4,30.00,NNE,24,3.0,5.0,44,0.00,,,0.00,VWS V14.01,2013-06-04 17:43:00,
2013-06-04 13:44:00,68.1,44.8,30.00,NNE,16,0.0,5.0,43,0.00,,,0.00,VWS V14.01,2013-06-04 17:44:00,
2013-06-04 13:45:00,68.2,46.1,30.00,SW,232,1.0,5.0,45,0.00,,,0.00,VWS V14.01,2013-06-04 17:45:00,
2013-06-04 13:46:00,68.2,46.7,30.00,West,267,1.0,5.0,46,0.00,,,0.00,VWS V14.01,2013-06-04 17:46:00,
2013-06-04 13:47:00,68.2,46.7,30.00,WNW,299,3.0,5.0,46,0.00,,,0.00,VWS V14.01,2013-06-04 17:47:00,
2013-06-04 13:48:00,68.3,45.6,30.00,WSW,245,0.0,7.0,44,0.00,,,0.00,VWS V14.01,2013-06-04 17:48:00,
2013-06-04 13:49:00,68.3,46.7,30.00,WSW,242,5.0,7.0,46,0.00,,,0.00,VWS V14.01,2013-06-04 17:49:00,
2013-06-04 13:50:00,68.3,45.6,30.00,West,260,0.0,7.0,44,0.00,,,0.00,VWS V14.01,2013-06-04 17:50:00,
2013-06-04 13:51:00,68.3,45.6,30.00,West,274,5.0,5.0,44,0.00,,,0.00,VWS V14.01,2013-06-04 17:51:00,
2013-06-04 13:52:00,68.3,46.2,30.00,WNW,301,8.0,10.0,45,0.00,,,0.00,VWS V14.01,2013-06-04 17:52:00,
2013-06-04 13:53:00,68.3,46.2,30.00,West,279,3.0,10.0,45,0.00,,,0.00,VWS V14.01,2013-06-04 17:53:00,
2013-06-04 13:54:00,68.3,46.2,30.00,West,267,4.0,10.0,45,0.00,,,0.00,VWS V14.01,2013-06-04 17:54:00,
2013-06-04 13:55:00,68.3,46.2,30.00,WSW,250,4.0,10.0,45,0.00,,,0.00,VWS V14.01,2013-06-04 17:55:00,
2013-06-04 13:56:00,68.2,46.7,30.00,West,261,0.0,10.0,46,0.00,,,0.00,VWS V14.01,2013-06-04 17:56:00,
2013-06-04 13:57:00,68.3,47.3,30.00,WNW,293,0.0,10.0,47,0.00,,,0.00,VWS V14.01,2013-06-04 17:57:00,
2013-06-04 13:58:00,68.3,47.3,30.00,WNW,292,2.0,10.0,47,0.00,,,0.00,VWS V14.01,2013-06-04 17:58:00,
2013-06-04 13:59:00,68.3,46.2,30.00,NNE,27,3.0,11.0,45,0.00,,,0.00,VWS V14.01,2013-06-04 17:59:00,
2013-06-04 14:00:00,68.3,46.2,30.00,NW,315,1.0,11.0,45,0.00,,,0.00,VWS V14.01,2013-06-04 18:00:00,
2013-06-04 14:01:00,68.4,46.8,30.00,North,351,0.0,5.0,46,0.00,,,0.00,VWS V14.01,2013-06-04 18:01:00,
2013-06-04 14:02:00,68.4,46.2,30.00,ENE,61,0.0,5.0,45,0.00,,,0.00,VWS V14.01,2013-06-04 18:02:00,
2013-06-04 14:03:00,68.4,48.5,30.00,ENE,61,1.0,5.0,49,0.00,,,0.00,VWS V14.01,2013-06-04 18:03:00,
2013-06-04 14:04:00,68.5,48.1,30.00,ENE,78,0.0,5.0,48,0.00,,,0.00,VWS V14.01,2013-06-04 18:04:00,
2013-06-04 14:05:00,68.6,48.2,30.00,WNW,282,3.0,5.0,48,0.00,,,0.00,VWS V14.01,2013-06-04 18:05:00,
2013-06-04 14:06:00,68.6,46.4,30.00,WSW,253,4.0,5.0,45,0.00,,,0.00,VWS V14.01,2013-06-04 18:06:00,
2013-06-04 14:07:00,68.7,46.5,30.00,WSW,243,4.0,5.0,45,0.00,,,0.00,VWS V14.01,2013-06-04 18:07:00,
2013-06-04 14:08:00,68.8,47.2,30.00,SSE,152,0.0,5.0,46,0.00,,,0.00,VWS V14.01,2013-06-04 18:08:00,
2013-06-04 14:09:00,68.9,48.4,30.00,WNW,294,4.0,5.0,48,0.00,,,0.00,VWS V14.01,2013-06-04 18:09:00,
2013-06-04 14:10:00,68.9,47.3,30.00,WSW,252,3.0,6.0,46,0.00,,,0.00,VWS V14.01,2013-06-04 18:10:00,
2013-06-04 14:11:00,69.0,47.4,30.00,WSW,252,0.0,3.0,46,0.00,,,0.00,VWS V14.01,2013-06-04 18:11:00,
2013-06-04 14:12:00,69.0,48.0,30.00,West,267,3.0,10.0,47,0.00,,,0.00,VWS V14.01,2013-06-04 18:12:00,
2013-06-04 14:13:00,69.0,46.8,30.00,NW,313,6.0,10.0,45,0.00,,,0.00,VWS V14.01,2013-06-04 18:13:00,
2013-06-04 14:14:00,69.1,46.3,30.00,West,262,3.0,10.0,44,0.00,,,0.00,VWS V14.01,2013-06-04 18:14:00,
2013-06-04 14:15:00,69.1,46.3,30.00,South,188,1.0,10.0,44,0.00,,,0.00,VWS V14.01,2013-06-04 18:15:00,
2013-06-04 14:16:00,69.1,46.9,30.00,West,259,2.0,10.0,45,0.00,,,0.00,VWS V14.01,2013-06-04 18:16:00,
2013-06-04 14:17:00,69.1,46.3,30.00,SE,130,2.0,10.0,44,0.00,,,0.00,VWS V14.01,2013-06-04 18:17:00,
2013-06-04 14:18:00,69.2,47.0,30.00,North,355,0.0,10.0,45,0.00,,,0.00,VWS V14.01,2013-06-04 18:18:00,
2013-06-04 14:19:00,69.3,47.7,30.00,WNW,287,6.0,10.0,46,0.00,,,0.00,VWS V14.01,2013-06-04 18:19:00,
2013-06-04 14:20:00,69.3,46.5,30.00,West,266,2.0,10.0,44,0.00,,,0.00,VWS V14.01,2013-06-04 18:20:00,
2013-06-04 14:21:00,69.3,46.5,30.00,North,5,4.0,5.0,44,0.00,,,0.00,VWS V14.01,2013-06-04 18:21:00,
2013-06-04 14:22:00,69.3,45.2,30.00,North,5,1.0,5.0,42,0.00,,,0.00,VWS V14.01,2013-06-04 18:22:00,
2013-06-04 14:23:00,69.3,45.9,30.00,North,5,0.0,5.0,43,0.00,,,0.00,VWS V14.01,2013-06-04 18:23:00,
2013-06-04 14:24:00,69.4,46.0,30.00,NW,325,3.0,5.0,43,0.00,,,0.00,VWS V14.01,2013-06-04 18:24:00,
2013-06-04 14:25:00,69.3,45.2,30.00,WNW,288,2.0,6.0,42,0.00,,,0.00,VWS V14.01,2013-06-04 18:25:00,
2013-06-04 14:26:00,69.3,46.5,30.00,NNE,33,0.0,6.0,44,0.00,,,0.00,VWS V14.01,2013-06-04 18:26:00,
2013-06-04 14:27:00,69.4,46.6,30.00,North,11,2.0,6.0,44,0.00,,,0.00,VWS V14.01,2013-06-04 18:27:00,
2013-06-04 14:28:00,69.4,46.6,30.00,North,11,0.0,6.0,44,0.00,,,0.00,VWS V14.01,2013-06-04 18:28:00,
2013-06-04 14:29:00,69.4,45.3,30.00,NNE,12,0.0,6.0,42,0.00,,,0.00,VWS V14.01,2013-06-04 18:29:00,
2013-06-04 14:30:00,69.4,45.3,30.00,West,271,2.0,6.0,42,0.00,,,0.00,VWS V14.01,2013-06-04 18:30:00,
2013-06-04 14:31:00,69.4,46.6,30.00,West,271,0.0,1.0,44,0.00,,,0.00,VWS V14.01,2013-06-04 18:31:00,
2013-06-04 14:32:00,69.4,45.3,30.00,NE,55,0.0,5.0,42,0.00,,,0.00,VWS V14.01,2013-06-04 18:32:00,
2013-06-04 14:33:00,69.4,44.7,30.00,WNW,296,5.0,5.0,41,0.00,,,0.00,VWS V14.01,2013-06-04 18:33:00,
2013-06-04 14:34:00,69.5,45.4,30.00,WSW,254,2.0,10.0,42,0.00,,,0.00,VWS V14.01,2013-06-04 18:34:00,
2013-06-04 14:35:00,69.5,44.8,30.00,East,101,0.0,10.0,41,0.00,,,0.00,VWS V14.01,2013-06-04 18:35:00,
2013-06-04 14:36:00,69.5,44.8,30.00,SE,129,0.0,10.0,41,0.00,,,0.00,VWS V14.01,2013-06-04 18:36:00,
2013-06-04 14:37:00,69.5,46.0,30.00,SE,129,0.0,10.0,43,0.00,,,0.00,VWS V14.01,2013-06-04 18:37:00,
2013-06-04 14:38:00,69.6,47.3,30.00,NNE,30,3.0,10.0,45,0.00,,,0.00,VWS V14.01,2013-06-04 18:38:00,
2013-06-04 14:39:00,69.7,44.3,30.00,WSW,257,4.0,10.0,40,0.00,,,0.00,VWS V14.01,2013-06-04 18:39:00,
2013-06-04 14:40:00,69.7,45.6,30.00,West,261,3.0,10.0,42,0.00,,,0.00,VWS V14.01,2013-06-04 18:40:00,
2013-06-04 14:41:00,69.7,45.6,30.00,West,281,5.0,5.0,42,0.00,,,0.00,VWS V14.01,2013-06-04 18:41:00,
2013-06-04 14:42:00,69.7,45.0,30.00,WNW,294,4.0,6.0,41,0.00,,,0.00,VWS V14.01,2013-06-04 18:42:00,
2013-06-04 14:43:00,69.8,45.7,30.00,WNW,294,0.0,6.0,42,0.00,,,0.00,VWS V14.01,2013-06-04 18:43:00,
2013-06-04 14:44:00,69.8,46.3,30.00,WSW,252,0.0,6.0,43,0.00,,,0.00,VWS V14.01,2013-06-04 18:44:00,
2013-06-04 14:45:00,69.9,46.4,29.99,NW,306,2.0,6.0,43,0.00,,,0.00,VWS V14.01,2013-06-04 18:45:00,
2013-06-04 14:46:00,69.9,44.5,29.99,North,11,4.0,6.0,40,0.00,,,0.00,VWS V14.01,2013-06-04 18:46:00,
2013-06-04 14:47:00,70.0,44.6,29.99,NNE,12,0.0,6.0,40,0.00,,,0.00,VWS V14.01,2013-06-04 18:47:00,
2013-06-04 14:48:00,70.0,45.2,29.99,NNE,12,1.0,6.0,41,0.00,,,0.00,VWS V14.01,2013-06-04 18:48:00,
2013-06-04 14:49:00,70.2,47.3,29.99,WNW,291,0.0,6.0,44,0.00,,,0.00,VWS V14.01,2013-06-04 18:49:00,
2013-06-04 14:50:00,70.2,46.1,29.99,WNW,291,0.0,6.0,42,0.00,,,0.00,VWS V14.01,2013-06-04 18:50:00,
2013-06-04 14:51:00,70.3,45.5,29.99,WSW,257,0.0,2.0,41,0.00,,,0.00,VWS V14.01,2013-06-04 18:51:00,
2013-06-04 14:52:00,70.4,46.9,29.99,WSW,252,3.0,11.0,43,0.00,,,0.00,VWS V14.01,2013-06-04 18:52:00,
2013-06-04 14:53:00,70.4,45.0,29.99,NNW,332,2.0,11.0,40,0.00,,,0.00,VWS V14.01,2013-06-04 18:53:00,
2013-06-04 14:54:00,70.5,45.0,29.99,North,10,0.0,11.0,40,0.00,,,0.00,VWS V14.01,2013-06-04 18:54:00,
2013-06-04 14:55:00,70.6,44.5,29.99,SSW,195,1.0,11.0,39,0.00,,,0.00,VWS V14.01,2013-06-04 18:55:00,
2013-06-04 14:56:00,70.6,45.1,29.99,ESE,109,0.0,11.0,40,0.00,,,0.00,VWS V14.01,2013-06-04 18:56:00,
2013-06-04 14:57:00,70.7,45.2,29.99,ESE,109,1.0,11.0,40,0.00,,,0.00,VWS V14.01,2013-06-04 18:57:00,
2013-06-04 14:58:00,70.8,44.6,29.99,SSW,211,2.0,11.0,39,0.00,,,0.00,VWS V14.01,2013-06-04 18:58:00,
2013-06-04 14:59:00,70.8,45.3,29.99,West,263,0.0,11.0,40,0.00,,,0.00,VWS V14.01,2013-06-04 18:59:00,
2013-06-04 15:00:00,70.9,44.7,30.00,WNW,302,4.0,11.0,39,0.00,,,0.00,VWS V14.01,2013-06-04 19:00:00,
2013-06-04 15:01:00,71.0,44.8,30.00,West,279,3.0,5.0,39,0.00,,,0.00,VWS V14.01,2013-06-04 19:01:00,
2013-06-04 15:02:00,71.0,44.8,30.00,East,97,2.0,5.0,39,0.00,,,0.00,VWS V14.01,2013-06-04 19:02:00,
2013-06-04 15:03:00,71.1,44.9,30.00,ESE,123,2.0,5.0,39,0.00,,,0.00,VWS V14.01,2013-06-04 19:03:00,
2013-06-04 15:04:00,71.1,44.9,30.00,ENE,77,0.0,5.0,39,0.00,,,0.00,VWS V14.01,2013-06-04 19:04:00,
2013-06-04 15:05:00,71.1,45.6,30.00,ENE,78,3.0,5.0,40,0.00,,,0.00,VWS V14.01,2013-06-04 19:05:00,
2013-06-04 15:06:00,71.2,46.3,30.00,East,86,1.0,5.0,41,0.00,,,0.00,VWS V14.01,2013-06-04 19:06:00,
2013-06-04 15:07:00,71.2,45.7,30.00,ENE,74,8.0,8.0,40,0.00,,,0.00,VWS V14.01,2013-06-04 19:07:00,
2013-06-04 15:08:00,71.2,45.7,30.00,NW,313,2.0,8.0,40,0.00,,,0.00,VWS V14.01,2013-06-04 19:08:00,
2013-06-04 15:09:00,71.2,45.7,30.00,NW,314,1.0,8.0,40,0.00,,,0.00,VWS V14.01,2013-06-04 19:09:00,
2013-06-04 15:10:00,71.2,45.0,30.00,NNW,338,0.0,8.0,39,0.00,,,0.00,VWS V14.01,2013-06-04 19:10:00,
2013-06-04 15:11:00,71.2,45.7,30.00,WNW,300,2.0,3.0,40,0.00,,,0.00,VWS V14.01,2013-06-04 19:11:00,
2013-06-04 15:12:00,71.3,46.4,30.00,WNW,301,0.0,3.0,41,0.00,,,0.00,VWS V14.01,2013-06-04 19:12:00,
2013-06-04 15:13:00,71.3,47.7,30.00,East,93,1.0,3.0,43,0.00,,,0.00,VWS V14.01,2013-06-04 19:13:00,
2013-06-04 15:14:00,71.4,47.8,30.00,East,94,0.0,3.0,43,0.00,,,0.00,VWS V14.01,2013-06-04 19:14:00,
2013-06-04 15:15:00,71.5,45.9,30.00,South,186,3.0,3.0,40,0.00,,,0.00,VWS V14.01,2013-06-04 19:15:00,
2013-06-04 15:16:00,71.7,46.1,30.00,West,261,3.0,7.0,40,0.00,,,0.00,VWS V14.01,2013-06-04 19:16:00,
2013-06-04 15:17:00,71.7,46.1,30.00,NW,304,4.0,7.0,40,0.00,,,0.00,VWS V14.01,2013-06-04 19:17:00,
2013-06-04 15:18:00,71.7,45.5,30.00,North,5,1.0,7.0,39,0.00,,,0.00,VWS V14.01,2013-06-04 19:18:00,
2013-06-04 15:19:00,71.8,46.2,30.00,NNE,15,1.0,7.0,40,0.00,,,0.00,VWS V14.01,2013-06-04 19:19:00,
2013-06-04 15:20:00,71.9,46.3,30.00,NNW,338,3.0,7.0,40,0.00,,,0.00,VWS V14.01,2013-06-04 19:20:00,
2013-06-04 15:21:00,71.9,46.3,30.00,North,360,1.0,3.0,40,0.00,,,0.00,VWS V14.01,2013-06-04 19:21:00,
2013-06-04 15:22:00,72.0,47.0,30.00,North,360,0.0,3.0,41,0.00,,,0.00,VWS V14.01,2013-06-04 19:22:00,
2013-06-04 15:23:00,72.0,46.4,30.00,ESE,111,0.0,3.0,40,0.00,,,0.00,VWS V14.01,2013-06-04 19:23:00,
2013-06-04 15:24:00,72.1,46.5,30.00,West,269,5.0,5.0,40,0.00,,,0.00,VWS V14.01,2013-06-04 19:24:00,
2013-06-04 15:25:00,72.1,45.8,30.00,WSW,240,4.0,5.0,39,0.00,,,0.00,VWS V14.01,2013-06-04 19:25:00,
2013-06-04 15:26:00,72.1,45.8,30.00,WSW,254,5.0,6.0,39,0.00,,,0.00,VWS V14.01,2013-06-04 19:26:00,
2013-06-04 15:27:00,72.2,46.6,30.00,WSW,254,0.0,6.0,40,0.00,,,0.00,VWS V14.01,2013-06-04 19:27:00,
2013-06-04 15:28:00,72.2,45.2,30.00,WNW,288,1.0,6.0,38,0.00,,,0.00,VWS V14.01,2013-06-04 19:28:00,
2013-06-04 15:29:00,72.2,45.9,30.00,WSW,250,1.0,6.0,39,0.00,,,0.00,VWS V14.01,2013-06-04 19:29:00,
2013-06-04 15:30:00,72.2,45.9,30.00,West,269,1.0,6.0,39,0.00,,,0.00,VWS V14.01,2013-06-04 19:30:00,
2013-06-04 15:31:00,72.3,46.0,30.00,West,263,1.0,7.0,39,0.00,,,0.00,VWS V14.01,2013-06-04 19:31:00,
2013-06-04 15:32:00,72.4,46.1,30.00,SW,231,5.0,7.0,39,0.00,,,0.00,VWS V14.01,2013-06-04 19:32:00,
2013-06-04 15:33:00,72.4,46.7,30.00,West,277,4.0,10.0,40,0.00,,,0.00,VWS V14.01,2013-06-04 19:33:00,
2013-06-04 15:34:00,72.4,46.7,30.00,West,277,0.0,10.0,40,0.00,,,0.00,VWS V14.01,2013-06-04 19:34:00,
2013-06-04 15:35:00,72.5,46.8,30.00,West,278,2.0,10.0,40,0.00,,,0.00,VWS V14.01,2013-06-04 19:35:00,
2013-06-04 15:36:00,72.5,46.2,30.00,East,88,1.0,10.0,39,0.00,,,0.00,VWS V14.01,2013-06-04 19:36:00,
2013-06-04 15:37:00,72.5,46.2,30.00,South,190,2.0,10.0,39,0.00,,,0.00,VWS V14.01,2013-06-04 19:37:00,
2013-06-04 15:38:00,72.5,46.8,30.00,SSW,204,1.0,10.0,40,0.00,,,0.00,VWS V14.01,2013-06-04 19:38:00,
2013-06-04 15:39:00,72.6,45.6,30.00,North,360,3.0,10.0,38,0.00,,,0.00,VWS V14.01,2013-06-04 19:39:00,
2013-06-04 15:40:00,72.5,46.2,30.00,WNW,285,6.0,10.0,39,0.00,,,0.00,VWS V14.01,2013-06-04 19:40:00,
2013-06-04 15:41:00,72.6,45.6,30.00,NNW,331,0.0,5.0,38,0.00,,,0.00,VWS V14.01,2013-06-04 19:41:00,
2013-06-04 15:42:00,72.6,45.6,30.00,North,360,0.0,5.0,38,0.00,,,0.00,VWS V14.01,2013-06-04 19:42:00,
2013-06-04 15:43:00,72.6,47.6,30.00,East,82,1.0,5.0,41,0.00,,,0.00,VWS V14.01,2013-06-04 19:43:00,
2013-06-04 15:44:00,72.6,45.6,30.00,East,80,5.0,5.0,38,0.00,,,0.00,VWS V14.01,2013-06-04 19:44:00,
2013-06-04 15:45:00,72.5,45.5,30.00,WNW,292,7.0,7.0,38,0.00,,,0.00,VWS V14.01,2013-06-04 19:45:00,
2013-06-04 15:46:00,72.5,44.8,30.00,West,273,3.0,7.0,37,0.00,,,0.00,VWS V14.01,2013-06-04 19:46:00,
2013-06-04 15:47:00,72.5,44.1,30.00,WSW,257,7.0,7.0,36,0.00,,,0.00,VWS V14.01,2013-06-04 19:47:00,
2013-06-04 15:48:00,72.5,43.3,30.00,South,182,2.0,7.0,35,0.00,,,0.00,VWS V14.01,2013-06-04 19:48:00,
2013-06-04 15:49:00,72.5,44.1,30.00,East,82,2.0,7.0,36,0.00,,,0.00,VWS V14.01,2013-06-04 19:49:00,
2013-06-04 15:50:00,72.5,44.1,30.00,NNW,329,0.0,7.0,36,0.00,,,0.00,VWS V14.01,2013-06-04 19:50:00,
2013-06-04 15:51:00,72.4,44.0,30.00,ESE,122,0.0,4.0,36,0.00,,,0.00,VWS V14.01,2013-06-04 19:51:00,
2013-06-04 15:52:00,72.4,43.2,30.00,ESE,122,2.0,4.0,35,0.00,,,0.00,VWS V14.01,2013-06-04 19:52:00,
2013-06-04 15:53:00,72.4,44.7,30.00,ESE,123,1.0,7.0,37,0.00,,,0.00,VWS V14.01,2013-06-04 19:53:00,
2013-06-04 15:54:00,72.4,44.0,30.00,South,183,1.0,7.0,36,0.00,,,0.00,VWS V14.01,2013-06-04 19:54:00,
2013-06-04 15:55:00,72.4,45.4,30.00,South,183,0.0,7.0,38,0.00,,,0.00,VWS V14.01,2013-06-04 19:55:00,
2013-06-04 15:56:00,72.4,46.1,30.00,WSW,242,3.0,7.0,39,0.00,,,0.00,VWS V14.01,2013-06-04 19:56:00,
2013-06-04 15:57:00,72.4,44.7,30.00,SSE,165,0.0,7.0,37,0.00,,,0.00,VWS V14.01,2013-06-04 19:57:00,
2013-06-04 15:58:00,72.4,45.4,30.00,East,87,0.0,7.0,38,0.00,,,0.00,VWS V14.01,2013-06-04 19:58:00,
2013-06-04 15:59:00,72.4,45.4,30.00,West,263,1.0,7.0,38,0.00,,,0.00,VWS V14.01,2013-06-04 19:59:00,
2013-06-04 16:00:00,72.5,44.8,30.00,West,262,0.0,7.0,37,0.00,,,0.00,VWS V14.01,2013-06-04 20:00:00,
2013-06-04 16:01:00,72.5,46.2,30.00,West,262,0.0,1.0,39,0.00,,,0.00,VWS V14.01,2013-06-04 20:01:00,
2013-06-04 16:02:00,72.5,46.2,30.00,West,281,0.0,4.0,39,0.00,,,0.00,VWS V14.01,2013-06-04 20:02:00,
2013-06-04 16:03:00,72.6,46.2,30.00,WNW,282,1.0,4.0,39,0.00,,,0.00,VWS V14.01,2013-06-04 20:03:00,
2013-06-04 16:04:00,72.6,45.6,30.00,ENE,68,3.0,5.0,38,0.00,,,0.00,VWS V14.01,2013-06-04 20:04:00,
2013-06-04 16:05:00,72.5,44.1,30.00,ENE,68,2.0,5.0,36,0.00,,,0.00,VWS V14.01,2013-06-04 20:05:00,
2013-06-04 16:06:00,72.5,46.2,30.00,ENE,77,0.0,5.0,39,0.00,,,0.00,VWS V14.01,2013-06-04 20:06:00,
2013-06-04 16:07:00,72.5,46.2,30.00,ENE,69,3.0,8.0,39,0.00,,,0.00,VWS V14.01,2013-06-04 20:07:00,
2013-06-04 16:08:00,72.3,43.9,30.00,ENE,68,0.0,8.0,36,0.00,,,0.00,VWS V14.01,2013-06-04 20:08:00,
2013-06-04 16:09:00,72.2,43.1,30.00,ENE,68,0.0,8.0,35,0.00,,,0.00,VWS V14.01,2013-06-04 20:09:00,
2013-06-04 16:10:00,72.2,43.8,30.00,ENE,71,2.0,8.0,36,0.00,,,0.00,VWS V14.01,2013-06-04 20:10:00,
2013-06-04 16:11:00,72.2,43.8,30.00,ENE,71,0.0,1.0,36,0.00,,,0.00,VWS V14.01,2013-06-04 20:11:00,
2013-06-04 16:12:00,72.1,44.4,30.00,NW,304,0.0,3.0,37,0.00,,,0.00,VWS V14.01,2013-06-04 20:12:00,
2013-06-04 16:13:00,72.1,44.4,30.00,NW,323,4.0,6.0,37,0.00,,,0.00,VWS V14.01,2013-06-04 20:13:00,
2013-06-04 16:14:00,72.1,44.4,30.00,WNW,296,0.0,6.0,37,0.00,,,0.00,VWS V14.01,2013-06-04 20:14:00,
2013-06-04 16:15:00,72.2,45.2,30.00,WNW,295,0.0,6.0,38,0.00,,,0.00,VWS V14.01,2013-06-04 20:15:00,
2013-06-04 16:16:00,72.2,46.6,30.00,WSW,257,0.0,6.0,40,0.00,,,0.00,VWS V14.01,2013-06-04 20:16:00,
2013-06-04 16:17:00,72.3,46.0,30.00,NW,306,3.0,6.0,39,0.00,,,0.00,VWS V14.01,2013-06-04 20:17:00,
2013-06-04 16:18:00,72.4,44.7,30.00,West,275,3.0,6.0,37,0.00,,,0.00,VWS V14.01,2013-06-04 20:18:00,
2013-06-04 16:19:00,72.5,43.3,30.00,NW,317,0.0,6.0,35,0.00,,,0.00,VWS V14.01,2013-06-04 20:19:00,
2013-06-04 16:20:00,72.6,43.4,30.00,NW,317,0.0,6.0,35,0.00,,,0.00,VWS V14.01,2013-06-04 20:20:00,
2013-06-04 16:21:00,72.6,44.1,30.00,NW,316,3.0,5.0,36,0.00,,,0.00,VWS V14.01,2013-06-04 20:21:00,
2013-06-04 16:22:00,72.7,43.5,30.00,WNW,302,0.0,5.0,35,0.00,,,0.00,VWS V14.01,2013-06-04 20:22:00,
2013-06-04 16:23:00,72.8,46.4,30.00,WNW,302,1.0,5.0,39,0.00,,,0.00,VWS V14.01,2013-06-04 20:23:00,
2013-06-04 16:24:00,72.9,45.8,30.00,West,264,4.0,5.0,38,0.00,,,0.00,VWS V14.01,2013-06-04 20:24:00,
2013-06-04 16:25:00,72.9,45.1,30.00,West,264,0.0,5.0,37,0.00,,,0.00,VWS V14.01,2013-06-04 20:25:00,
2013-06-04 16:26:00,73.0,45.9,30.00,NE,46,2.0,5.0,38,0.00,,,0.00,VWS V14.01,2013-06-04 20:26:00,
2013-06-04 16:27:00,73.1,46.7,30.00,West,263,0.0,5.0,39,0.00,,,0.00,VWS V14.01,2013-06-04 20:27:00,
2013-06-04 16:28:00,73.1,46.7,30.00,West,263,0.0,5.0,39,0.00,,,0.00,VWS V14.01,2013-06-04 20:28:00,
2013-06-04 16:29:00,73.2,46.1,30.00,North,350,0.0,5.0,38,0.00,,,0.00,VWS V14.01,2013-06-04 20:29:00,
2013-06-04 16:30:00,73.3,46.9,29.99,NNE,20,3.0,5.0,39,0.00,,,0.00,VWS V14.01,2013-06-04 20:30:00,
2013-06-04 16:31:00,73.3,47.5,29.99,NNE,32,0.0,3.0,40,0.00,,,0.00,VWS V14.01,2013-06-04 20:31:00,
2013-06-04 16:32:00,73.3,45.5,29.99,NNE,32,1.0,3.0,37,0.00,,,0.00,VWS V14.01,2013-06-04 20:32:00,
2013-06-04 16:33:00,73.3,45.5,29.99,NW,306,2.0,3.0,37,0.00,,,0.00,VWS V14.01,2013-06-04 20:33:00,
2013-06-04 16:34:00,73.3,45.5,29.99,NW,315,1.0,8.0,37,0.00,,,0.00,VWS V14.01,2013-06-04 20:34:00,
2013-06-04 16:35:00,73.4,44.8,29.99,ENE,63,1.0,8.0,36,0.00,,,0.00,VWS V14.01,2013-06-04 20:35:00,
2013-06-04 16:36:00,73.4,44.1,29.99,West,276,0.0,8.0,35,0.00,,,0.00,VWS V14.01,2013-06-04 20:36:00,
2013-06-04 16:37:00,73.5,44.9,29.99,WSW,258,2.0,8.0,36,0.00,,,0.00,VWS V14.01,2013-06-04 20:37:00,
2013-06-04 16:38:00,73.4,44.1,29.99,WNW,296,0.0,8.0,35,0.00,,,0.00,VWS V14.01,2013-06-04 20:38:00,
2013-06-04 16:39:00,73.4,44.8,29.99,WNW,289,4.0,8.0,36,0.00,,,0.00,VWS V14.01,2013-06-04 20:39:00,
2013-06-04 16:40:00,73.4,46.3,29.99,West,280,1.0,8.0,38,0.00,,,0.00,VWS V14.01,2013-06-04 20:40:00,
2013-06-04 16:41:00,73.3,44.0,29.99,WNW,298,1.0,4.0,35,0.00,,,0.00,VWS V14.01,2013-06-04 20:41:00,
2013-06-04 16:42:00,73.3,46.2,29.99,NW,319,2.0,4.0,38,0.00,,,0.00,VWS V14.01,2013-06-04 20:42:00,
2013-06-04 16:43:00,73.3,44.0,29.99,North,351,1.0,4.0,35,0.00,,,0.00,VWS V14.01,2013-06-04 20:43:00,
2013-06-04 16:44:00,73.3,44.8,29.99,East,80,0.0,4.0,36,0.00,,,0.00,VWS V14.01,2013-06-04 20:44:00,
2013-06-04 16:45:00,73.3,44.0,30.00,ESE,111,0.0,4.0,35,0.00,,,0.00,VWS V14.01,2013-06-04 20:45:00,
2013-06-04 16:46:00,73.2,43.9,30.00,NE,40,1.0,4.0,35,0.00,,,0.00,VWS V14.01,2013-06-04 20:46:00,
2013-06-04 16:47:00,73.1,43.1,30.00,NE,42,2.0,4.0,34,0.00,,,0.00,VWS V14.01,2013-06-04 20:47:00,
2013-06-04 16:48:00,73.0,43.0,30.00,NE,42,0.0,4.0,34,0.00,,,0.00,VWS V14.01,2013-06-04 20:48:00,
2013-06-04 16:49:00,73.0,43.8,30.00,NE,45,2.0,4.0,35,0.00,,,0.00,VWS V14.01,2013-06-04 20:49:00,
2013-06-04 16:50:00,72.8,42.8,30.00,East,86,7.0,7.0,34,0.00,,,0.00,VWS V14.01,2013-06-04 20:50:00,
2013-06-04 16:51:00,72.6,42.7,30.00,NE,38,0.0,3.0,34,0.00,,,0.00,VWS V14.01,2013-06-04 20:51:00,
2013-06-04 16:52:00,72.6,43.4,30.00,NW,322,1.0,3.0,35,0.00,,,0.00,VWS V14.01,2013-06-04 20:52:00,
2013-06-04 16:53:00,72.6,43.4,30.00,ENE,74,3.0,3.0,35,0.00,,,0.00,VWS V14.01,2013-06-04 20:53:00,
2013-06-04 16:54:00,72.5,43.3,30.00,WNW,289,1.0,7.0,35,0.00,,,0.00,VWS V14.01,2013-06-04 20:54:00,
2013-06-04 16:55:00,72.4,43.2,30.00,NW,304,3.0,7.0,35,0.00,,,0.00,VWS V14.01,2013-06-04 20:55:00,
2013-06-04 16:56:00,72.4,42.5,30.00,West,277,1.0,7.0,34,0.00,,,0.00,VWS V14.01,2013-06-04 20:56:00,
2013-06-04 16:57:00,72.5,43.3,30.00,West,277,0.0,7.0,35,0.00,,,0.00,VWS V14.01,2013-06-04 20:57:00,
2013-06-04 16:58:00,72.5,44.1,30.00,West,277,0.0,7.0,36,0.00,,,0.00,VWS V14.01,2013-06-04 20:58:00,
2013-06-04 16:59:00,72.5,44.1,30.00,NNW,338,0.0,7.0,36,0.00,,,0.00,VWS V14.01,2013-06-04 20:59:00,
2013-06-04 17:00:00,72.5,43.3,30.00,NE,37,0.0,7.0,35,0.00,,,0.00,VWS V14.01,2013-06-04 21:00:00,
2013-06-04 17:01:00,72.5,42.6,30.00,NE,51,1.0,3.0,34,0.00,,,0.00,VWS V14.01,2013-06-04 21:01:00,
2013-06-04 17:02:00,72.4,42.5,30.00,NE,51,0.0,3.0,34,0.00,,,0.00,VWS V14.01,2013-06-04 21:02:00,
2013-06-04 17:03:00,72.3,43.1,30.00,NE,51,0.0,3.0,35,0.00,,,0.00,VWS V14.01,2013-06-04 21:03:00,
2013-06-04 17:04:00,72.3,43.1,30.00,NE,51,0.0,3.0,35,0.00,,,0.00,VWS V14.01,2013-06-04 21:04:00,
2013-06-04 17:05:00,72.3,43.1,30.00,NE,51,0.0,3.0,35,0.00,,,0.00,VWS V14.01,2013-06-04 21:05:00,
2013-06-04 17:06:00,72.3,44.6,30.00,ENE,62,0.0,3.0,37,0.00,,,0.00,VWS V14.01,2013-06-04 21:06:00,
2013-06-04 17:07:00,72.2,43.8,30.00,ENE,62,1.0,3.0,36,0.00,,,0.00,VWS V14.01,2013-06-04 21:07:00,
2013-06-04 17:08:00,72.2,43.8,30.00,NW,307,0.0,3.0,36,0.00,,,0.00,VWS V14.01,2013-06-04 21:08:00,
2013-06-04 17:09:00,72.2,44.5,30.00,ESE,106,3.0,4.0,37,0.00,,,0.00,VWS V14.01,2013-06-04 21:09:00,
2013-06-04 17:10:00,72.2,43.1,30.00,ESE,105,0.0,5.0,35,0.00,,,0.00,VWS V14.01,2013-06-04 21:10:00,
2013-06-04 17:11:00,72.0,42.9,30.00,ESE,105,1.0,3.0,35,0.00,,,0.00,VWS V14.01,2013-06-04 21:11:00,
2013-06-04 17:12:00,72.0,43.6,30.00,ESE,105,2.0,3.0,36,0.00,,,0.00,VWS V14.01,2013-06-04 21:12:00,
2013-06-04 17:13:00,72.0,43.6,30.00,NNW,333,1.0,3.0,36,0.00,,,0.00,VWS V14.01,2013-06-04 21:13:00,
2013-06-04 17:14:00,71.9,43.5,30.00,NNE,13,1.0,3.0,36,0.00,,,0.00,VWS V14.01,2013-06-04 21:14:00,
2013-06-04 17:15:00,71.9,44.2,30.01,NNE,15,1.0,3.0,37,0.00,,,0.00,VWS V14.01,2013-06-04 21:15:00,
2013-06-04 17:16:00,71.9,43.5,30.01,NNE,15,1.0,3.0,36,0.00,,,0.00,VWS V14.01,2013-06-04 21:16:00,
2013-06-04 17:17:00,71.9,43.5,30.01,NNE,16,0.0,3.0,36,0.00,,,0.00,VWS V14.01,2013-06-04 21:17:00,
2013-06-04 17:18:00,71.8,44.8,30.01,NNE,16,0.0,3.0,38,0.00,,,0.00,VWS V14.01,2013-06-04 21:18:00,
2013-06-04 17:19:00,71.8,44.8,30.01,NNE,16,0.0,3.0,38,0.00,,,0.00,VWS V14.01,2013-06-04 21:19:00,
2013-06-04 17:20:00,71.8,44.2,30.01,NNE,16,1.0,3.0,37,0.00,,,0.00,VWS V14.01,2013-06-04 21:20:00,
2013-06-04 17:21:00,71.8,44.8,30.01,NNE,17,1.0,2.0,38,0.00,,,0.00,VWS V14.01,2013-06-04 21:21:00,
2013-06-04 17:22:00,71.7,44.8,30.01,NNE,17,0.0,2.0,38,0.00,,,0.00,VWS V14.01,2013-06-04 21:22:00,
2013-06-04 17:23:00,71.7,44.1,30.01,NNE,19,1.0,2.0,37,0.00,,,0.00,VWS V14.01,2013-06-04 21:23:00,
2013-06-04 17:24:00,71.7,44.1,30.01,NNE,19,0.0,2.0,37,0.00,,,0.00,VWS V14.01,2013-06-04 21:24:00,
2013-06-04 17:25:00,71.7,44.8,30.01,NNE,19,1.0,2.0,38,0.00,,,0.00,VWS V14.01,2013-06-04 21:25:00,
2013-06-04 17:26:00,71.6,44.7,30.01,NW,306,0.0,3.0,38,0.00,,,0.00,VWS V14.01,2013-06-04 21:26:00,
2013-06-04 17:27:00,71.6,44.0,30.01,North,349,0.0,3.0,37,0.00,,,0.00,VWS V14.01,2013-06-04 21:27:00,
2013-06-04 17:28:00,71.6,44.0,30.01,North,350,1.0,3.0,37,0.00,,,0.00,VWS V14.01,2013-06-04 21:28:00,
2013-06-04 17:29:00,71.5,43.9,30.01,ENE,77,1.0,3.0,37,0.00,,,0.00,VWS V14.01,2013-06-04 21:29:00,
2013-06-04 17:30:00,71.4,43.8,30.01,ENE,77,0.0,3.0,37,0.00,,,0.00,VWS V14.01,2013-06-04 21:30:00,
2013-06-04 17:31:00,71.3,43.7,30.01,East,92,0.0,3.0,37,0.00,,,0.00,VWS V14.01,2013-06-04 21:31:00,
2013-06-04 17:32:00,71.3,44.4,30.01,NW,306,2.0,3.0,38,0.00,,,0.00,VWS V14.01,2013-06-04 21:32:00,
2013-06-04 17:33:00,71.2,44.3,30.01,WNW,292,4.0,4.0,38,0.00,,,0.00,VWS V14.01,2013-06-04 21:33:00,
2013-06-04 17:34:00,71.2,44.3,30.01,WNW,292,1.0,4.0,38,0.00,,,0.00,VWS V14.01,2013-06-04 21:34:00,
2013-06-04 17:35:00,71.2,45.0,30.01,SSW,209,0.0,4.0,39,0.00,,,0.00,VWS V14.01,2013-06-04 21:35:00,
2013-06-04 17:36:00,71.2,45.0,30.01,WSW,242,0.0,4.0,39,0.00,,,0.00,VWS V14.01,2013-06-04 21:36:00,
2013-06-04 17:37:00,71.1,44.9,30.01,NNW,336,2.0,5.0,39,0.00,,,0.00,VWS V14.01,2013-06-04 21:37:00,
2013-06-04 17:38:00,71.1,44.2,30.01,West,281,0.0,5.0,38,0.00,,,0.00,VWS V14.01,2013-06-04 21:38:00,
2013-06-04 17:39:00,71.0,44.1,30.01,WNW,291,0.0,5.0,38,0.00,,,0.00,VWS V14.01,2013-06-04 21:39:00,
2013-06-04 17:40:00,71.0,44.1,30.01,NNE,30,0.0,5.0,38,0.00,,,0.00,VWS V14.01,2013-06-04 21:40:00,
2013-06-04 17:41:00,71.0,44.8,30.01,NNE,30,0.0,1.0,39,0.00,,,0.00,VWS V14.01,2013-06-04 21:41:00,
2013-06-04 17:42:00,71.0,44.8,30.01,NNE,30,0.0,1.0,39,0.00,,,0.00,VWS V14.01,2013-06-04 21:42:00,
2013-06-04 17:43:00,70.9,45.4,30.01,NNE,30,1.0,1.0,40,0.00,,,0.00,VWS V14.01,2013-06-04 21:43:00,
2013-06-04 17:44:00,70.9,46.0,30.01,NNE,30,0.0,1.0,41,0.00,,,0.00,VWS V14.01,2013-06-04 21:44:00,
2013-06-04 17:45:00,70.9,46.0,30.01,NNE,30,0.0,1.0,41,0.00,,,0.00,VWS V14.01,2013-06-04 21:45:00,
2013-06-04 17:46:00,70.9,46.0,30.01,NNE,30,0.0,1.0,41,0.00,,,0.00,VWS V14.01,2013-06-04 21:46:00,
2013-06-04 17:47:00,70.8,46.0,30.01,NNE,30,0.0,1.0,41,0.00,,,0.00,VWS V14.01,2013-06-04 21:47:00,
2013-06-04 17:48:00,70.8,45.3,30.01,NNE,33,1.0,2.0,40,0.00,,,0.00,VWS V14.01,2013-06-04 21:48:00,
2013-06-04 17:49:00,70.8,44.6,30.01,NNE,33,0.0,2.0,39,0.00,,,0.00,VWS V14.01,2013-06-04 21:49:00,
2013-06-04 17:50:00,70.8,45.3,30.01,NNE,33,1.0,2.0,40,0.00,,,0.00,VWS V14.01,2013-06-04 21:50:00,
2013-06-04 17:51:00,70.7,45.2,30.01,WSW,257,3.0,5.0,40,0.00,,,0.00,VWS V14.01,2013-06-04 21:51:00,
2013-06-04 17:52:00,70.7,45.2,30.01,WNW,294,0.0,5.0,40,0.00,,,0.00,VWS V14.01,2013-06-04 21:52:00,
2013-06-04 17:53:00,70.7,45.2,30.01,West,281,2.0,5.0,40,0.00,,,0.00,VWS V14.01,2013-06-04 21:53:00,
2013-06-04 17:54:00,70.7,46.5,30.01,West,281,0.0,5.0,42,0.00,,,0.00,VWS V14.01,2013-06-04 21:54:00,
2013-06-04 17:55:00,70.6,45.8,30.01,WNW,285,0.0,5.0,41,0.00,,,0.00,VWS V14.01,2013-06-04 21:55:00,
2013-06-04 17:56:00,70.6,45.1,30.01,WNW,282,0.0,5.0,40,0.00,,,0.00,VWS V14.01,2013-06-04 21:56:00,
2013-06-04 17:57:00,70.6,47.0,30.01,WNW,283,0.0,5.0,43,0.00,,,0.00,VWS V14.01,2013-06-04 21:57:00,
2013-06-04 17:58:00,70.6,47.0,30.01,WSW,256,1.0,5.0,43,0.00,,,0.00,VWS V14.01,2013-06-04 21:58:00,
2013-06-04 17:59:00,70.6,46.4,30.01,WSW,240,1.0,5.0,42,0.00,,,0.00,VWS V14.01,2013-06-04 21:59:00,
2013-06-04 18:00:00,70.5,45.7,30.01,WNW,283,0.0,5.0,41,0.00,,,0.00,VWS V14.01,2013-06-04 22:00:00,
2013-06-04 18:01:00,70.5,46.3,30.01,WNW,282,0.0,1.0,42,0.00,,,0.00,VWS V14.01,2013-06-04 22:01:00,
2013-06-04 18:02:00,70.5,46.3,30.01,WNW,282,1.0,1.0,42,0.00,,,0.00,VWS V14.01,2013-06-04 22:02:00,
2013-06-04 18:03:00,70.5,46.3,30.01,WNW,282,1.0,1.0,42,0.00,,,0.00,VWS V14.01,2013-06-04 22:03:00,
2013-06-04 18:04:00,70.4,46.2,30.01,WNW,282,0.0,3.0,42,0.00,,,0.00,VWS V14.01,2013-06-04 22:04:00,
2013-06-04 18:05:00,70.4,46.2,30.01,WNW,282,0.0,3.0,42,0.00,,,0.00,VWS V14.01,2013-06-04 22:05:00,
2013-06-04 18:06:00,70.4,46.9,30.01,WNW,282,0.0,3.0,43,0.00,,,0.00,VWS V14.01,2013-06-04 22:06:00,
2013-06-04 18:07:00,70.4,46.9,30.01,NE,43,2.0,3.0,43,0.00,,,0.00,VWS V14.01,2013-06-04 22:07:00,
2013-06-04 18:08:00,70.3,45.5,30.01,NNE,19,2.0,4.0,41,0.00,,,0.00,VWS V14.01,2013-06-04 22:08:00,
2013-06-04 18:09:00,70.2,45.4,30.01,NNE,19,0.0,4.0,41,0.00,,,0.00,VWS V14.01,2013-06-04 22:09:00,
2013-06-04 18:10:00,70.2,45.4,30.01,North,5,3.0,4.0,41,0.00,,,0.00,VWS V14.01,2013-06-04 22:10:00,
2013-06-04 18:11:00,70.2,45.4,30.01,North,11,0.0,2.0,41,0.00,,,0.00,VWS V14.01,2013-06-04 22:11:00,
2013-06-04 18:12:00,70.1,45.3,30.01,North,11,0.0,2.0,41,0.00,,,0.00,VWS V14.01,2013-06-04 22:12:00,
2013-06-04 18:13:00,70.1,45.3,30.01,North,11,0.0,2.0,41,0.00,,,0.00,VWS V14.01,2013-06-04 22:13:00,
2013-06-04 18:14:00,70.1,46.0,30.01,East,80,0.0,2.0,42,0.00,,,0.00,VWS V14.01,2013-06-04 22:14:00,
2013-06-04 18:15:00,70.0,45.2,30.01,East,80,0.0,2.0,41,0.00,,,0.00,VWS V14.01,2013-06-04 22:15:00,
2013-06-04 18:16:00,70.0,45.2,30.01,ESE,107,0.0,2.0,41,0.00,,,0.00,VWS V14.01,2013-06-04 22:16:00,
2013-06-04 18:17:00,70.0,45.2,30.01,NW,315,0.0,4.0,41,0.00,,,0.00,VWS V14.01,2013-06-04 22:17:00,
2013-06-04 18:18:00,69.9,45.2,30.01,NW,314,0.0,4.0,41,0.00,,,0.00,VWS V14.01,2013-06-04 22:18:00,
2013-06-04 18:19:00,69.9,45.2,30.01,NW,307,0.0,4.0,41,0.00,,,0.00,VWS V14.01,2013-06-04 22:19:00,
2013-06-04 18:20:00,69.9,45.8,30.01,NW,309,1.0,4.0,42,0.00,,,0.00,VWS V14.01,2013-06-04 22:20:00,
2013-06-04 18:21:00,69.8,45.1,30.01,NNE,22,1.0,1.0,41,0.00,,,0.00,VWS V14.01,2013-06-04 22:21:00,
2013-06-04 18:22:00,69.8,45.1,30.01,NE,45,3.0,3.0,41,0.00,,,0.00,VWS V14.01,2013-06-04 22:22:00,
2013-06-04 18:23:00,69.8,44.4,30.01,NE,46,0.0,3.0,40,0.00,,,0.00,VWS V14.01,2013-06-04 22:23:00,
2013-06-04 18:24:00,69.7,44.3,30.01,NE,46,0.0,3.0,40,0.00,,,0.00,VWS V14.01,2013-06-04 22:24:00,
2013-06-04 18:25:00,69.7,44.3,30.01,NE,46,0.0,3.0,40,0.00,,,0.00,VWS V14.01,2013-06-04 22:25:00,
2013-06-04 18:26:00,69.7,44.3,30.01,NE,45,0.0,3.0,40,0.00,,,0.00,VWS V14.01,2013-06-04 22:26:00,
2013-06-04 18:27:00,69.7,45.0,30.01,NE,46,1.0,3.0,41,0.00,,,0.00,VWS V14.01,2013-06-04 22:27:00,
2013-06-04 18:28:00,69.6,43.6,30.01,NE,34,1.0,3.0,39,0.00,,,0.00,VWS V14.01,2013-06-04 22:28:00,
2013-06-04 18:29:00,69.6,43.6,30.01,NNE,30,0.0,3.0,39,0.00,,,0.00,VWS V14.01,2013-06-04 22:29:00,
2013-06-04 18:30:00,69.5,43.5,30.02,NNE,18,0.0,3.0,39,0.00,,,0.00,VWS V14.01,2013-06-04 22:30:00,
2013-06-04 18:31:00,69.5,43.5,30.02,NNE,18,0.0,0.0,39,0.00,,,0.00,VWS V14.01,2013-06-04 22:31:00,
2013-06-04 18:32:00,69.5,43.5,30.02,NNE,18,0.0,0.0,39,0.00,,,0.00,VWS V14.01,2013-06-04 22:32:00,
2013-06-04 18:33:00,69.5,43.5,30.02,NNE,22,0.0,2.0,39,0.00,,,0.00,VWS V14.01,2013-06-04 22:33:00,
2013-06-04 18:34:00,69.5,44.2,30.02,NNE,22,0.0,2.0,40,0.00,,,0.00,VWS V14.01,2013-06-04 22:34:00,
2013-06-04 18:35:00,69.5,44.8,30.02,NNW,334,0.0,2.0,41,0.00,,,0.00,VWS V14.01,2013-06-04 22:35:00,
2013-06-04 18:36:00,69.4,44.1,30.02,NNE,26,1.0,2.0,40,0.00,,,0.00,VWS V14.01,2013-06-04 22:36:00,
2013-06-04 18:37:00,69.4,44.1,30.02,ENE,69,2.0,3.0,40,0.00,,,0.00,VWS V14.01,2013-06-04 22:37:00,
2013-06-04 18:38:00,69.3,43.3,30.02,ENE,69,2.0,3.0,39,0.00,,,0.00,VWS V14.01,2013-06-04 22:38:00,
2013-06-04 18:39:00,69.3,44.0,30.02,ENE,69,0.0,3.0,40,0.00,,,0.00,VWS V14.01,2013-06-04 22:39:00,
2013-06-04 18:40:00,69.3,43.3,30.02,ENE,73,0.0,3.0,39,0.00,,,0.00,VWS V14.01,2013-06-04 22:40:00,
2013-06-04 18:41:00,69.2,43.9,30.02,ENE,73,0.0,0.0,40,0.00,,,0.00,VWS V14.01,2013-06-04 22:41:00,
2013-06-04 18:42:00,69.2,44.5,30.02,ENE,73,1.0,1.0,41,0.00,,,0.00,VWS V14.01,2013-06-04 22:42:00,
2013-06-04 18:43:00,69.2,44.5,30.02,ENE,73,0.0,2.0,41,0.00,,,0.00,VWS V14.01,2013-06-04 22:43:00,
2013-06-04 18:44:00,69.2,44.5,30.02,WNW,294,0.0,4.0,41,0.00,,,0.00,VWS V14.01,2013-06-04 22:44:00,
2013-06-04 18:45:00,69.1,43.8,30.02,North,5,3.0,6.0,40,0.00,,,0.00,VWS V14.01,2013-06-04 22:45:00,
2013-06-04 18:46:00,69.1,43.1,30.02,NNE,22,0.0,6.0,39,0.00,,,0.00,VWS V14.01,2013-06-04 22:46:00,
2013-06-04 18:47:00,69.0,43.7,30.02,NNE,22,0.0,6.0,40,0.00,,,0.00,VWS V14.01,2013-06-04 22:47:00,
2013-06-04 18:48:00,69.0,43.7,30.02,NNE,22,2.0,6.0,40,0.00,,,0.00,VWS V14.01,2013-06-04 22:48:00,
2013-06-04 18:49:00,69.0,44.3,30.02,NNE,22,0.0,6.0,41,0.00,,,0.00,VWS V14.01,2013-06-04 22:49:00,
2013-06-04 18:50:00,69.0,44.3,30.02,NE,43,0.0,6.0,41,0.00,,,0.00,VWS V14.01,2013-06-04 22:50:00,
2013-06-04 18:51:00,68.9,44.9,30.02,NE,43,0.0,0.0,42,0.00,,,0.00,VWS V14.01,2013-06-04 22:51:00,
2013-06-04 18:52:00,68.9,45.5,30.02,NE,43,0.0,0.0,43,0.00,,,0.00,VWS V14.01,2013-06-04 22:52:00,
2013-06-04 18:53:00,68.9,45.5,30.02,NE,43,0.0,0.0,43,0.00,,,0.00,VWS V14.01,2013-06-04 22:53:00,
2013-06-04 18:54:00,68.9,45.5,30.02,NE,43,0.0,1.0,43,0.00,,,0.00,VWS V14.01,2013-06-04 22:54:00,
2013-06-04 18:55:00,68.8,44.8,30.02,NE,43,0.0,1.0,42,0.00,,,0.00,VWS V14.01,2013-06-04 22:55:00,
2013-06-04 18:56:00,68.8,45.4,30.02,NE,43,0.0,1.0,43,0.00,,,0.00,VWS V14.01,2013-06-04 22:56:00,
2013-06-04 18:57:00,68.7,44.7,30.02,NE,43,0.0,1.0,42,0.00,,,0.00,VWS V14.01,2013-06-04 22:57:00,
2013-06-04 18:58:00,68.7,44.7,30.02,NE,42,0.0,1.0,42,0.00,,,0.00,VWS V14.01,2013-06-04 22:58:00,
2013-06-04 18:59:00,68.6,44.6,30.02,NE,42,0.0,1.0,42,0.00,,,0.00,VWS V14.01,2013-06-04 22:59:00,
2013-06-04 19:00:00,68.6,44.6,30.03,NE,43,0.0,2.0,42,0.00,,,0.00,VWS V14.01,2013-06-04 23:00:00,
2013-06-04 19:01:00,68.6,45.2,30.03,NE,43,0.0,0.0,43,0.00,,,0.00,VWS V14.01,2013-06-04 23:01:00,
2013-06-04 19:02:00,68.5,45.1,30.03,NW,307,2.0,4.0,43,0.00,,,0.00,VWS V14.01,2013-06-04 23:02:00,
2013-06-04 19:03:00,68.5,44.5,30.03,NW,305,0.0,4.0,42,0.00,,,0.00,VWS V14.01,2013-06-04 23:03:00,
2013-06-04 19:04:00,68.5,44.5,30.03,NW,306,0.0,4.0,42,0.00,,,0.00,VWS V14.01,2013-06-04 23:04:00,
2013-06-04 19:05:00,68.4,44.4,30.03,NW,306,0.0,4.0,42,0.00,,,0.00,VWS V14.01,2013-06-04 23:05:00,
2013-06-04 19:06:00,68.4,45.0,30.03,NW,305,0.0,4.0,43,0.00,,,0.00,VWS V14.01,2013-06-04 23:06:00,
2013-06-04 19:07:00,68.4,45.0,30.03,NW,305,0.0,4.0,43,0.00,,,0.00,VWS V14.01,2013-06-04 23:07:00,
2013-06-04 19:08:00,68.3,45.6,30.03,NW,305,0.0,4.0,44,0.00,,,0.00,VWS V14.01,2013-06-04 23:08:00,
2013-06-04 19:09:00,68.3,46.2,30.03,NW,305,0.0,4.0,45,0.00,,,0.00,VWS V14.01,2013-06-04 23:09:00,
2013-06-04 19:10:00,68.3,46.2,30.03,WNW,288,2.0,4.0,45,0.00,,,0.00,VWS V14.01,2013-06-04 23:10:00,
2013-06-04 19:11:00,68.2,45.5,30.03,WNW,288,0.0,0.0,44,0.00,,,0.00,VWS V14.01,2013-06-04 23:11:00,
2013-06-04 19:12:00,68.1,45.4,30.03,WNW,288,0.0,0.0,44,0.00,,,0.00,VWS V14.01,2013-06-04 23:12:00,
2013-06-04 19:13:00,68.1,45.4,30.03,WNW,288,0.0,0.0,44,0.00,,,0.00,VWS V14.01,2013-06-04 23:13:00,
2013-06-04 19:14:00,68.1,45.4,30.03,WNW,288,0.0,0.0,44,0.00,,,0.00,VWS V14.01,2013-06-04 23:14:00,
2013-06-04 19:15:00,68.0,45.9,30.04,WNW,288,0.0,0.0,45,0.00,,,0.00,VWS V14.01,2013-06-04 23:15:00,
2013-06-04 19:16:00,68.0,46.5,30.04,WNW,288,0.0,1.0,46,0.00,,,0.00,VWS V14.01,2013-06-04 23:16:00,
2013-06-04 19:17:00,68.0,45.9,30.04,WNW,288,0.0,1.0,45,0.00,,,0.00,VWS V14.01,2013-06-04 23:17:00,
2013-06-04 19:18:00,67.9,45.8,30.04,WNW,288,0.0,1.0,45,0.00,,,0.00,VWS V14.01,2013-06-04 23:18:00,
2013-06-04 19:19:00,67.9,46.4,30.04,WNW,288,0.0,1.0,46,0.00,,,0.00,VWS V14.01,2013-06-04 23:19:00,
2013-06-04 19:20:00,67.9,45.8,30.04,WNW,288,0.0,1.0,45,0.00,,,0.00,VWS V14.01,2013-06-04 23:20:00,
2013-06-04 19:21:00,67.9,46.4,30.04,WNW,288,0.0,0.0,46,0.00,,,0.00,VWS V14.01,2013-06-04 23:21:00,
2013-06-04 19:22:00,67.8,45.7,30.04,WNW,288,0.0,0.0,45,0.00,,,0.00,VWS V14.01,2013-06-04 23:22:00,
2013-06-04 19:23:00,67.8,45.7,30.04,WNW,288,0.0,0.0,45,0.00,,,0.00,VWS V14.01,2013-06-04 23:23:00,
2013-06-04 19:24:00,67.7,46.2,30.04,WNW,288,0.0,0.0,46,0.00,,,0.00,VWS V14.01,2013-06-04 23:24:00,
2013-06-04 19:25:00,67.7,46.2,30.04,WNW,288,0.0,0.0,46,0.00,,,0.00,VWS V14.01,2013-06-04 23:25:00,
2013-06-04 19:26:00,67.6,46.1,30.04,WNW,288,0.0,0.0,46,0.00,,,0.00,VWS V14.01,2013-06-04 23:26:00,
2013-06-04 19:27:00,67.6,46.1,30.04,WNW,288,0.0,0.0,46,0.00,,,0.00,VWS V14.01,2013-06-04 23:27:00,
2013-06-04 19:28:00,67.6,46.1,30.04,WNW,288,0.0,0.0,46,0.00,,,0.00,VWS V14.01,2013-06-04 23:28:00,
2013-06-04 19:29:00,67.5,46.6,30.04,WNW,288,0.0,0.0,47,0.00,,,0.00,VWS V14.01,2013-06-04 23:29:00,
2013-06-04 19:30:00,67.5,47.1,30.04,WNW,288,0.0,0.0,48,0.00,,,0.00,VWS V14.01,2013-06-04 23:30:00,
2013-06-04 19:31:00,67.4,47.0,30.04,WNW,288,0.0,0.0,48,0.00,,,0.00,VWS V14.01,2013-06-04 23:31:00,
2013-06-04 19:32:00,67.4,47.0,30.04,WNW,288,0.0,0.0,48,0.00,,,0.00,VWS V14.01,2013-06-04 23:32:00,
2013-06-04 19:33:00,67.3,47.0,30.04,WNW,288,0.0,0.0,48,0.00,,,0.00,VWS V14.01,2013-06-04 23:33:00,
2013-06-04 19:34:00,67.3,47.0,30.04,WNW,288,0.0,0.0,48,0.00,,,0.00,VWS V14.01,2013-06-04 23:34:00,
2013-06-04 19:35:00,67.2,46.9,30.04,North,360,0.0,2.0,48,0.00,,,0.00,VWS V14.01,2013-06-04 23:35:00,
2013-06-04 19:36:00,67.0,46.1,30.04,North,360,0.0,2.0,47,0.00,,,0.00,VWS V14.01,2013-06-04 23:36:00,
2013-06-04 19:37:00,67.0,46.1,30.04,North,360,0.0,2.0,47,0.00,,,0.00,VWS V14.01,2013-06-04 23:37:00,
2013-06-04 19:38:00,66.9,46.6,30.04,North,360,0.0,2.0,48,0.00,,,0.00,VWS V14.01,2013-06-04 23:38:00,
2013-06-04 19:39:00,66.8,47.0,30.04,North,360,0.0,2.0,49,0.00,,,0.00,VWS V14.01,2013-06-04 23:39:00,
2013-06-04 19:40:00,66.7,47.0,30.04,North,360,0.0,2.0,49,0.00,,,0.00,VWS V14.01,2013-06-04 23:40:00,
2013-06-04 19:41:00,66.6,46.9,30.04,North,5,0.0,1.0,49,0.00,,,0.00,VWS V14.01,2013-06-04 23:41:00,
2013-06-04 19:42:00,66.5,47.3,30.04,North,9,0.0,1.0,50,0.00,,,0.00,VWS V14.01,2013-06-04 23:42:00,
2013-06-04 19:43:00,66.3,46.6,30.04,North,5,0.0,1.0,49,0.00,,,0.00,VWS V14.01,2013-06-04 23:43:00,
2013-06-04 19:44:00,66.3,47.1,30.04,North,5,0.0,1.0,50,0.00,,,0.00,VWS V14.01,2013-06-04 23:44:00,
2013-06-04 19:45:00,66.2,47.0,30.04,North,5,0.0,1.0,50,0.00,,,0.00,VWS V14.01,2013-06-04 23:45:00,
2013-06-04 19:46:00,66.1,47.5,30.04,North,5,0.0,1.0,51,0.00,,,0.00,VWS V14.01,2013-06-04 23:46:00,
2013-06-04 19:47:00,66.0,47.9,30.04,North,9,1.0,1.0,52,0.00,,,0.00,VWS V14.01,2013-06-04 23:47:00,
2013-06-04 19:48:00,65.9,47.8,30.04,North,9,0.0,1.0,52,0.00,,,0.00,VWS V14.01,2013-06-04 23:48:00,
2013-06-04 19:49:00,65.8,48.2,30.04,North,9,0.0,1.0,53,0.00,,,0.00,VWS V14.01,2013-06-04 23:49:00,
2013-06-04 19:50:00,65.8,48.2,30.04,North,9,0.0,1.0,53,0.00,,,0.00,VWS V14.01,2013-06-04 23:50:00,
2013-06-04 19:51:00,65.7,47.6,30.04,North,9,0.0,0.0,52,0.00,,,0.00,VWS V14.01,2013-06-04 23:51:00,
2013-06-04 19:52:00,65.7,47.1,30.04,North,9,0.0,0.0,51,0.00,,,0.00,VWS V14.01,2013-06-04 23:52:00,
2013-06-04 19:53:00,65.6,47.0,30.04,North,9,0.0,0.0,51,0.00,,,0.00,VWS V14.01,2013-06-04 23:53:00,
2013-06-04 19:54:00,65.6,47.0,30.04,North,9,0.0,0.0,51,0.00,,,0.00,VWS V14.01,2013-06-04 23:54:00,
2013-06-04 19:55:00,65.6,46.5,30.04,North,9,1.0,1.0,50,0.00,,,0.00,VWS V14.01,2013-06-04 23:55:00,
2013-06-04 19:56:00,65.5,46.9,30.04,North,9,0.0,1.0,51,0.00,,,0.00,VWS V14.01,2013-06-04 23:56:00,
2013-06-04 19:57:00,65.5,46.9,30.04,North,9,0.0,1.0,51,0.00,,,0.00,VWS V14.01,2013-06-04 23:57:00,
2013-06-04 19:58:00,65.4,46.8,30.04,North,9,0.0,1.0,51,0.00,,,0.00,VWS V14.01,2013-06-04 23:58:00,
2013-06-04 19:59:00,65.4,46.8,30.04,North,9,0.0,1.0,51,0.00,,,0.00,VWS V14.01,2013-06-04 23:59:00,
2013-06-04 20:00:00,65.3,46.2,30.04,North,9,0.0,1.0,50,0.00,,,0.00,VWS V14.01,2013-06-05 00:00:00,
2013-06-04 20:01:00,65.2,46.6,30.04,North,9,0.0,0.0,51,0.00,,,0.00,VWS V14.01,2013-06-05 00:01:00,
2013-06-04 20:02:00,65.2,46.6,30.04,North,9,0.0,0.0,51,0.00,,,0.00,VWS V14.01,2013-06-05 00:02:00,
2013-06-04 20:03:00,65.1,46.5,30.04,North,9,0.0,0.0,51,0.00,,,0.00,VWS V14.01,2013-06-05 00:03:00,
2013-06-04 20:04:00,65.0,46.5,30.04,North,9,0.0,0.0,51,0.00,,,0.00,VWS V14.01,2013-06-05 00:04:00,
2013-06-04 20:05:00,65.0,46.5,30.04,North,9,0.0,0.0,51,0.00,,,0.00,VWS V14.01,2013-06-05 00:05:00,
2013-06-04 20:06:00,64.9,46.4,30.04,North,9,0.0,0.0,51,0.00,,,0.00,VWS V14.01,2013-06-05 00:06:00,
2013-06-04 20:07:00,64.9,46.4,30.04,North,9,0.0,0.0,51,0.00,,,0.00,VWS V14.01,2013-06-05 00:07:00,
2013-06-04 20:08:00,64.9,46.4,30.04,North,9,0.0,0.0,51,0.00,,,0.00,VWS V14.01,2013-06-05 00:08:00,
2013-06-04 20:09:00,64.8,46.3,30.04,North,9,0.0,0.0,51,0.00,,,0.00,VWS V14.01,2013-06-05 00:09:00,
2013-06-04 20:10:00,64.8,46.3,30.04,North,9,0.0,0.0,51,0.00,,,0.00,VWS V14.01,2013-06-05 00:10:00,
2013-06-04 20:11:00,64.7,46.7,30.04,North,9,0.0,0.0,52,0.00,,,0.00,VWS V14.01,2013-06-05 00:11:00,
2013-06-04 20:12:00,64.7,46.7,30.04,North,9,0.0,0.0,52,0.00,,,0.00,VWS V14.01,2013-06-05 00:12:00,
2013-06-04 20:13:00,64.6,46.6,30.04,North,9,0.0,0.0,52,0.00,,,0.00,VWS V14.01,2013-06-05 00:13:00,
2013-06-04 20:14:00,64.6,46.6,30.04,North,9,0.0,0.0,52,0.00,,,0.00,VWS V14.01,2013-06-05 00:14:00,
2013-06-04 20:15:00,64.5,46.0,30.05,North,9,0.0,0.0,51,0.00,,,0.00,VWS V14.01,2013-06-05 00:15:00,
2013-06-04 20:16:00,64.4,45.9,30.05,North,9,0.0,0.0,51,0.00,,,0.00,VWS V14.01,2013-06-05 00:16:00,
2013-06-04 20:17:00,64.4,46.4,30.05,North,9,0.0,0.0,52,0.00,,,0.00,VWS V14.01,2013-06-05 00:17:00,
2013-06-04 20:18:00,64.3,47.3,30.05,North,9,0.0,0.0,54,0.00,,,0.00,VWS V14.01,2013-06-05 00:18:00,
2013-06-04 20:19:00,64.3,47.3,30.05,North,9,0.0,0.0,54,0.00,,,0.00,VWS V14.01,2013-06-05 00:19:00,
2013-06-04 20:20:00,64.2,46.7,30.05,North,9,0.0,0.0,53,0.00,,,0.00,VWS V14.01,2013-06-05 00:20:00,
2013-06-04 20:21:00,64.1,46.6,30.05,North,9,0.0,0.0,53,0.00,,,0.00,VWS V14.01,2013-06-05 00:21:00,
2013-06-04 20:22:00,64.1,46.6,30.05,North,9,0.0,0.0,53,0.00,,,0.00,VWS V14.01,2013-06-05 00:22:00,
2013-06-04 20:23:00,64.0,47.0,30.05,North,9,0.0,0.0,54,0.00,,,0.00,VWS V14.01,2013-06-05 00:23:00,
2013-06-04 20:24:00,64.0,46.5,30.05,North,9,0.0,0.0,53,0.00,,,0.00,VWS V14.01,2013-06-05 00:24:00,
2013-06-04 20:25:00,63.9,46.5,30.05,North,9,0.0,0.0,53,0.00,,,0.00,VWS V14.01,2013-06-05 00:25:00,
2013-06-04 20:26:00,63.8,46.8,30.05,North,9,0.0,0.0,54,0.00,,,0.00,VWS V14.01,2013-06-05 00:26:00,
2013-06-04 20:27:00,63.7,46.8,30.05,North,9,0.0,0.0,54,0.00,,,0.00,VWS V14.01,2013-06-05 00:27:00,
2013-06-04 20:28:00,63.7,46.8,30.05,North,9,0.0,0.0,54,0.00,,,0.00,VWS V14.01,2013-06-05 00:28:00,
2013-06-04 20:29:00,63.6,46.7,30.05,North,9,0.0,0.0,54,0.00,,,0.00,VWS V14.01,2013-06-05 00:29:00,
2013-06-04 20:30:00,63.5,46.6,30.06,North,9,0.0,0.0,54,0.00,,,0.00,VWS V14.01,2013-06-05 00:30:00,
2013-06-04 20:31:00,63.4,47.0,30.06,North,9,0.0,0.0,55,0.00,,,0.00,VWS V14.01,2013-06-05 00:31:00,
2013-06-04 20:32:00,63.4,47.5,30.06,North,9,0.0,0.0,56,0.00,,,0.00,VWS V14.01,2013-06-05 00:32:00,
2013-06-04 20:33:00,63.3,47.3,30.06,North,9,0.0,0.0,56,0.00,,,0.00,VWS V14.01,2013-06-05 00:33:00,
2013-06-04 20:34:00,63.2,47.3,30.06,North,9,0.0,0.0,56,0.00,,,0.00,VWS V14.01,2013-06-05 00:34:00,
2013-06-04 20:35:00,63.1,47.2,30.06,North,9,0.0,0.0,56,0.00,,,0.00,VWS V14.01,2013-06-05 00:35:00,
2013-06-04 20:36:00,63.0,47.1,30.06,North,9,0.0,0.0,56,0.00,,,0.00,VWS V14.01,2013-06-05 00:36:00,
2013-06-04 20:37:00,62.9,47.5,30.06,North,9,0.0,0.0,57,0.00,,,0.00,VWS V14.01,2013-06-05 00:37:00,
2013-06-04 20:38:00,62.8,47.4,30.06,North,9,0.0,0.0,57,0.00,,,0.00,VWS V14.01,2013-06-05 00:38:00,
2013-06-04 20:39:00,62.8,47.4,30.06,North,9,0.0,0.0,57,0.00,,,0.00,VWS V14.01,2013-06-05 00:39:00,
2013-06-04 20:40:00,62.7,47.3,30.06,North,9,0.0,0.0,57,0.00,,,0.00,VWS V14.01,2013-06-05 00:40:00,
2013-06-04 20:41:00,62.6,47.2,30.06,North,9,0.0,0.0,57,0.00,,,0.00,VWS V14.01,2013-06-05 00:41:00,
2013-06-04 20:42:00,62.6,47.2,30.06,North,9,0.0,0.0,57,0.00,,,0.00,VWS V14.01,2013-06-05 00:42:00,
2013-06-04 20:43:00,62.5,47.1,30.06,North,9,0.0,0.0,57,0.00,,,0.00,VWS V14.01,2013-06-05 00:43:00,
2013-06-04 20:44:00,62.4,47.0,30.06,North,9,0.0,0.0,57,0.00,,,0.00,VWS V14.01,2013-06-05 00:44:00,
2013-06-04 20:45:00,62.3,46.9,30.07,North,9,0.0,0.0,57,0.00,,,0.00,VWS V14.01,2013-06-05 00:45:00,
2013-06-04 20:46:00,62.2,47.3,30.07,North,9,0.0,0.0,58,0.00,,,0.00,VWS V14.01,2013-06-05 00:46:00,
2013-06-04 20:47:00,62.0,46.6,30.07,North,9,0.0,0.0,57,0.00,,,0.00,VWS V14.01,2013-06-05 00:47:00,
2013-06-04 20:48:00,61.9,46.5,30.07,North,9,0.0,0.0,57,0.00,,,0.00,VWS V14.01,2013-06-05 00:48:00,
2013-06-04 20:49:00,61.8,46.4,30.07,North,9,0.0,0.0,57,0.00,,,0.00,VWS V14.01,2013-06-05 00:49:00,
2013-06-04 20:50:00,61.6,46.7,30.07,North,9,0.0,0.0,58,0.00,,,0.00,VWS V14.01,2013-06-05 00:50:00,
2013-06-04 20:51:00,61.5,47.1,30.07,North,9,0.0,0.0,59,0.00,,,0.00,VWS V14.01,2013-06-05 00:51:00,
2013-06-04 20:52:00,61.4,47.0,30.07,North,9,0.0,0.0,59,0.00,,,0.00,VWS V14.01,2013-06-05 00:52:00,
2013-06-04 20:53:00,61.4,47.0,30.07,North,9,0.0,0.0,59,0.00,,,0.00,VWS V14.01,2013-06-05 00:53:00,
2013-06-04 20:54:00,61.3,46.9,30.07,North,9,0.0,0.0,59,0.00,,,0.00,VWS V14.01,2013-06-05 00:54:00,
2013-06-04 20:55:00,61.2,46.8,30.07,North,9,0.0,0.0,59,0.00,,,0.00,VWS V14.01,2013-06-05 00:55:00,
2013-06-04 20:56:00,61.1,46.7,30.07,North,9,0.0,0.0,59,0.00,,,0.00,VWS V14.01,2013-06-05 00:56:00,
2013-06-04 20:57:00,61.1,46.7,30.07,North,9,0.0,0.0,59,0.00,,,0.00,VWS V14.01,2013-06-05 00:57:00,
2013-06-04 20:58:00,61.1,47.1,30.07,North,9,0.0,0.0,60,0.00,,,0.00,VWS V14.01,2013-06-05 00:58:00,
2013-06-04 20:59:00,61.0,46.6,30.07,North,9,0.0,0.0,59,0.00,,,0.00,VWS V14.01,2013-06-05 00:59:00,
2013-06-04 21:00:00,61.0,47.0,30.08,North,9,0.0,0.0,60,0.00,,,0.00,VWS V14.01,2013-06-05 01:00:00,
2013-06-04 21:01:00,61.0,47.0,30.08,North,9,0.0,0.0,60,0.00,,,0.00,VWS V14.01,2013-06-05 01:01:00,
2013-06-04 21:02:00,60.9,46.5,30.08,North,9,0.0,0.0,59,0.00,,,0.00,VWS V14.01,2013-06-05 01:02:00,
2013-06-04 21:03:00,60.9,46.9,30.08,North,9,0.0,0.0,60,0.00,,,0.00,VWS V14.01,2013-06-05 01:03:00,
2013-06-04 21:04:00,60.9,46.9,30.08,North,9,0.0,0.0,60,0.00,,,0.00,VWS V14.01,2013-06-05 01:04:00,
2013-06-04 21:05:00,60.9,46.5,30.08,North,9,0.0,0.0,59,0.00,,,0.00,VWS V14.01,2013-06-05 01:05:00,
2013-06-04 21:06:00,60.9,46.5,30.08,North,9,0.0,0.0,59,0.00,,,0.00,VWS V14.01,2013-06-05 01:06:00,
2013-06-04 21:07:00,60.8,46.4,30.08,North,9,0.0,0.0,59,0.00,,,0.00,VWS V14.01,2013-06-05 01:07:00,
2013-06-04 21:08:00,60.8,46.4,30.08,North,9,0.0,0.0,59,0.00,,,0.00,VWS V14.01,2013-06-05 01:08:00,
2013-06-04 21:09:00,60.7,46.3,30.08,North,9,0.0,0.0,59,0.00,,,0.00,VWS V14.01,2013-06-05 01:09:00,
2013-06-04 21:10:00,60.7,46.3,30.08,North,9,0.0,0.0,59,0.00,,,0.00,VWS V14.01,2013-06-05 01:10:00,
2013-06-04 21:11:00,60.7,46.3,30.08,North,9,0.0,0.0,59,0.00,,,0.00,VWS V14.01,2013-06-05 01:11:00,
2013-06-04 21:12:00,60.6,46.2,30.08,North,9,0.0,0.0,59,0.00,,,0.00,VWS V14.01,2013-06-05 01:12:00,
2013-06-04 21:13:00,60.6,45.8,30.08,North,9,0.0,0.0,58,0.00,,,0.00,VWS V14.01,2013-06-05 01:13:00,
2013-06-04 21:14:00,60.5,45.7,30.08,North,9,0.0,0.0,58,0.00,,,0.00,VWS V14.01,2013-06-05 01:14:00,
2013-06-04 21:15:00,60.5,45.7,30.09,North,9,0.0,0.0,58,0.00,,,0.00,VWS V14.01,2013-06-05 01:15:00,
2013-06-04 21:16:00,60.5,45.7,30.09,North,9,0.0,0.0,58,0.00,,,0.00,VWS V14.01,2013-06-05 01:16:00,
2013-06-04 21:17:00,60.4,46.5,30.09,North,9,0.0,0.0,60,0.00,,,0.00,VWS V14.01,2013-06-05 01:17:00,
2013-06-04 21:18:00,60.3,47.2,30.09,North,9,0.0,0.0,62,0.00,,,0.00,VWS V14.01,2013-06-05 01:18:00,
2013-06-04 21:19:00,60.3,47.2,30.09,North,9,0.0,0.0,62,0.00,,,0.00,VWS V14.01,2013-06-05 01:19:00,
2013-06-04 21:20:00,60.2,47.6,30.09,North,9,0.0,0.0,63,0.00,,,0.00,VWS V14.01,2013-06-05 01:20:00,
2013-06-04 21:21:00,60.2,47.6,30.09,North,9,0.0,0.0,63,0.00,,,0.00,VWS V14.01,2013-06-05 01:21:00,
2013-06-04 21:22:00,60.1,47.5,30.09,North,9,0.0,0.0,63,0.00,,,0.00,VWS V14.01,2013-06-05 01:22:00,
2013-06-04 21:23:00,60.1,47.0,30.09,North,9,0.0,0.0,62,0.00,,,0.00,VWS V14.01,2013-06-05 01:23:00,
2013-06-04 21:24:00,60.0,47.0,30.09,North,9,0.0,0.0,62,0.00,,,0.00,VWS V14.01,2013-06-05 01:24:00,
2013-06-04 21:25:00,60.0,47.0,30.09,North,9,0.0,0.0,62,0.00,,,0.00,VWS V14.01,2013-06-05 01:25:00,
2013-06-04 21:26:00,59.9,46.9,30.09,North,9,0.0,0.0,62,0.00,,,0.00,VWS V14.01,2013-06-05 01:26:00,
2013-06-04 21:27:00,59.9,46.9,30.09,North,9,0.0,0.0,62,0.00,,,0.00,VWS V14.01,2013-06-05 01:27:00,
2013-06-04 21:28:00,59.8,46.8,30.09,North,9,0.0,0.0,62,0.00,,,0.00,VWS V14.01,2013-06-05 01:28:00,
2013-06-04 21:29:00,59.8,46.8,30.09,North,9,0.0,0.0,62,0.00,,,0.00,VWS V14.01,2013-06-05 01:29:00,
2013-06-04 21:30:00,59.8,47.6,30.09,North,9,0.0,0.0,64,0.00,,,0.00,VWS V14.01,2013-06-05 01:30:00,
2013-06-04 21:31:00,59.7,47.1,30.09,North,9,0.0,0.0,63,0.00,,,0.00,VWS V14.01,2013-06-05 01:31:00,
2013-06-04 21:32:00,59.7,47.1,30.09,North,9,0.0,0.0,63,0.00,,,0.00,VWS V14.01,2013-06-05 01:32:00,
2013-06-04 21:33:00,59.7,47.1,30.09,North,9,0.0,0.0,63,0.00,,,0.00,VWS V14.01,2013-06-05 01:33:00,
2013-06-04 21:34:00,59.6,47.0,30.09,North,9,0.0,0.0,63,0.00,,,0.00,VWS V14.01,2013-06-05 01:34:00,
2013-06-04 21:35:00,59.6,47.0,30.09,North,9,0.0,0.0,63,0.00,,,0.00,VWS V14.01,2013-06-05 01:35:00,
2013-06-04 21:36:00,59.5,46.9,30.09,North,9,0.0,0.0,63,0.00,,,0.00,VWS V14.01,2013-06-05 01:36:00,
2013-06-04 21:37:00,59.5,46.9,30.09,North,9,0.0,0.0,63,0.00,,,0.00,VWS V14.01,2013-06-05 01:37:00,
2013-06-04 21:38:00,59.5,46.9,30.09,North,9,0.0,0.0,63,0.00,,,0.00,VWS V14.01,2013-06-05 01:38:00,
2013-06-04 21:39:00,59.4,46.8,30.09,North,9,0.0,0.0,63,0.00,,,0.00,VWS V14.01,2013-06-05 01:39:00,
2013-06-04 21:40:00,59.4,47.2,30.09,North,9,0.0,0.0,64,0.00,,,0.00,VWS V14.01,2013-06-05 01:40:00,
2013-06-04 21:41:00,59.4,47.2,30.09,North,9,0.0,0.0,64,0.00,,,0.00,VWS V14.01,2013-06-05 01:41:00,
2013-06-04 21:42:00,59.3,46.7,30.09,North,9,0.0,0.0,63,0.00,,,0.00,VWS V14.01,2013-06-05 01:42:00,
2013-06-04 21:43:00,59.3,47.1,30.09,North,9,0.0,0.0,64,0.00,,,0.00,VWS V14.01,2013-06-05 01:43:00,
2013-06-04 21:44:00,59.2,47.0,30.09,North,9,0.0,0.0,64,0.00,,,0.00,VWS V14.01,2013-06-05 01:44:00,
2013-06-04 21:45:00,59.2,47.0,30.09,North,9,0.0,0.0,64,0.00,,,0.00,VWS V14.01,2013-06-05 01:45:00,
2013-06-04 21:46:00,59.2,47.0,30.09,North,9,0.0,0.0,64,0.00,,,0.00,VWS V14.01,2013-06-05 01:46:00,
2013-06-04 21:47:00,59.1,47.0,30.09,North,9,0.0,0.0,64,0.00,,,0.00,VWS V14.01,2013-06-05 01:47:00,
2013-06-04 21:48:00,59.1,47.0,30.09,North,9,0.0,0.0,64,0.00,,,0.00,VWS V14.01,2013-06-05 01:48:00,
2013-06-04 21:49:00,59.1,47.0,30.09,North,9,0.0,0.0,64,0.00,,,0.00,VWS V14.01,2013-06-05 01:49:00,
2013-06-04 21:50:00,59.0,46.8,30.09,North,9,0.0,0.0,64,0.00,,,0.00,VWS V14.01,2013-06-05 01:50:00,
2013-06-04 21:51:00,59.0,46.8,30.09,North,9,0.0,0.0,64,0.00,,,0.00,VWS V14.01,2013-06-05 01:51:00,
2013-06-04 21:52:00,58.9,46.8,30.09,North,9,0.0,0.0,64,0.00,,,0.00,VWS V14.01,2013-06-05 01:52:00,
2013-06-04 21:53:00,58.9,46.3,30.09,North,9,0.0,0.0,63,0.00,,,0.00,VWS V14.01,2013-06-05 01:53:00,
2013-06-04 21:54:00,58.8,46.7,30.09,North,9,0.0,0.0,64,0.00,,,0.00,VWS V14.01,2013-06-05 01:54:00,
2013-06-04 21:55:00,58.8,46.2,30.09,North,9,0.0,0.0,63,0.00,,,0.00,VWS V14.01,2013-06-05 01:55:00,
2013-06-04 21:56:00,58.7,46.2,30.09,North,9,0.0,0.0,63,0.00,,,0.00,VWS V14.01,2013-06-05 01:56:00,
2013-06-04 21:57:00,58.7,46.2,30.09,North,9,0.0,0.0,63,0.00,,,0.00,VWS V14.01,2013-06-05 01:57:00,
2013-06-04 21:58:00,58.7,46.2,30.09,North,9,0.0,0.0,63,0.00,,,0.00,VWS V14.01,2013-06-05 01:58:00,
2013-06-04 21:59:00,58.6,46.1,30.09,North,9,0.0,0.0,63,0.00,,,0.00,VWS V14.01,2013-06-05 01:59:00,
2013-06-04 22:00:00,58.6,46.5,30.10,North,9,0.0,0.0,64,0.00,,,0.00,VWS V14.01,2013-06-05 02:00:00,
2013-06-04 22:01:00,58.6,46.5,30.10,North,9,0.0,0.0,64,0.00,,,0.00,VWS V14.01,2013-06-05 02:01:00,
2013-06-04 22:02:00,58.5,46.4,30.10,North,9,0.0,0.0,64,0.00,,,0.00,VWS V14.01,2013-06-05 02:02:00,
2013-06-04 22:03:00,58.5,46.8,30.10,North,9,0.0,0.0,65,0.00,,,0.00,VWS V14.01,2013-06-05 02:03:00,
2013-06-04 22:04:00,58.4,47.1,30.10,North,9,0.0,0.0,66,0.00,,,0.00,VWS V14.01,2013-06-05 02:04:00,
2013-06-04 22:05:00,58.4,47.1,30.10,North,9,0.0,0.0,66,0.00,,,0.00,VWS V14.01,2013-06-05 02:05:00,
2013-06-04 22:06:00,58.3,47.0,30.10,North,9,0.0,0.0,66,0.00,,,0.00,VWS V14.01,2013-06-05 02:06:00,
2013-06-04 22:07:00,58.2,47.3,30.10,North,9,0.0,0.0,67,0.00,,,0.00,VWS V14.01,2013-06-05 02:07:00,
2013-06-04 22:08:00,58.2,47.3,30.10,North,9,0.0,0.0,67,0.00,,,0.00,VWS V14.01,2013-06-05 02:08:00,
2013-06-04 22:09:00,58.1,47.2,30.10,North,9,0.0,0.0,67,0.00,,,0.00,VWS V14.01,2013-06-05 02:09:00,
2013-06-04 22:10:00,58.0,47.1,30.10,North,9,0.0,0.0,67,0.00,,,0.00,VWS V14.01,2013-06-05 02:10:00,
2013-06-04 22:11:00,58.0,47.1,30.10,North,9,0.0,0.0,67,0.00,,,0.00,VWS V14.01,2013-06-05 02:11:00,
2013-06-04 22:12:00,57.9,47.0,30.10,North,9,0.0,0.0,67,0.00,,,0.00,VWS V14.01,2013-06-05 02:12:00,
2013-06-04 22:13:00,57.9,47.0,30.10,North,9,0.0,0.0,67,0.00,,,0.00,VWS V14.01,2013-06-05 02:13:00,
2013-06-04 22:14:00,57.8,46.9,30.10,North,9,0.0,0.0,67,0.00,,,0.00,VWS V14.01,2013-06-05 02:14:00,
2013-06-04 22:15:00,57.8,46.9,30.10,North,9,0.0,0.0,67,0.00,,,0.00,VWS V14.01,2013-06-05 02:15:00,
2013-06-04 22:16:00,57.8,46.9,30.10,North,9,0.0,0.0,67,0.00,,,0.00,VWS V14.01,2013-06-05 02:16:00,
2013-06-04 22:17:00,57.7,46.8,30.10,North,9,0.0,0.0,67,0.00,,,0.00,VWS V14.01,2013-06-05 02:17:00,
2013-06-04 22:18:00,57.7,46.8,30.10,North,9,0.0,0.0,67,0.00,,,0.00,VWS V14.01,2013-06-05 02:18:00,
2013-06-04 22:19:00,57.7,46.8,30.10,North,9,0.0,0.0,67,0.00,,,0.00,VWS V14.01,2013-06-05 02:19:00,
2013-06-04 22:20:00,57.7,46.8,30.10,North,9,0.0,0.0,67,0.00,,,0.00,VWS V14.01,2013-06-05 02:20:00,
2013-06-04 22:21:00,57.7,46.8,30.10,North,9,0.0,0.0,67,0.00,,,0.00,VWS V14.01,2013-06-05 02:21:00,
2013-06-04 22:22:00,57.7,46.8,30.10,North,9,0.0,0.0,67,0.00,,,0.00,VWS V14.01,2013-06-05 02:22:00,
2013-06-04 22:23:00,57.6,46.7,30.10,North,9,0.0,0.0,67,0.00,,,0.00,VWS V14.01,2013-06-05 02:23:00,
2013-06-04 22:24:00,57.6,46.7,30.10,North,9,0.0,0.0,67,0.00,,,0.00,VWS V14.01,2013-06-05 02:24:00,
2013-06-04 22:25:00,57.6,46.7,30.10,North,9,0.0,0.0,67,0.00,,,0.00,VWS V14.01,2013-06-05 02:25:00,
2013-06-04 22:26:00,57.5,46.6,30.10,North,9,0.0,0.0,67,0.00,,,0.00,VWS V14.01,2013-06-05 02:26:00,
2013-06-04 22:27:00,57.5,46.6,30.10,North,9,0.0,0.0,67,0.00,,,0.00,VWS V14.01,2013-06-05 02:27:00,
2013-06-04 22:28:00,57.5,47.0,30.10,North,9,0.0,0.0,68,0.00,,,0.00,VWS V14.01,2013-06-05 02:28:00,
2013-06-04 22:29:00,57.5,47.0,30.10,North,9,0.0,0.0,68,0.00,,,0.00,VWS V14.01,2013-06-05 02:29:00,
2013-06-04 22:30:00,57.4,46.9,30.10,North,9,0.0,0.0,68,0.00,,,0.00,VWS V14.01,2013-06-05 02:30:00,
2013-06-04 22:31:00,57.4,46.9,30.10,North,9,0.0,0.0,68,0.00,,,0.00,VWS V14.01,2013-06-05 02:31:00,
2013-06-04 22:32:00,57.4,46.9,30.10,North,9,0.0,0.0,68,0.00,,,0.00,VWS V14.01,2013-06-05 02:32:00,
2013-06-04 22:33:00,57.3,46.8,30.10,North,9,0.0,0.0,68,0.00,,,0.00,VWS V14.01,2013-06-05 02:33:00,
2013-06-04 22:34:00,57.3,46.8,30.10,North,9,0.0,0.0,68,0.00,,,0.00,VWS V14.01,2013-06-05 02:34:00,
2013-06-04 22:35:00,57.3,46.8,30.10,North,9,0.0,0.0,68,0.00,,,0.00,VWS V14.01,2013-06-05 02:35:00,
2013-06-04 22:36:00,57.2,46.8,30.10,North,9,0.0,0.0,68,0.00,,,0.00,VWS V14.01,2013-06-05 02:36:00,
2013-06-04 22:37:00,57.2,46.8,30.10,North,9,0.0,0.0,68,0.00,,,0.00,VWS V14.01,2013-06-05 02:37:00,
2013-06-04 22:38:00,57.1,46.7,30.10,North,9,0.0,0.0,68,0.00,,,0.00,VWS V14.01,2013-06-05 02:38:00,
2013-06-04 22:39:00,57.1,46.7,30.10,North,9,0.0,0.0,68,0.00,,,0.00,VWS V14.01,2013-06-05 02:39:00,
2013-06-04 22:40:00,57.1,46.7,30.10,North,9,0.0,0.0,68,0.00,,,0.00,VWS V14.01,2013-06-05 02:40:00,
2013-06-04 22:41:00,57.1,46.7,30.10,North,9,0.0,0.0,68,0.00,,,0.00,VWS V14.01,2013-06-05 02:41:00,
2013-06-04 22:42:00,57.0,46.6,30.10,North,9,0.0,0.0,68,0.00,,,0.00,VWS V14.01,2013-06-05 02:42:00,
2013-06-04 22:43:00,57.0,46.6,30.10,North,9,0.0,0.0,68,0.00,,,0.00,VWS V14.01,2013-06-05 02:43:00,
2013-06-04 22:44:00,56.9,46.5,30.10,North,9,0.0,0.0,68,0.00,,,0.00,VWS V14.01,2013-06-05 02:44:00,
2013-06-04 22:45:00,56.9,46.5,30.10,North,9,0.0,0.0,68,0.00,,,0.00,VWS V14.01,2013-06-05 02:45:00,
2013-06-04 22:46:00,56.8,46.4,30.10,North,9,0.0,0.0,68,0.00,,,0.00,VWS V14.01,2013-06-05 02:46:00,
2013-06-04 22:47:00,56.8,46.4,30.10,North,9,0.0,0.0,68,0.00,,,0.00,VWS V14.01,2013-06-05 02:47:00,
2013-06-04 22:48:00,56.8,46.4,30.10,North,9,0.0,0.0,68,0.00,,,0.00,VWS V14.01,2013-06-05 02:48:00,
2013-06-04 22:49:00,56.8,46.4,30.10,North,9,0.0,0.0,68,0.00,,,0.00,VWS V14.01,2013-06-05 02:49:00,
2013-06-04 22:50:00,56.7,46.3,30.10,North,9,0.0,0.0,68,0.00,,,0.00,VWS V14.01,2013-06-05 02:50:00,
2013-06-04 22:51:00,56.7,46.3,30.10,North,9,0.0,0.0,68,0.00,,,0.00,VWS V14.01,2013-06-05 02:51:00,
2013-06-04 22:52:00,56.7,46.7,30.10,North,9,0.0,0.0,69,0.00,,,0.00,VWS V14.01,2013-06-05 02:52:00,
2013-06-04 22:53:00,56.6,46.6,30.10,North,9,0.0,0.0,69,0.00,,,0.00,VWS V14.01,2013-06-05 02:53:00,
2013-06-04 22:54:00,56.6,46.6,30.10,North,9,0.0,0.0,69,0.00,,,0.00,VWS V14.01,2013-06-05 02:54:00,
2013-06-04 22:55:00,56.5,46.5,30.10,North,9,0.0,0.0,69,0.00,,,0.00,VWS V14.01,2013-06-05 02:55:00,
2013-06-04 22:56:00,56.4,46.4,30.10,North,9,0.0,0.0,69,0.00,,,0.00,VWS V14.01,2013-06-05 02:56:00,
2013-06-04 22:57:00,56.4,46.4,30.10,North,9,0.0,0.0,69,0.00,,,0.00,VWS V14.01,2013-06-05 02:57:00,
2013-06-04 22:58:00,56.3,46.3,30.10,North,9,0.0,0.0,69,0.00,,,0.00,VWS V14.01,2013-06-05 02:58:00,
2013-06-04 22:59:00,56.3,46.3,30.10,North,9,0.0,0.0,69,0.00,,,0.00,VWS V14.01,2013-06-05 02:59:00,
2013-06-04 23:00:00,56.2,46.2,30.10,North,9,0.0,0.0,69,0.00,,,0.00,VWS V14.01,2013-06-05 03:00:00,
2013-06-04 23:01:00,56.2,46.2,30.10,North,9,0.0,0.0,69,0.00,,,0.00,VWS V14.01,2013-06-05 03:01:00,
2013-06-04 23:02:00,56.1,46.1,30.10,North,9,0.0,0.0,69,0.00,,,0.00,VWS V14.01,2013-06-05 03:02:00,
2013-06-04 23:03:00,56.0,46.4,30.10,North,9,0.0,0.0,70,0.00,,,0.00,VWS V14.01,2013-06-05 03:03:00,
2013-06-04 23:04:00,56.0,46.4,30.10,North,9,0.0,0.0,70,0.00,,,0.00,VWS V14.01,2013-06-05 03:04:00,
2013-06-04 23:05:00,56.0,46.0,30.10,North,9,0.0,0.0,69,0.00,,,0.00,VWS V14.01,2013-06-05 03:05:00,
2013-06-04 23:06:00,55.9,45.9,30.10,North,9,0.0,0.0,69,0.00,,,0.00,VWS V14.01,2013-06-05 03:06:00,
2013-06-04 23:07:00,55.9,45.9,30.10,North,9,0.0,0.0,69,0.00,,,0.00,VWS V14.01,2013-06-05 03:07:00,
2013-06-04 23:08:00,55.9,45.9,30.10,North,9,0.0,0.0,69,0.00,,,0.00,VWS V14.01,2013-06-05 03:08:00,
2013-06-04 23:09:00,55.8,45.8,30.10,North,9,0.0,0.0,69,0.00,,,0.00,VWS V14.01,2013-06-05 03:09:00,
2013-06-04 23:10:00,55.8,46.2,30.10,North,9,0.0,0.0,70,0.00,,,0.00,VWS V14.01,2013-06-05 03:10:00,
2013-06-04 23:11:00,55.8,46.2,30.10,North,9,0.0,0.0,70,0.00,,,0.00,VWS V14.01,2013-06-05 03:11:00,
2013-06-04 23:12:00,55.8,46.2,30.10,North,9,0.0,0.0,70,0.00,,,0.00,VWS V14.01,2013-06-05 03:12:00,
2013-06-04 23:13:00,55.8,46.2,30.10,North,9,0.0,0.0,70,0.00,,,0.00,VWS V14.01,2013-06-05 03:13:00,
2013-06-04 23:14:00,55.7,46.1,30.10,North,5,0.0,0.0,70,0.00,,,0.00,VWS V14.01,2013-06-05 03:14:00,
2013-06-04 23:15:00,55.7,46.1,30.10,North,5,0.0,0.0,70,0.00,,,0.00,VWS V14.01,2013-06-05 03:15:00,
2013-06-04 23:16:00,55.7,46.1,30.10,North,5,0.0,0.0,70,0.00,,,0.00,VWS V14.01,2013-06-05 03:16:00,
2013-06-04 23:17:00,55.7,46.1,30.10,North,5,0.0,0.0,70,0.00,,,0.00,VWS V14.01,2013-06-05 03:17:00,
2013-06-04 23:18:00,55.6,46.0,30.10,North,5,0.0,0.0,70,0.00,,,0.00,VWS V14.01,2013-06-05 03:18:00,
2013-06-04 23:19:00,55.6,46.4,30.10,North,5,0.0,0.0,71,0.00,,,0.00,VWS V14.01,2013-06-05 03:19:00,
2013-06-04 23:20:00,55.6,46.4,30.10,North,5,0.0,0.0,71,0.00,,,0.00,VWS V14.01,2013-06-05 03:20:00,
2013-06-04 23:21:00,55.6,46.4,30.10,North,5,0.0,0.0,71,0.00,,,0.00,VWS V14.01,2013-06-05 03:21:00,
2013-06-04 23:22:00,55.5,46.3,30.10,North,5,0.0,0.0,71,0.00,,,0.00,VWS V14.01,2013-06-05 03:22:00,
2013-06-04 23:23:00,55.5,46.3,30.10,North,5,0.0,0.0,71,0.00,,,0.00,VWS V14.01,2013-06-05 03:23:00,
2013-06-04 23:24:00,55.5,46.3,30.10,North,5,0.0,0.0,71,0.00,,,0.00,VWS V14.01,2013-06-05 03:24:00,
2013-06-04 23:25:00,55.5,46.3,30.10,North,5,0.0,0.0,71,0.00,,,0.00,VWS V14.01,2013-06-05 03:25:00,
2013-06-04 23:26:00,55.4,46.5,30.10,North,5,0.0,0.0,72,0.00,,,0.00,VWS V14.01,2013-06-05 03:26:00,
2013-06-04 23:27:00,55.4,46.5,30.10,North,5,0.0,0.0,72,0.00,,,0.00,VWS V14.01,2013-06-05 03:27:00,
2013-06-04 23:28:00,55.4,46.5,30.10,North,5,0.0,0.0,72,0.00,,,0.00,VWS V14.01,2013-06-05 03:28:00,
2013-06-04 23:29:00,55.4,46.5,30.10,North,5,0.0,0.0,72,0.00,,,0.00,VWS V14.01,2013-06-05 03:29:00,
2013-06-04 23:30:00,55.3,46.4,30.10,North,5,0.0,0.0,72,0.00,,,0.00,VWS V14.01,2013-06-05 03:30:00,
2013-06-04 23:31:00,55.3,46.4,30.10,North,5,0.0,0.0,72,0.00,,,0.00,VWS V14.01,2013-06-05 03:31:00,
2013-06-04 23:32:00,55.3,46.4,30.10,North,5,0.0,0.0,72,0.00,,,0.00,VWS V14.01,2013-06-05 03:32:00,
2013-06-04 23:33:00,55.2,46.3,30.10,North,5,0.0,0.0,72,0.00,,,0.00,VWS V14.01,2013-06-05 03:33:00,
2013-06-04 23:34:00,55.2,46.3,30.10,North,5,0.0,0.0,72,0.00,,,0.00,VWS V14.01,2013-06-05 03:34:00,
2013-06-04 23:35:00,55.1,46.2,30.10,North,5,0.0,0.0,72,0.00,,,0.00,VWS V14.01,2013-06-05 03:35:00,
2013-06-04 23:36:00,55.1,46.2,30.10,North,5,0.0,0.0,72,0.00,,,0.00,VWS V14.01,2013-06-05 03:36:00,
2013-06-04 23:37:00,55.1,46.2,30.10,North,5,0.0,0.0,72,0.00,,,0.00,VWS V14.01,2013-06-05 03:37:00,
2013-06-04 23:38:00,55.1,46.2,30.10,North,5,0.0,0.0,72,0.00,,,0.00,VWS V14.01,2013-06-05 03:38:00,
2013-06-04 23:39:00,55.0,46.2,30.10,North,5,0.0,0.0,72,0.00,,,0.00,VWS V14.01,2013-06-05 03:39:00,
2013-06-04 23:40:00,55.0,46.2,30.10,North,5,0.0,0.0,72,0.00,,,0.00,VWS V14.01,2013-06-05 03:40:00,
2013-06-04 23:41:00,55.0,45.8,30.10,North,5,0.0,0.0,71,0.00,,,0.00,VWS V14.01,2013-06-05 03:41:00,
2013-06-04 23:42:00,54.9,45.7,30.10,North,5,0.0,0.0,71,0.00,,,0.00,VWS V14.01,2013-06-05 03:42:00,
2013-06-04 23:43:00,54.9,45.7,30.10,North,5,0.0,0.0,71,0.00,,,0.00,VWS V14.01,2013-06-05 03:43:00,
2013-06-04 23:44:00,54.8,46.0,30.10,North,5,0.0,0.0,72,0.00,,,0.00,VWS V14.01,2013-06-05 03:44:00,
2013-06-04 23:45:00,54.8,46.0,30.11,North,5,0.0,0.0,72,0.00,,,0.00,VWS V14.01,2013-06-05 03:45:00,
2013-06-04 23:46:00,54.7,45.9,30.11,North,5,0.0,0.0,72,0.00,,,0.00,VWS V14.01,2013-06-05 03:46:00,
2013-06-04 23:47:00,54.7,45.9,30.11,North,5,0.0,0.0,72,0.00,,,0.00,VWS V14.01,2013-06-05 03:47:00,
2013-06-04 23:48:00,54.6,45.8,30.11,North,5,0.0,0.0,72,0.00,,,0.00,VWS V14.01,2013-06-05 03:48:00,
2013-06-04 23:49:00,54.6,45.8,30.11,North,5,0.0,0.0,72,0.00,,,0.00,VWS V14.01,2013-06-05 03:49:00,
2013-06-04 23:50:00,54.6,45.8,30.11,North,5,0.0,0.0,72,0.00,,,0.00,VWS V14.01,2013-06-05 03:50:00,
2013-06-04 23:51:00,54.5,46.0,30.11,North,5,0.0,0.0,73,0.00,,,0.00,VWS V14.01,2013-06-05 03:51:00,
2013-06-04 23:52:00,54.5,46.0,30.11,North,5,0.0,0.0,73,0.00,,,0.00,VWS V14.01,2013-06-05 03:52:00,
2013-06-04 23:53:00,54.5,46.0,30.11,North,5,0.0,0.0,73,0.00,,,0.00,VWS V14.01,2013-06-05 03:53:00,
2013-06-04 23:54:00,54.4,45.9,30.11,North,5,0.0,0.0,73,0.00,,,0.00,VWS V14.01,2013-06-05 03:54:00,
2013-06-04 23:55:00,54.4,45.9,30.11,North,5,0.0,0.0,73,0.00,,,0.00,VWS V14.01,2013-06-05 03:55:00,
2013-06-04 23:56:00,54.3,45.8,30.11,North,5,0.0,0.0,73,0.00,,,0.00,VWS V14.01,2013-06-05 03:56:00,
2013-06-04 23:57:00,54.3,45.8,30.11,ENE,75,1.0,1.0,73,0.00,,,0.00,VWS V14.01,2013-06-05 03:57:00,
2013-06-04 23:58:00,54.2,45.8,30.11,ENE,75,0.0,1.0,73,0.00,,,0.00,VWS V14.01,2013-06-05 03:58:00,
2013-06-04 23:59:00,54.2,45.8,30.11,ENE,75,0.0,1.0,73,0.00,,,0.00,VWS V14.01,2013-06-05 03:59:00,